Wetterdaten: Dienstag, 10.10.2017
Datum Zeit Temp. A. Pool Temp. Feuchte A. Luftdruck Regen Wind Richtung Richtung Sonnenschein ET UV Solar Taupunkt Windchill Windben Empfang
10.10.2017 00:00 9,4 C 11,1 C 92 % 1019,1 hPa 0,0 l/m 14,2 km/h (3 Bft) SW 225 0 min 0,000 mm 0,0 UV-I 0 W/m 8,2 C 4,8 C 20,9 km/h (4 Bft) 100,00 %
10.10.2017 00:02 9,4 C 11,1 C 92 % 1019,1 hPa 0,0 l/m 11,8 km/h (2 Bft) SW 225 0 min 0,000 mm 0,0 UV-I 0 W/m 8,2 C 5,9 C 17,7 km/h (3 Bft) 100,00 %
10.10.2017 00:04 9,4 C 11,1 C 92 % 1019,2 hPa 0,0 l/m 12,8 km/h (3 Bft) SW 236 0 min 0,000 mm 0,0 UV-I 0 W/m 8,2 C 5,4 C 19,3 km/h (3 Bft) 100,00 %
10.10.2017 00:06 9,4 C 11,1 C 92 % 1019,1 hPa 0,0 l/m 11,2 km/h (2 Bft) W-SW 247 0 min 0,000 mm 0,0 UV-I 0 W/m 8,2 C 6,2 C 17,7 km/h (3 Bft) 100,00 %
10.10.2017 00:08 9,4 C 11,1 C 91 % 1019,1 hPa 0,0 l/m 13,5 km/h (3 Bft) SW 220 0 min 0,000 mm 0,0 UV-I 0 W/m 8,0 C 5,1 C 17,7 km/h (3 Bft) 100,00 %
10.10.2017 00:10 9,4 C 11,1 C 91 % 1019,1 hPa 0,0 l/m 12,8 km/h (3 Bft) S-SW 210 0 min 0,000 mm 0,0 UV-I 0 W/m 8,0 C 5,4 C 19,3 km/h (3 Bft) 100,00 %
10.10.2017 00:12 9,4 C 11,1 C 91 % 1019,1 hPa 0,0 l/m 13,2 km/h (3 Bft) W-SW 240 0 min 0,000 mm 0,0 UV-I 0 W/m 8,0 C 5,2 C 19,3 km/h (3 Bft) 100,00 %
10.10.2017 00:14 9,5 C 11,1 C 91 % 1019,1 hPa 0,0 l/m 14,8 km/h (3 Bft) S-SW 210 0 min 0,000 mm 0,0 UV-I 0 W/m 8,1 C 4,6 C 20,9 km/h (4 Bft) 97,87 %
10.10.2017 00:16 9,6 C 11,1 C 91 % 1019,1 hPa 0,0 l/m 12,7 km/h (3 Bft) SW 227 0 min 0,000 mm 0,0 UV-I 0 W/m 8,2 C 5,7 C 17,7 km/h (3 Bft) 97,87 %
10.10.2017 00:18 9,6 C 11,1 C 91 % 1019,1 hPa 0,0 l/m 14,1 km/h (3 Bft) SW 225 0 min 0,000 mm 0,0 UV-I 0 W/m 8,2 C 5,0 C 20,9 km/h (4 Bft) 100,00 %
10.10.2017 00:20 9,6 C 11,1 C 91 % 1019,1 hPa 0,0 l/m 13,6 km/h (3 Bft) W-SW 238 0 min 0,000 mm 0,0 UV-I 0 W/m 8,2 C 5,3 C 19,3 km/h (3 Bft) 100,00 %
10.10.2017 00:22 9,7 C 11,1 C 91 % 1019,0 hPa 0,0 l/m 10,2 km/h (2 Bft) SW 225 0 min 0,000 mm 0,0 UV-I 0 W/m 8,3 C 7,1 C 16,1 km/h (3 Bft) 100,00 %
10.10.2017 00:24 9,7 C 11,1 C 91 % 1019,1 hPa 0,0 l/m 12,7 km/h (3 Bft) W-SW 246 0 min 0,000 mm 0,0 UV-I 0 W/m 8,3 C 5,8 C 19,3 km/h (3 Bft) 100,00 %
10.10.2017 00:26 9,7 C 11,1 C 91 % 1019,0 hPa 0,0 l/m 10,0 km/h (2 Bft) SW 233 0 min 0,000 mm 0,0 UV-I 0 W/m 8,3 C 7,3 C 14,5 km/h (3 Bft) 94,74 %
10.10.2017 00:28 9,7 C 11,1 C 90 % 1019,0 hPa 0,0 l/m 9,4 km/h (2 Bft) SW 229 0 min 0,000 mm 0,0 UV-I 0 W/m 8,1 C 7,6 C 16,1 km/h (3 Bft) 100,00 %
10.10.2017 00:30 9,7 C 11,1 C 90 % 1019,0 hPa 0,0 l/m 12,7 km/h (3 Bft) W 273 0 min 0,000 mm 0,0 UV-I 0 W/m 8,1 C 5,8 C 20,9 km/h (4 Bft) 97,92 %
10.10.2017 00:32 9,8 C 11,1 C 90 % 1019,0 hPa 0,0 l/m 13,0 km/h (3 Bft) SW 225 0 min 0,000 mm 0,0 UV-I 0 W/m 8,2 C 5,8 C 17,7 km/h (3 Bft) 100,00 %
10.10.2017 00:34 9,8 C 11,1 C 90 % 1019,0 hPa 0,0 l/m 12,4 km/h (3 Bft) W-SW 245 0 min 0,000 mm 0,0 UV-I 0 W/m 8,2 C 6,1 C 20,9 km/h (4 Bft) 100,00 %
10.10.2017 00:36 9,8 C 11,1 C 90 % 1019,0 hPa 0,0 l/m 12,7 km/h (3 Bft) W-SW 252 0 min 0,000 mm 0,0 UV-I 0 W/m 8,2 C 5,9 C 22,5 km/h (4 Bft) 98,00 %
10.10.2017 00:38 9,8 C 11,1 C 90 % 1019,0 hPa 0,0 l/m 12,2 km/h (2 Bft) W-SW 242 0 min 0,000 mm 0,0 UV-I 0 W/m 8,2 C 6,2 C 20,9 km/h (4 Bft) 100,00 %
10.10.2017 00:40 9,8 C 11,1 C 90 % 1019,0 hPa 0,0 l/m 11,9 km/h (2 Bft) W-SW 248 0 min 0,000 mm 0,0 UV-I 0 W/m 8,2 C 6,3 C 19,3 km/h (3 Bft) 97,87 %
10.10.2017 00:42 9,8 C 11,1 C 90 % 1019,0 hPa 0,0 l/m 11,9 km/h (2 Bft) SW 230 0 min 0,000 mm 0,0 UV-I 0 W/m 8,2 C 6,3 C 16,1 km/h (3 Bft) 100,00 %
10.10.2017 00:44 9,8 C 11,1 C 90 % 1019,0 hPa 0,0 l/m 11,5 km/h (2 Bft) W-SW 241 0 min 0,000 mm 0,0 UV-I 0 W/m 8,2 C 6,5 C 17,7 km/h (3 Bft) 100,00 %
10.10.2017 00:46 9,8 C 11,1 C 90 % 1018,9 hPa 0,0 l/m 9,7 km/h (2 Bft) W-NW 282 0 min 0,000 mm 0,0 UV-I 0 W/m 8,2 C 7,6 C 16,1 km/h (3 Bft) 100,00 %
10.10.2017 00:48 9,8 C 11,1 C 90 % 1018,9 hPa 0,0 l/m 11,8 km/h (2 Bft) SW 227 0 min 0,000 mm 0,0 UV-I 0 W/m 8,2 C 6,4 C 19,3 km/h (3 Bft) 97,87 %
10.10.2017 00:50 9,8 C 11,1 C 90 % 1018,9 hPa 0,0 l/m 15,3 km/h (3 Bft) SW 225 0 min 0,000 mm 0,0 UV-I 0 W/m 8,2 C 4,8 C 20,9 km/h (4 Bft) 100,00 %
10.10.2017 00:52 9,8 C 11,1 C 90 % 1018,9 hPa 0,0 l/m 12,8 km/h (3 Bft) SW 232 0 min 0,000 mm 0,0 UV-I 0 W/m 8,2 C 5,9 C 19,3 km/h (3 Bft) 100,00 %
10.10.2017 00:54 9,8 C 11,1 C 90 % 1018,9 hPa 0,0 l/m 14,8 km/h (3 Bft) W-SW 257 0 min 0,000 mm 0,0 UV-I 0 W/m 8,2 C 5,0 C 19,3 km/h (3 Bft) 97,87 %
10.10.2017 00:56 9,8 C 11,1 C 90 % 1018,9 hPa 0,0 l/m 13,2 km/h (3 Bft) SW 234 0 min 0,000 mm 0,0 UV-I 0 W/m 8,2 C 5,7 C 20,9 km/h (4 Bft) 100,00 %
10.10.2017 00:58 9,8 C 11,1 C 90 % 1018,9 hPa 0,0 l/m 14,0 km/h (3 Bft) S-SW 207 0 min 0,000 mm 0,0 UV-I 0 W/m 8,2 C 5,3 C 19,3 km/h (3 Bft) 100,00 %
10.10.2017 01:00 9,8 C 11,1 C 90 % 1018,9 hPa 0,0 l/m 12,2 km/h (2 Bft) SW 236 0 min 0,025 mm 0,0 UV-I 0 W/m 8,2 C 6,2 C 17,7 km/h (3 Bft) 100,00 %
10.10.2017 01:02 9,8 C 11,1 C 90 % 1018,9 hPa 0,0 l/m 12,6 km/h (3 Bft) W-SW 242 0 min 0,000 mm 0,0 UV-I 0 W/m 8,2 C 6,0 C 22,5 km/h (4 Bft) 98,00 %
10.10.2017 01:04 9,8 C 11,1 C 90 % 1018,9 hPa 0,0 l/m 12,0 km/h (2 Bft) SW 227 0 min 0,000 mm 0,0 UV-I 0 W/m 8,2 C 6,3 C 19,3 km/h (3 Bft) 100,00 %
10.10.2017 01:06 9,8 C 11,1 C 90 % 1018,9 hPa 0,0 l/m 13,7 km/h (3 Bft) SW 216 0 min 0,000 mm 0,0 UV-I 0 W/m 8,2 C 5,5 C 20,9 km/h (4 Bft) 100,00 %
10.10.2017 01:08 9,8 C 11,1 C 90 % 1018,9 hPa 0,0 l/m 11,0 km/h (2 Bft) S-SW 211 0 min 0,000 mm 0,0 UV-I 0 W/m 8,2 C 6,8 C 17,7 km/h (3 Bft) 97,87 %
10.10.2017 01:10 9,8 C 11,1 C 90 % 1018,9 hPa 0,0 l/m 12,5 km/h (3 Bft) SW 219 0 min 0,000 mm 0,0 UV-I 0 W/m 8,2 C 6,0 C 17,7 km/h (3 Bft) 93,62 %
10.10.2017 01:12 9,8 C 11,1 C 90 % 1018,9 hPa 0,0 l/m 12,0 km/h (2 Bft) SW 224 0 min 0,000 mm 0,0 UV-I 0 W/m 8,2 C 6,3 C 20,9 km/h (4 Bft) 95,74 %
10.10.2017 01:14 9,7 C 11,1 C 90 % 1018,9 hPa 0,0 l/m 11,3 km/h (2 Bft) SW 225 0 min 0,000 mm 0,0 UV-I 0 W/m 8,1 C 6,5 C 17,7 km/h (3 Bft) 97,87 %
10.10.2017 01:16 9,7 C 11,1 C 90 % 1018,8 hPa 0,0 l/m 13,6 km/h (3 Bft) SW 229 0 min 0,000 mm 0,0 UV-I 0 W/m 8,1 C 5,4 C 17,7 km/h (3 Bft) 97,87 %
10.10.2017 01:18 9,7 C 11,1 C 90 % 1018,8 hPa 0,0 l/m 12,6 km/h (3 Bft) SW 227 0 min 0,000 mm 0,0 UV-I 0 W/m 8,1 C 5,9 C 19,3 km/h (3 Bft) 97,87 %
10.10.2017 01:20 9,7 C 11,1 C 90 % 1018,8 hPa 0,0 l/m 11,9 km/h (2 Bft) SW 232 0 min 0,000 mm 0,0 UV-I 0 W/m 8,1 C 6,2 C 17,7 km/h (3 Bft) 95,83 %
10.10.2017 01:22 9,7 C 11,1 C 90 % 1018,9 hPa 0,0 l/m 12,1 km/h (2 Bft) SW 230 0 min 0,000 mm 0,0 UV-I 0 W/m 8,1 C 6,1 C 19,3 km/h (3 Bft) 97,22 %
10.10.2017 01:24 9,8 C 11,1 C 90 % 1018,9 hPa 0,0 l/m 13,2 km/h (3 Bft) SW 222 0 min 0,000 mm 0,0 UV-I 0 W/m 8,2 C 5,7 C 19,3 km/h (3 Bft) 95,74 %
10.10.2017 01:26 9,8 C 11,1 C 90 % 1018,9 hPa 0,0 l/m 10,4 km/h (2 Bft) W-SW 244 0 min 0,000 mm 0,0 UV-I 0 W/m 8,2 C 7,1 C 16,1 km/h (3 Bft) 97,87 %
10.10.2017 01:28 9,8 C 11,1 C 90 % 1018,9 hPa 0,0 l/m 12,4 km/h (3 Bft) SW 225 0 min 0,000 mm 0,0 UV-I 0 W/m 8,2 C 6,1 C 19,3 km/h (3 Bft) 95,74 %
10.10.2017 01:30 9,7 C 11,1 C 90 % 1018,9 hPa 0,0 l/m 9,9 km/h (2 Bft) S-SW 213 0 min 0,000 mm 0,0 UV-I 0 W/m 8,1 C 7,3 C 14,5 km/h (3 Bft) 95,83 %
10.10.2017 01:32 9,7 C 11,1 C 90 % 1018,9 hPa 0,0 l/m 9,5 km/h (2 Bft) W-SW 247 0 min 0,000 mm 0,0 UV-I 0 W/m 8,1 C 7,6 C 16,1 km/h (3 Bft) 97,87 %
10.10.2017 01:34 9,7 C 11,1 C 90 % 1018,9 hPa 0,0 l/m 9,5 km/h (2 Bft) SW 225 0 min 0,000 mm 0,0 UV-I 0 W/m 8,1 C 7,6 C 17,7 km/h (3 Bft) 97,87 %
10.10.2017 01:36 9,7 C 11,1 C 90 % 1018,9 hPa 0,0 l/m 8,5 km/h (2 Bft) SW 229 0 min 0,000 mm 0,0 UV-I 0 W/m 8,1 C 8,2 C 12,9 km/h (3 Bft) 95,74 %
10.10.2017 01:38 9,7 C 11,1 C 90 % 1018,9 hPa 0,0 l/m 9,0 km/h (2 Bft) SW 232 0 min 0,000 mm 0,0 UV-I 0 W/m 8,1 C 7,9 C 16,1 km/h (3 Bft) 97,87 %
10.10.2017 01:40 9,7 C 11,1 C 90 % 1018,9 hPa 0,0 l/m 10,0 km/h (2 Bft) SW 235 0 min 0,000 mm 0,0 UV-I 0 W/m 8,1 C 7,3 C 14,5 km/h (3 Bft) 96,08 %
10.10.2017 01:42 9,7 C 11,1 C 90 % 1018,9 hPa 0,0 l/m 8,5 km/h (2 Bft) W-SW 239 0 min 0,000 mm 0,0 UV-I 0 W/m 8,1 C 8,2 C 14,5 km/h (3 Bft) 95,74 %
10.10.2017 01:44 9,7 C 11,1 C 90 % 1018,9 hPa 0,0 l/m 8,4 km/h (2 Bft) W-SW 246 0 min 0,000 mm 0,0 UV-I 0 W/m 8,1 C 8,3 C 14,5 km/h (3 Bft) 95,74 %
10.10.2017 01:46 9,7 C 11,1 C 90 % 1018,9 hPa 0,0 l/m 8,0 km/h (2 Bft) SW 234 0 min 0,000 mm 0,0 UV-I 0 W/m 8,1 C 8,5 C 14,5 km/h (3 Bft) 100,00 %
10.10.2017 01:48 9,7 C 11,1 C 90 % 1018,9 hPa 0,0 l/m 9,7 km/h (2 Bft) SW 221 0 min 0,000 mm 0,0 UV-I 0 W/m 8,1 C 7,4 C 14,5 km/h (3 Bft) 97,87 %
10.10.2017 01:50 9,7 C 11,1 C 89 % 1018,9 hPa 0,0 l/m 8,5 km/h (2 Bft) W-SW 245 0 min 0,000 mm 0,0 UV-I 0 W/m 8,0 C 8,2 C 12,9 km/h (3 Bft) 100,00 %
10.10.2017 01:52 9,7 C 11,1 C 89 % 1018,8 hPa 0,0 l/m 9,6 km/h (2 Bft) SW 230 0 min 0,000 mm 0,0 UV-I 0 W/m 8,0 C 7,5 C 14,5 km/h (3 Bft) 100,00 %
10.10.2017 01:54 9,7 C 11,1 C 89 % 1018,8 hPa 0,0 l/m 10,5 km/h (2 Bft) W-SW 247 0 min 0,000 mm 0,0 UV-I 0 W/m 8,0 C 7,0 C 14,5 km/h (3 Bft) 100,00 %
10.10.2017 01:56 9,7 C 11,1 C 89 % 1018,8 hPa 0,0 l/m 10,2 km/h (2 Bft) S-SW 211 0 min 0,000 mm 0,0 UV-I 0 W/m 8,0 C 7,1 C 14,5 km/h (3 Bft) 100,00 %
10.10.2017 01:58 9,6 C 11,1 C 89 % 1018,8 hPa 0,0 l/m 9,0 km/h (2 Bft) W-SW 251 0 min 0,000 mm 0,0 UV-I 0 W/m 7,9 C 7,8 C 16,1 km/h (3 Bft) 100,00 %
10.10.2017 02:00 9,6 C 11,1 C 89 % 1018,8 hPa 0,0 l/m 10,4 km/h (2 Bft) SW 220 0 min 0,026 mm 0,0 UV-I 0 W/m 7,9 C 6,9 C 16,1 km/h (3 Bft) 100,00 %
10.10.2017 02:02 9,6 C 11,1 C 89 % 1018,9 hPa 0,0 l/m 8,4 km/h (2 Bft) SW 232 0 min 0,000 mm 0,0 UV-I 0 W/m 7,9 C 8,2 C 12,9 km/h (3 Bft) 100,00 %
10.10.2017 02:04 9,6 C 11,1 C 89 % 1018,8 hPa 0,0 l/m 8,9 km/h (2 Bft) SW 221 0 min 0,000 mm 0,0 UV-I 0 W/m 7,9 C 7,8 C 16,1 km/h (3 Bft) 100,00 %
10.10.2017 02:06 9,6 C 11,1 C 89 % 1018,8 hPa 0,0 l/m 7,9 km/h (2 Bft) SW 224 0 min 0,000 mm 0,0 UV-I 0 W/m 7,9 C 8,5 C 11,3 km/h (2 Bft) 98,00 %
10.10.2017 02:08 9,6 C 11,1 C 89 % 1018,8 hPa 0,0 l/m 9,4 km/h (2 Bft) SW 232 0 min 0,000 mm 0,0 UV-I 0 W/m 7,9 C 7,5 C 14,5 km/h (3 Bft) 100,00 %
10.10.2017 02:10 9,6 C 11,1 C 89 % 1018,8 hPa 0,0 l/m 10,6 km/h (2 Bft) SW 217 0 min 0,000 mm 0,0 UV-I 0 W/m 7,9 C 6,8 C 14,5 km/h (3 Bft) 100,00 %
10.10.2017 02:12 9,6 C 11,1 C 89 % 1018,9 hPa 0,0 l/m 9,6 km/h (2 Bft) SW 234 0 min 0,000 mm 0,0 UV-I 0 W/m 7,9 C 7,4 C 12,9 km/h (3 Bft) 100,00 %
10.10.2017 02:14 9,6 C 11,1 C 89 % 1018,9 hPa 0,0 l/m 8,8 km/h (2 Bft) W-SW 239 0 min 0,000 mm 0,0 UV-I 0 W/m 7,9 C 7,9 C 14,5 km/h (3 Bft) 100,00 %
10.10.2017 02:16 9,6 C 11,1 C 89 % 1018,9 hPa 0,0 l/m 9,3 km/h (2 Bft) SW 227 0 min 0,000 mm 0,0 UV-I 0 W/m 7,9 C 7,6 C 16,1 km/h (3 Bft) 100,00 %
10.10.2017 02:18 9,6 C 11,1 C 89 % 1018,8 hPa 0,0 l/m 8,5 km/h (2 Bft) SW 235 0 min 0,000 mm 0,0 UV-I 0 W/m 7,9 C 8,1 C 12,9 km/h (3 Bft) 98,04 %
10.10.2017 02:20 9,5 C 11,1 C 89 % 1018,8 hPa 0,0 l/m 9,2 km/h (2 Bft) SW 234 0 min 0,000 mm 0,0 UV-I 0 W/m 7,8 C 7,5 C 14,5 km/h (3 Bft) 97,87 %
10.10.2017 02:22 9,5 C 11,1 C 89 % 1018,8 hPa 0,0 l/m 7,6 km/h (2 Bft) W-SW 256 0 min 0,000 mm 0,0 UV-I 0 W/m 7,8 C 8,6 C 11,3 km/h (2 Bft) 97,87 %
10.10.2017 02:24 9,5 C 11,1 C 89 % 1018,9 hPa 0,0 l/m 8,2 km/h (2 Bft) W-SW 242 0 min 0,000 mm 0,0 UV-I 0 W/m 7,8 C 8,2 C 12,9 km/h (3 Bft) 94,74 %
10.10.2017 02:26 9,5 C 11,1 C 88 % 1018,9 hPa 0,0 l/m 9,5 km/h (2 Bft) S-SW 211 0 min 0,000 mm 0,0 UV-I 0 W/m 7,6 C 7,3 C 12,9 km/h (3 Bft) 100,00 %
10.10.2017 02:28 9,5 C 11,1 C 88 % 1018,9 hPa 0,0 l/m 8,8 km/h (2 Bft) W 267 0 min 0,000 mm 0,0 UV-I 0 W/m 7,6 C 7,8 C 14,5 km/h (3 Bft) 100,00 %
10.10.2017 02:30 9,5 C 11,1 C 88 % 1018,9 hPa 0,0 l/m 8,8 km/h (2 Bft) W-SW 240 0 min 0,000 mm 0,0 UV-I 0 W/m 7,6 C 7,8 C 14,5 km/h (3 Bft) 97,92 %
10.10.2017 02:32 9,5 C 11,1 C 88 % 1018,8 hPa 0,0 l/m 7,8 km/h (2 Bft) W 263 0 min 0,000 mm 0,0 UV-I 0 W/m 7,6 C 8,5 C 12,9 km/h (3 Bft) 100,00 %
10.10.2017 02:34 9,5 C 11,1 C 88 % 1018,8 hPa 0,0 l/m 11,5 km/h (2 Bft) S-SW 213 0 min 0,000 mm 0,0 UV-I 0 W/m 7,6 C 6,2 C 17,7 km/h (3 Bft) 97,87 %
10.10.2017 02:36 9,5 C 11,1 C 87 % 1018,9 hPa 0,0 l/m 9,8 km/h (2 Bft) SW 218 0 min 0,000 mm 0,0 UV-I 0 W/m 7,4 C 7,2 C 14,5 km/h (3 Bft) 98,00 %
10.10.2017 02:38 9,5 C 11,1 C 87 % 1018,8 hPa 0,0 l/m 9,3 km/h (2 Bft) SW 227 0 min 0,000 mm 0,0 UV-I 0 W/m 7,4 C 7,5 C 12,9 km/h (3 Bft) 97,87 %
10.10.2017 02:40 9,5 C 11,1 C 87 % 1018,8 hPa 0,0 l/m 9,6 km/h (2 Bft) SW 221 0 min 0,000 mm 0,0 UV-I 0 W/m 7,4 C 7,3 C 14,5 km/h (3 Bft) 97,87 %
10.10.2017 02:42 9,5 C 11,1 C 87 % 1018,8 hPa 0,0 l/m 7,9 km/h (2 Bft) SW 215 0 min 0,000 mm 0,0 UV-I 0 W/m 7,4 C 8,4 C 11,3 km/h (2 Bft) 97,87 %
10.10.2017 02:44 9,5 C 11,1 C 87 % 1018,8 hPa 0,0 l/m 10,1 km/h (2 Bft) W-SW 238 0 min 0,000 mm 0,0 UV-I 0 W/m 7,4 C 7,0 C 14,5 km/h (3 Bft) 95,74 %
10.10.2017 02:46 9,5 C 11,1 C 87 % 1018,8 hPa 0,0 l/m 10,6 km/h (2 Bft) W-SW 258 0 min 0,000 mm 0,0 UV-I 0 W/m 7,4 C 6,7 C 14,5 km/h (3 Bft) 95,74 %
10.10.2017 02:48 9,5 C 11,1 C 87 % 1018,8 hPa 0,0 l/m 10,8 km/h (2 Bft) SW 227 0 min 0,000 mm 0,0 UV-I 0 W/m 7,4 C 6,6 C 16,1 km/h (3 Bft) 96,00 %
10.10.2017 02:50 9,5 C 11,1 C 87 % 1018,8 hPa 0,0 l/m 10,8 km/h (2 Bft) SW 223 0 min 0,000 mm 0,0 UV-I 0 W/m 7,4 C 6,6 C 17,7 km/h (3 Bft) 100,00 %
10.10.2017 02:52 9,4 C 11,1 C 87 % 1018,8 hPa 0,0 l/m 10,8 km/h (2 Bft) SW 225 0 min 0,000 mm 0,0 UV-I 0 W/m 7,3 C 6,5 C 16,1 km/h (3 Bft) 96,00 %
10.10.2017 02:54 9,4 C 11,1 C 87 % 1018,7 hPa 0,0 l/m 9,5 km/h (2 Bft) W-SW 248 0 min 0,000 mm 0,0 UV-I 0 W/m 7,3 C 7,2 C 16,1 km/h (3 Bft) 95,74 %
10.10.2017 02:56 9,4 C 11,1 C 87 % 1018,7 hPa 0,0 l/m 10,6 km/h (2 Bft) SW 232 0 min 0,000 mm 0,0 UV-I 0 W/m 7,3 C 6,6 C 17,7 km/h (3 Bft) 97,87 %
10.10.2017 02:58 9,4 C 11,1 C 87 % 1018,7 hPa 0,0 l/m 11,5 km/h (2 Bft) SW 220 0 min 0,000 mm 0,0 UV-I 0 W/m 7,3 C 6,1 C 17,7 km/h (3 Bft) 95,74 %
10.10.2017 03:00 9,4 C 11,1 C 87 % 1018,7 hPa 0,0 l/m 11,6 km/h (2 Bft) W-SW 238 0 min 0,025 mm 0,0 UV-I 0 W/m 7,3 C 6,0 C 17,7 km/h (3 Bft) 98,00 %
10.10.2017 03:02 9,4 C 11,1 C 87 % 1018,7 hPa 0,0 l/m 10,1 km/h (2 Bft) SW 234 0 min 0,000 mm 0,0 UV-I 0 W/m 7,3 C 6,9 C 17,7 km/h (3 Bft) 98,00 %
10.10.2017 03:04 9,4 C 11,1 C 87 % 1018,7 hPa 0,0 l/m 12,0 km/h (2 Bft) SW 221 0 min 0,000 mm 0,0 UV-I 0 W/m 7,3 C 5,8 C 19,3 km/h (3 Bft) 97,37 %
10.10.2017 03:06 9,4 C 11,1 C 87 % 1018,8 hPa 0,0 l/m 11,4 km/h (2 Bft) SW 219 0 min 0,000 mm 0,0 UV-I 0 W/m 7,3 C 6,1 C 17,7 km/h (3 Bft) 97,87 %
10.10.2017 03:08 9,4 C 11,1 C 87 % 1018,7 hPa 0,0 l/m 8,7 km/h (2 Bft) W-SW 238 0 min 0,000 mm 0,0 UV-I 0 W/m 7,3 C 7,7 C 14,5 km/h (3 Bft) 95,83 %
10.10.2017 03:10 9,4 C 11,1 C 88 % 1018,7 hPa 0,0 l/m 11,8 km/h (2 Bft) SW 229 0 min 0,000 mm 0,0 UV-I 0 W/m 7,5 C 5,9 C 17,7 km/h (3 Bft) 100,00 %
10.10.2017 03:12 9,3 C 11,1 C 88 % 1018,7 hPa 0,0 l/m 12,8 km/h (3 Bft) S-SW 209 0 min 0,000 mm 0,0 UV-I 0 W/m 7,4 C 5,3 C 19,3 km/h (3 Bft) 97,87 %
10.10.2017 03:14 9,3 C 11,1 C 88 % 1018,7 hPa 0,0 l/m 12,9 km/h (3 Bft) SW 229 0 min 0,000 mm 0,0 UV-I 0 W/m 7,4 C 5,3 C 17,7 km/h (3 Bft) 97,87 %
10.10.2017 03:16 9,3 C 11,1 C 88 % 1018,7 hPa 0,0 l/m 12,6 km/h (3 Bft) W-SW 237 0 min 0,000 mm 0,0 UV-I 0 W/m 7,4 C 5,4 C 17,7 km/h (3 Bft) 95,74 %
10.10.2017 03:18 9,2 C 11,1 C 88 % 1018,7 hPa 0,0 l/m 13,3 km/h (3 Bft) W-SW 255 0 min 0,000 mm 0,0 UV-I 0 W/m 7,3 C 4,9 C 19,3 km/h (3 Bft) 93,62 %
10.10.2017 03:20 9,2 C 11,1 C 88 % 1018,6 hPa 0,0 l/m 12,9 km/h (3 Bft) W-SW 254 0 min 0,000 mm 0,0 UV-I 0 W/m 7,3 C 5,1 C 19,3 km/h (3 Bft) 93,62 %
10.10.2017 03:22 9,2 C 11,1 C 89 % 1018,6 hPa 0,0 l/m 10,0 km/h (2 Bft) SW 236 0 min 0,000 mm 0,0 UV-I 0 W/m 7,5 C 6,7 C 14,5 km/h (3 Bft) 96,00 %
10.10.2017 03:24 9,1 C 11,1 C 89 % 1018,6 hPa 0,0 l/m 10,7 km/h (2 Bft) SW 217 0 min 0,000 mm 0,0 UV-I 0 W/m 7,4 C 6,2 C 16,1 km/h (3 Bft) 93,62 %
10.10.2017 03:26 9,1 C 11,1 C 89 % 1018,6 hPa 0,0 l/m 9,6 km/h (2 Bft) W-SW 242 0 min 0,000 mm 0,0 UV-I 0 W/m 7,4 C 6,8 C 14,5 km/h (3 Bft) 93,62 %
10.10.2017 03:28 9,1 C 11,1 C 89 % 1018,6 hPa 0,0 l/m 9,2 km/h (2 Bft) S-SW 205 0 min 0,000 mm 0,0 UV-I 0 W/m 7,4 C 7,1 C 16,1 km/h (3 Bft) 94,00 %
10.10.2017 03:30 9,1 C 11,1 C 89 % 1018,7 hPa 0,0 l/m 9,2 km/h (2 Bft) SW 218 0 min 0,000 mm 0,0 UV-I 0 W/m 7,4 C 7,1 C 14,5 km/h (3 Bft) 93,62 %
10.10.2017 03:32 9,1 C 11,1 C 89 % 1018,6 hPa 0,0 l/m 11,3 km/h (2 Bft) SW 219 0 min 0,000 mm 0,0 UV-I 0 W/m 7,4 C 5,9 C 17,7 km/h (3 Bft) 93,62 %
10.10.2017 03:34 9,1 C 11,1 C 89 % 1018,7 hPa 0,0 l/m 9,9 km/h (2 Bft) W-SW 256 0 min 0,000 mm 0,0 UV-I 0 W/m 7,4 C 6,7 C 14,5 km/h (3 Bft) 94,74 %
10.10.2017 03:36 9,1 C 11,1 C 89 % 1018,6 hPa 0,0 l/m 9,9 km/h (2 Bft) SW 215 0 min 0,000 mm 0,0 UV-I 0 W/m 7,4 C 6,7 C 17,7 km/h (3 Bft) 95,74 %
10.10.2017 03:38 9,1 C 11,1 C 89 % 1018,6 hPa 0,0 l/m 9,9 km/h (2 Bft) SW 225 0 min 0,000 mm 0,0 UV-I 0 W/m 7,4 C 6,7 C 16,1 km/h (3 Bft) 95,74 %
10.10.2017 03:40 9,1 C 11,1 C 89 % 1018,7 hPa 0,0 l/m 10,5 km/h (2 Bft) S-SW 194 0 min 0,000 mm 0,0 UV-I 0 W/m 7,4 C 6,3 C 14,5 km/h (3 Bft) 97,87 %
10.10.2017 03:42 9,1 C 11,1 C 89 % 1018,7 hPa 0,0 l/m 10,0 km/h (2 Bft) S-SW 207 0 min 0,000 mm 0,0 UV-I 0 W/m 7,4 C 6,6 C 16,1 km/h (3 Bft) 95,74 %
10.10.2017 03:44 9,1 C 11,1 C 89 % 1018,6 hPa 0,0 l/m 9,6 km/h (2 Bft) SW 235 0 min 0,000 mm 0,0 UV-I 0 W/m 7,4 C 6,8 C 14,5 km/h (3 Bft) 100,00 %
10.10.2017 03:46 9,1 C 11,1 C 89 % 1018,6 hPa 0,0 l/m 9,6 km/h (2 Bft) S-SW 193 0 min 0,000 mm 0,0 UV-I 0 W/m 7,4 C 6,8 C 14,5 km/h (3 Bft) 97,22 %
10.10.2017 03:48 9,1 C 11,1 C 89 % 1018,5 hPa 0,0 l/m 9,4 km/h (2 Bft) SW 223 0 min 0,000 mm 0,0 UV-I 0 W/m 7,4 C 7,0 C 14,5 km/h (3 Bft) 96,72 %
10.10.2017 03:50 9,1 C 11,1 C 89 % 1018,5 hPa 0,0 l/m 9,9 km/h (2 Bft) SW 215 0 min 0,000 mm 0,0 UV-I 0 W/m 7,4 C 6,7 C 14,5 km/h (3 Bft) 97,87 %
10.10.2017 03:52 9,1 C 11,1 C 89 % 1018,5 hPa 0,0 l/m 9,3 km/h (2 Bft) S-SW 202 0 min 0,000 mm 0,0 UV-I 0 W/m 7,4 C 7,0 C 14,5 km/h (3 Bft) 97,92 %
10.10.2017 03:54 9,1 C 11,1 C 89 % 1018,4 hPa 0,0 l/m 9,3 km/h (2 Bft) S-SW 206 0 min 0,000 mm 0,0 UV-I 0 W/m 7,4 C 7,0 C 14,5 km/h (3 Bft) 97,87 %
10.10.2017 03:56 9,1 C 11,1 C 89 % 1018,4 hPa 0,0 l/m 8,0 km/h (2 Bft) W-SW 242 0 min 0,000 mm 0,0 UV-I 0 W/m 7,4 C 7,9 C 12,9 km/h (3 Bft) 100,00 %
10.10.2017 03:58 9,1 C 11,1 C 89 % 1018,4 hPa 0,0 l/m 9,1 km/h (2 Bft) SW 235 0 min 0,000 mm 0,0 UV-I 0 W/m 7,4 C 7,2 C 14,5 km/h (3 Bft) 100,00 %
10.10.2017 04:00 9,1 C 11,1 C 89 % 1018,4 hPa 0,0 l/m 8,6 km/h (2 Bft) SW 227 0 min 0,026 mm 0,0 UV-I 0 W/m 7,4 C 7,5 C 12,9 km/h (3 Bft) 100,00 %
10.10.2017 04:02 9,1 C 11,1 C 89 % 1018,5 hPa 0,0 l/m 7,5 km/h (2 Bft) W-SW 246 0 min 0,000 mm 0,0 UV-I 0 W/m 7,4 C 8,3 C 11,3 km/h (2 Bft) 100,00 %
10.10.2017 04:04 9,1 C 11,1 C 89 % 1018,5 hPa 0,0 l/m 6,8 km/h (2 Bft) SW 226 0 min 0,000 mm 0,0 UV-I 0 W/m 7,4 C 8,8 C 9,7 km/h (2 Bft) 100,00 %
10.10.2017 04:06 9,1 C 11,1 C 89 % 1018,6 hPa 0,0 l/m 7,4 km/h (2 Bft) W-SW 253 0 min 0,000 mm 0,0 UV-I 0 W/m 7,4 C 8,3 C 11,3 km/h (2 Bft) 100,00 %
10.10.2017 04:08 9,1 C 11,1 C 89 % 1018,5 hPa 0,0 l/m 7,9 km/h (2 Bft) SW 221 0 min 0,000 mm 0,0 UV-I 0 W/m 7,4 C 8,0 C 12,9 km/h (3 Bft) 97,87 %
10.10.2017 04:10 9,1 C 11,1 C 89 % 1018,5 hPa 0,0 l/m 8,0 km/h (2 Bft) SW 227 0 min 0,000 mm 0,0 UV-I 0 W/m 7,4 C 7,9 C 11,3 km/h (2 Bft) 97,37 %
10.10.2017 04:12 9,0 C 11,1 C 89 % 1018,6 hPa 0,0 l/m 8,6 km/h (2 Bft) SW 227 0 min 0,000 mm 0,0 UV-I 0 W/m 7,3 C 7,4 C 12,9 km/h (3 Bft) 100,00 %
10.10.2017 04:14 9,0 C 11,1 C 90 % 1018,5 hPa 0,0 l/m 8,6 km/h (2 Bft) SW 232 0 min 0,000 mm 0,0 UV-I 0 W/m 7,4 C 7,4 C 14,5 km/h (3 Bft) 97,87 %
10.10.2017 04:16 9,0 C 11,1 C 90 % 1018,5 hPa 0,0 l/m 8,4 km/h (2 Bft) SW 236 0 min 0,000 mm 0,0 UV-I 0 W/m 7,4 C 7,5 C 12,9 km/h (3 Bft) 100,00 %
10.10.2017 04:18 8,9 C 11,1 C 90 % 1018,5 hPa 0,0 l/m 7,7 km/h (2 Bft) SW 227 0 min 0,000 mm 0,0 UV-I 0 W/m 7,4 C 7,9 C 12,9 km/h (3 Bft) 100,00 %
10.10.2017 04:20 8,9 C 11,1 C 90 % 1018,5 hPa 0,0 l/m 9,1 km/h (2 Bft) SW 218 0 min 0,000 mm 0,0 UV-I 0 W/m 7,4 C 6,9 C 14,5 km/h (3 Bft) 97,87 %
10.10.2017 04:22 8,9 C 11,1 C 90 % 1018,5 hPa 0,0 l/m 7,9 km/h (2 Bft) W-SW 240 0 min 0,000 mm 0,0 UV-I 0 W/m 7,4 C 7,8 C 11,3 km/h (2 Bft) 100,00 %
10.10.2017 04:24 8,9 C 11,1 C 90 % 1018,4 hPa 0,0 l/m 7,1 km/h (2 Bft) SW 227 0 min 0,000 mm 0,0 UV-I 0 W/m 7,4 C 8,4 C 9,7 km/h (2 Bft) 100,00 %
10.10.2017 04:26 8,9 C 11,1 C 90 % 1018,5 hPa 0,0 l/m 7,4 km/h (2 Bft) SW 233 0 min 0,000 mm 0,0 UV-I 0 W/m 7,4 C 8,1 C 12,9 km/h (3 Bft) 100,00 %
10.10.2017 04:28 8,8 C 11,1 C 90 % 1018,4 hPa 0,0 l/m 7,7 km/h (2 Bft) SW 217 0 min 0,000 mm 0,0 UV-I 0 W/m 7,3 C 7,8 C 12,9 km/h (3 Bft) 100,00 %
10.10.2017 04:30 8,8 C 11,1 C 90 % 1018,4 hPa 0,0 l/m 7,9 km/h (2 Bft) SW 220 0 min 0,000 mm 0,0 UV-I 0 W/m 7,3 C 7,7 C 12,9 km/h (3 Bft) 100,00 %
10.10.2017 04:32 8,8 C 11,1 C 90 % 1018,4 hPa 0,0 l/m 6,6 km/h (2 Bft) SW 215 0 min 0,000 mm 0,0 UV-I 0 W/m 7,3 C 8,7 C 9,7 km/h (2 Bft) 100,00 %
10.10.2017 04:34 8,8 C 11,1 C 90 % 1018,4 hPa 0,0 l/m 6,8 km/h (2 Bft) SW 227 0 min 0,000 mm 0,0 UV-I 0 W/m 7,3 C 8,5 C 11,3 km/h (2 Bft) 97,87 %
10.10.2017 04:36 8,8 C 11,1 C 90 % 1018,5 hPa 0,0 l/m 6,8 km/h (2 Bft) SW 232 0 min 0,000 mm 0,0 UV-I 0 W/m 7,3 C 8,5 C 9,7 km/h (2 Bft) 100,00 %
10.10.2017 04:38 8,7 C 11,1 C 90 % 1018,5 hPa 0,0 l/m 7,7 km/h (2 Bft) SW 218 0 min 0,000 mm 0,0 UV-I 0 W/m 7,2 C 7,7 C 11,3 km/h (2 Bft) 100,00 %
10.10.2017 04:40 8,7 C 11,1 C 91 % 1018,5 hPa 0,0 l/m 6,5 km/h (2 Bft) W-SW 242 0 min 0,000 mm 0,0 UV-I 0 W/m 7,3 C 8,6 C 9,7 km/h (2 Bft) 100,00 %
10.10.2017 04:42 8,7 C 11,1 C 90 % 1018,5 hPa 0,0 l/m 6,7 km/h (2 Bft) SW 235 0 min 0,000 mm 0,0 UV-I 0 W/m 7,2 C 8,5 C 9,7 km/h (2 Bft) 100,00 %
10.10.2017 04:44 8,7 C 11,1 C 91 % 1018,5 hPa 0,0 l/m 7,6 km/h (2 Bft) SW 236 0 min 0,000 mm 0,0 UV-I 0 W/m 7,3 C 7,8 C 11,3 km/h (2 Bft) 100,00 %
10.10.2017 04:46 8,7 C 11,1 C 91 % 1018,4 hPa 0,0 l/m 7,0 km/h (2 Bft) SW 232 0 min 0,000 mm 0,0 UV-I 0 W/m 7,3 C 8,2 C 8,0 km/h (2 Bft) 96,83 %
10.10.2017 04:48 8,7 C 11,1 C 91 % 1018,5 hPa 0,0 l/m 7,0 km/h (2 Bft) W-SW 237 0 min 0,000 mm 0,0 UV-I 0 W/m 7,3 C 8,2 C 11,3 km/h (2 Bft) 100,00 %
10.10.2017 04:50 8,7 C 11,1 C 91 % 1018,4 hPa 0,0 l/m 5,0 km/h (1 Bft) SW 235 0 min 0,000 mm 0,0 UV-I 0 W/m 7,3 C 8,7 C 8,0 km/h (2 Bft) 100,00 %
10.10.2017 04:52 8,6 C 11,1 C 91 % 1018,4 hPa 0,0 l/m 5,8 km/h (2 Bft) SW 229 0 min 0,000 mm 0,0 UV-I 0 W/m 7,2 C 8,6 C 8,0 km/h (2 Bft) 100,00 %
10.10.2017 04:54 8,6 C 11,1 C 91 % 1018,3 hPa 0,0 l/m 6,3 km/h (2 Bft) SW 233 0 min 0,000 mm 0,0 UV-I 0 W/m 7,2 C 8,6 C 9,7 km/h (2 Bft) 100,00 %
10.10.2017 04:56 8,6 C 11,1 C 91 % 1018,3 hPa 0,0 l/m 6,4 km/h (2 Bft) SW 227 0 min 0,000 mm 0,0 UV-I 0 W/m 7,2 C 8,6 C 8,0 km/h (2 Bft) 100,00 %
10.10.2017 04:58 8,6 C 11,1 C 92 % 1018,3 hPa 0,0 l/m 5,6 km/h (1 Bft) W-SW 239 0 min 0,000 mm 0,0 UV-I 0 W/m 7,4 C 8,6 C 9,7 km/h (2 Bft) 100,00 %
10.10.2017 05:00 8,6 C 11,1 C 92 % 1018,3 hPa 0,0 l/m 6,2 km/h (2 Bft) SW 230 0 min 0,000 mm 0,0 UV-I 0 W/m 7,4 C 8,6 C 9,7 km/h (2 Bft) 100,00 %
10.10.2017 05:02 8,6 C 11,1 C 92 % 1018,3 hPa 0,0 l/m 7,5 km/h (2 Bft) W-SW 244 0 min 0,000 mm 0,0 UV-I 0 W/m 7,4 C 7,8 C 9,7 km/h (2 Bft) 100,00 %
10.10.2017 05:04 8,6 C 11,1 C 92 % 1018,4 hPa 0,0 l/m 4,0 km/h (1 Bft) SW 225 0 min 0,000 mm 0,0 UV-I 0 W/m 7,4 C 8,6 C 6,4 km/h (2 Bft) 100,00 %
10.10.2017 05:06 8,6 C 11,1 C 91 % 1018,4 hPa 0,0 l/m 4,0 km/h (1 Bft) W 263 0 min 0,000 mm 0,0 UV-I 0 W/m 7,2 C 8,6 C 6,4 km/h (2 Bft) 100,00 %
10.10.2017 05:08 8,6 C 11,1 C 92 % 1018,4 hPa 0,0 l/m 5,5 km/h (1 Bft) SW 233 0 min 0,000 mm 0,0 UV-I 0 W/m 7,4 C 8,6 C 6,4 km/h (2 Bft) 100,00 %
10.10.2017 05:10 8,6 C 11,1 C 91 % 1018,3 hPa 0,0 l/m 6,4 km/h (2 Bft) SW 232 0 min 0,000 mm 0,0 UV-I 0 W/m 7,2 C 8,6 C 8,0 km/h (2 Bft) 95,74 %
10.10.2017 05:12 8,6 C 11,1 C 91 % 1018,3 hPa 0,0 l/m 7,3 km/h (2 Bft) SW 221 0 min 0,000 mm 0,0 UV-I 0 W/m 7,2 C 7,9 C 11,3 km/h (2 Bft) 100,00 %
10.10.2017 05:14 8,6 C 11,1 C 91 % 1018,3 hPa 0,0 l/m 7,9 km/h (2 Bft) W-SW 238 0 min 0,000 mm 0,0 UV-I 0 W/m 7,2 C 7,5 C 12,9 km/h (3 Bft) 100,00 %
10.10.2017 05:16 8,6 C 11,1 C 91 % 1018,3 hPa 0,0 l/m 7,5 km/h (2 Bft) SW 227 0 min 0,000 mm 0,0 UV-I 0 W/m 7,2 C 7,8 C 12,9 km/h (3 Bft) 97,87 %
10.10.2017 05:18 8,6 C 11,1 C 91 % 1018,3 hPa 0,0 l/m 9,1 km/h (2 Bft) SW 232 0 min 0,000 mm 0,0 UV-I 0 W/m 7,2 C 6,6 C 12,9 km/h (3 Bft) 97,87 %
10.10.2017 05:20 8,7 C 11,1 C 91 % 1018,3 hPa 0,0 l/m 6,7 km/h (2 Bft) W-SW 249 0 min 0,000 mm 0,0 UV-I 0 W/m 7,3 C 8,5 C 9,7 km/h (2 Bft) 97,87 %
10.10.2017 05:22 8,7 C 11,1 C 91 % 1018,3 hPa 0,0 l/m 6,6 km/h (2 Bft) SW 217 0 min 0,000 mm 0,0 UV-I 0 W/m 7,3 C 8,6 C 9,7 km/h (2 Bft) 93,75 %
10.10.2017 05:24 8,7 C 11,1 C 91 % 1018,2 hPa 0,0 l/m 5,2 km/h (1 Bft) S-SW 213 0 min 0,000 mm 0,0 UV-I 0 W/m 7,3 C 8,7 C 8,0 km/h (2 Bft) 95,83 %
10.10.2017 05:26 8,7 C 11,1 C 91 % 1018,2 hPa 0,0 l/m 6,6 km/h (2 Bft) SW 217 0 min 0,000 mm 0,0 UV-I 0 W/m 7,3 C 8,6 C 9,7 km/h (2 Bft) 95,74 %
10.10.2017 05:28 8,7 C 11,1 C 91 % 1018,2 hPa 0,0 l/m 4,7 km/h (1 Bft) SW 221 0 min 0,000 mm 0,0 UV-I 0 W/m 7,3 C 8,7 C 6,4 km/h (2 Bft) 97,87 %
10.10.2017 05:30 8,7 C 11,1 C 91 % 1018,2 hPa 0,0 l/m 5,3 km/h (1 Bft) W-SW 249 0 min 0,000 mm 0,0 UV-I 0 W/m 7,3 C 8,7 C 8,0 km/h (2 Bft) 97,56 %
10.10.2017 05:32 8,6 C 11,1 C 91 % 1018,2 hPa 0,0 l/m 5,0 km/h (1 Bft) W-SW 251 0 min 0,000 mm 0,0 UV-I 0 W/m 7,2 C 8,6 C 6,4 km/h (2 Bft) 95,74 %
10.10.2017 05:34 8,6 C 11,1 C 91 % 1018,2 hPa 0,0 l/m 5,3 km/h (1 Bft) W-SW 248 0 min 0,000 mm 0,0 UV-I 0 W/m 7,2 C 8,6 C 6,4 km/h (2 Bft) 97,87 %
10.10.2017 05:36 8,6 C 11,1 C 91 % 1018,2 hPa 0,0 l/m 5,2 km/h (1 Bft) W-SW 251 0 min 0,000 mm 0,0 UV-I 0 W/m 7,2 C 8,6 C 8,0 km/h (2 Bft) 96,00 %
10.10.2017 05:38 8,6 C 11,1 C 91 % 1018,1 hPa 0,0 l/m 4,8 km/h (1 Bft) W 267 0 min 0,000 mm 0,0 UV-I 0 W/m 7,2 C 8,6 C 6,4 km/h (2 Bft) 97,87 %
10.10.2017 05:40 8,6 C 11,1 C 91 % 1018,1 hPa 0,0 l/m 4,9 km/h (1 Bft) W-SW 255 0 min 0,000 mm 0,0 UV-I 0 W/m 7,2 C 8,6 C 6,4 km/h (2 Bft) 97,87 %
10.10.2017 05:42 8,6 C 11,1 C 91 % 1018,1 hPa 0,0 l/m 5,5 km/h (1 Bft) W-SW 240 0 min 0,000 mm 0,0 UV-I 0 W/m 7,2 C 8,6 C 9,7 km/h (2 Bft) 95,74 %
10.10.2017 05:44 8,6 C 11,1 C 91 % 1018,1 hPa 0,0 l/m 6,3 km/h (2 Bft) W-SW 246 0 min 0,000 mm 0,0 UV-I 0 W/m 7,2 C 8,6 C 11,3 km/h (2 Bft) 96,00 %
10.10.2017 05:46 8,6 C 11,1 C 91 % 1018,1 hPa 0,0 l/m 5,6 km/h (1 Bft) W-SW 248 0 min 0,000 mm 0,0 UV-I 0 W/m 7,2 C 8,6 C 8,0 km/h (2 Bft) 95,74 %
10.10.2017 05:48 8,6 C 11,1 C 91 % 1018,2 hPa 0,0 l/m 6,8 km/h (2 Bft) W-NW 282 0 min 0,000 mm 0,0 UV-I 0 W/m 7,2 C 8,3 C 11,3 km/h (2 Bft) 100,00 %
10.10.2017 05:50 8,6 C 11,1 C 91 % 1018,2 hPa 0,0 l/m 5,9 km/h (2 Bft) W 261 0 min 0,000 mm 0,0 UV-I 0 W/m 7,2 C 8,6 C 9,7 km/h (2 Bft) 96,00 %
10.10.2017 05:52 8,7 C 11,1 C 91 % 1018,3 hPa 0,0 l/m 3,8 km/h (1 Bft) W 263 0 min 0,000 mm 0,0 UV-I 0 W/m 7,3 C 8,7 C 6,4 km/h (2 Bft) 98,00 %
10.10.2017 05:54 8,6 C 11,1 C 91 % 1018,2 hPa 0,0 l/m 5,2 km/h (1 Bft) W 261 0 min 0,000 mm 0,0 UV-I 0 W/m 7,2 C 8,6 C 11,3 km/h (2 Bft) 97,87 %
10.10.2017 05:56 8,6 C 11,1 C 91 % 1018,2 hPa 0,0 l/m 4,3 km/h (1 Bft) W 274 0 min 0,000 mm 0,0 UV-I 0 W/m 7,2 C 8,6 C 6,4 km/h (2 Bft) 97,87 %
10.10.2017 05:58 8,6 C 11,1 C 92 % 1018,2 hPa 0,0 l/m 4,2 km/h (1 Bft) W 278 0 min 0,000 mm 0,0 UV-I 0 W/m 7,4 C 8,6 C 6,4 km/h (2 Bft) 95,74 %
10.10.2017 06:00 8,6 C 11,1 C 92 % 1018,2 hPa 0,0 l/m 5,0 km/h (1 Bft) W-SW 241 0 min 0,000 mm 0,0 UV-I 0 W/m 7,4 C 8,6 C 8,0 km/h (2 Bft) 97,87 %
10.10.2017 06:02 8,6 C 11,1 C 92 % 1018,1 hPa 0,0 l/m 6,9 km/h (2 Bft) W-SW 253 0 min 0,000 mm 0,0 UV-I 0 W/m 7,4 C 8,2 C 11,3 km/h (2 Bft) 96,00 %
10.10.2017 06:04 8,6 C 11,1 C 91 % 1018,2 hPa 0,0 l/m 5,6 km/h (1 Bft) W-SW 248 0 min 0,000 mm 0,0 UV-I 0 W/m 7,2 C 8,6 C 11,3 km/h (2 Bft) 100,00 %
10.10.2017 06:06 8,6 C 11,1 C 91 % 1018,2 hPa 0,0 l/m 5,1 km/h (1 Bft) W-SW 254 0 min 0,000 mm 0,0 UV-I 0 W/m 7,2 C 8,6 C 8,0 km/h (2 Bft) 100,00 %
10.10.2017 06:08 8,6 C 11,1 C 91 % 1018,2 hPa 0,0 l/m 5,6 km/h (1 Bft) W-SW 242 0 min 0,000 mm 0,0 UV-I 0 W/m 7,2 C 8,6 C 8,0 km/h (2 Bft) 100,00 %
10.10.2017 06:10 8,6 C 11,1 C 91 % 1018,1 hPa 0,0 l/m 6,4 km/h (2 Bft) W-SW 242 0 min 0,000 mm 0,0 UV-I 0 W/m 7,2 C 8,6 C 11,3 km/h (2 Bft) 97,87 %
10.10.2017 06:12 8,6 C 11,1 C 91 % 1018,1 hPa 0,0 l/m 4,8 km/h (1 Bft) W-SW 238 0 min 0,000 mm 0,0 UV-I 0 W/m 7,2 C 8,6 C 6,4 km/h (2 Bft) 97,87 %
10.10.2017 06:14 8,6 C 11,1 C 91 % 1018,1 hPa 0,0 l/m 5,5 km/h (1 Bft) W-SW 241 0 min 0,000 mm 0,0 UV-I 0 W/m 7,2 C 8,6 C 8,0 km/h (2 Bft) 97,37 %
10.10.2017 06:16 8,6 C 11,1 C 91 % 1018,1 hPa 0,0 l/m 5,9 km/h (2 Bft) W-SW 242 0 min 0,000 mm 0,0 UV-I 0 W/m 7,2 C 8,6 C 11,3 km/h (2 Bft) 97,87 %
10.10.2017 06:18 8,7 C 11,1 C 91 % 1018,1 hPa 0,0 l/m 5,1 km/h (1 Bft) SW 226 0 min 0,000 mm 0,0 UV-I 0 W/m 7,3 C 8,7 C 6,4 km/h (2 Bft) 97,87 %
10.10.2017 06:20 8,6 C 11,1 C 91 % 1018,1 hPa 0,0 l/m 5,4 km/h (1 Bft) SW 223 0 min 0,000 mm 0,0 UV-I 0 W/m 7,2 C 8,6 C 8,0 km/h (2 Bft) 97,87 %
10.10.2017 06:22 8,6 C 11,1 C 91 % 1018,1 hPa 0,0 l/m 5,0 km/h (1 Bft) SW 236 0 min 0,000 mm 0,0 UV-I 0 W/m 7,2 C 8,6 C 6,4 km/h (2 Bft) 98,00 %
10.10.2017 06:24 8,6 C 11,1 C 91 % 1018,1 hPa 0,0 l/m 4,3 km/h (1 Bft) W-SW 240 0 min 0,000 mm 0,0 UV-I 0 W/m 7,2 C 8,6 C 8,0 km/h (2 Bft) 95,74 %
10.10.2017 06:26 8,6 C 11,1 C 91 % 1018,1 hPa 0,0 l/m 5,0 km/h (1 Bft) SW 225 0 min 0,000 mm 0,0 UV-I 0 W/m 7,2 C 8,6 C 6,4 km/h (2 Bft) 95,74 %
10.10.2017 06:28 8,6 C 11,1 C 91 % 1018,1 hPa 0,0 l/m 5,8 km/h (2 Bft) W-SW 252 0 min 0,000 mm 0,0 UV-I 0 W/m 7,2 C 8,6 C 11,3 km/h (2 Bft) 97,92 %
10.10.2017 06:30 8,6 C 11,1 C 91 % 1018,1 hPa 0,0 l/m 6,5 km/h (2 Bft) W-SW 256 0 min 0,000 mm 0,0 UV-I 0 W/m 7,2 C 8,5 C 9,7 km/h (2 Bft) 97,87 %
10.10.2017 06:32 8,6 C 11,1 C 90 % 1018,1 hPa 0,0 l/m 6,1 km/h (2 Bft) S-SW 208 0 min 0,000 mm 0,0 UV-I 0 W/m 7,1 C 8,6 C 11,3 km/h (2 Bft) 97,87 %
10.10.2017 06:34 8,7 C 11,1 C 90 % 1018,1 hPa 0,0 l/m 5,8 km/h (2 Bft) W-SW 238 0 min 0,000 mm 0,0 UV-I 0 W/m 7,2 C 8,7 C 8,0 km/h (2 Bft) 97,87 %
10.10.2017 06:36 8,7 C 11,1 C 90 % 1018,2 hPa 0,0 l/m 7,4 km/h (2 Bft) SW 231 0 min 0,000 mm 0,0 UV-I 0 W/m 7,2 C 7,9 C 11,3 km/h (2 Bft) 97,87 %
10.10.2017 06:38 8,8 C 11,1 C 90 % 1018,1 hPa 0,0 l/m 7,7 km/h (2 Bft) W-SW 247 0 min 0,000 mm 0,0 UV-I 0 W/m 7,3 C 7,8 C 12,9 km/h (3 Bft) 93,62 %
10.10.2017 06:40 8,8 C 11,1 C 90 % 1018,1 hPa 0,0 l/m 7,0 km/h (2 Bft) SW 235 0 min 0,000 mm 0,0 UV-I 0 W/m 7,3 C 8,3 C 11,3 km/h (2 Bft) 97,87 %
10.10.2017 06:42 8,8 C 11,1 C 90 % 1018,1 hPa 0,0 l/m 9,4 km/h (2 Bft) W-SW 242 0 min 0,000 mm 0,0 UV-I 0 W/m 7,3 C 6,6 C 14,5 km/h (3 Bft) 98,00 %
10.10.2017 06:44 8,8 C 11,1 C 89 % 1018,1 hPa 0,0 l/m 10,1 km/h (2 Bft) S-SW 192 0 min 0,000 mm 0,0 UV-I 0 W/m 7,1 C 6,2 C 14,5 km/h (3 Bft) 95,74 %
10.10.2017 06:46 8,8 C 11,1 C 89 % 1018,0 hPa 0,0 l/m 10,0 km/h (2 Bft) W 263 0 min 0,000 mm 0,0 UV-I 0 W/m 7,1 C 6,3 C 14,5 km/h (3 Bft) 100,00 %
10.10.2017 06:48 8,8 C 11,1 C 89 % 1018,1 hPa 0,0 l/m 6,9 km/h (2 Bft) W-SW 255 0 min 0,000 mm 0,0 UV-I 0 W/m 7,1 C 8,4 C 11,3 km/h (2 Bft) 94,34 %
10.10.2017 06:50 8,8 C 11,1 C 89 % 1018,1 hPa 0,0 l/m 8,7 km/h (2 Bft) SW 236 0 min 0,000 mm 0,0 UV-I 0 W/m 7,1 C 7,1 C 12,9 km/h (3 Bft) 93,62 %
10.10.2017 06:52 8,8 C 11,1 C 89 % 1018,2 hPa 0,0 l/m 7,9 km/h (2 Bft) SW 233 0 min 0,000 mm 0,0 UV-I 0 W/m 7,1 C 7,7 C 12,9 km/h (3 Bft) 95,74 %
10.10.2017 06:54 8,8 C 11,1 C 89 % 1018,2 hPa 0,0 l/m 7,4 km/h (2 Bft) W 261 0 min 0,000 mm 0,0 UV-I 0 W/m 7,1 C 8,0 C 12,9 km/h (3 Bft) 97,87 %
10.10.2017 06:56 8,8 C 11,1 C 90 % 1018,2 hPa 0,0 l/m 9,4 km/h (2 Bft) SW 229 0 min 0,000 mm 0,0 UV-I 0 W/m 7,3 C 6,6 C 12,9 km/h (3 Bft) 95,74 %
10.10.2017 06:58 8,8 C 11,1 C 90 % 1018,2 hPa 0,0 l/m 8,5 km/h (2 Bft) SW 225 0 min 0,000 mm 0,0 UV-I 0 W/m 7,3 C 7,2 C 12,9 km/h (3 Bft) 95,74 %
10.10.2017 07:00 8,8 C 11,1 C 90 % 1018,2 hPa 0,0 l/m 9,6 km/h (2 Bft) W-SW 244 0 min 0,000 mm 0,0 UV-I 0 W/m 7,3 C 6,5 C 12,9 km/h (3 Bft) 97,87 %
10.10.2017 07:02 8,8 C 11,1 C 90 % 1018,2 hPa 0,0 l/m 9,4 km/h (2 Bft) W-SW 240 0 min 0,000 mm 0,0 UV-I 0 W/m 7,3 C 6,6 C 16,1 km/h (3 Bft) 97,87 %
10.10.2017 07:04 8,7 C 11,1 C 90 % 1018,2 hPa 0,0 l/m 7,6 km/h (2 Bft) SW 219 0 min 0,000 mm 0,0 UV-I 0 W/m 7,2 C 7,8 C 16,1 km/h (3 Bft) 97,87 %
10.10.2017 07:06 8,7 C 11,1 C 90 % 1018,2 hPa 0,0 l/m 7,9 km/h (2 Bft) W-SW 244 0 min 0,000 mm 0,0 UV-I 0 W/m 7,2 C 7,6 C 12,9 km/h (3 Bft) 95,74 %
10.10.2017 07:08 8,7 C 11,1 C 90 % 1018,2 hPa 0,0 l/m 8,8 km/h (2 Bft) SW 215 0 min 0,000 mm 0,0 UV-I 2 W/m 7,2 C 6,9 C 12,9 km/h (3 Bft) 95,74 %
10.10.2017 07:10 8,7 C 11,1 C 90 % 1018,2 hPa 0,0 l/m 7,1 km/h (2 Bft) S-SW 205 0 min 0,000 mm 0,0 UV-I 5 W/m 7,2 C 8,2 C 11,3 km/h (2 Bft) 95,83 %
10.10.2017 07:12 8,7 C 11,1 C 90 % 1018,2 hPa 0,0 l/m 8,1 km/h (2 Bft) S-SW 211 0 min 0,000 mm 0,0 UV-I 5 W/m 7,2 C 7,4 C 12,9 km/h (3 Bft) 100,00 %
10.10.2017 07:14 8,7 C 11,1 C 90 % 1018,2 hPa 0,0 l/m 8,4 km/h (2 Bft) SW 218 0 min 0,000 mm 0,0 UV-I 5 W/m 7,2 C 7,2 C 12,9 km/h (3 Bft) 97,87 %
10.10.2017 07:16 8,7 C 11,1 C 90 % 1018,3 hPa 0,0 l/m 6,9 km/h (2 Bft) SW 219 0 min 0,000 mm 0,0 UV-I 5 W/m 7,2 C 8,3 C 9,7 km/h (2 Bft) 97,37 %
10.10.2017 07:18 8,7 C 11,1 C 90 % 1018,3 hPa 0,0 l/m 7,9 km/h (2 Bft) S-SW 208 0 min 0,000 mm 0,0 UV-I 6 W/m 7,2 C 7,6 C 14,5 km/h (3 Bft) 93,62 %
10.10.2017 07:20 8,7 C 11,1 C 90 % 1018,2 hPa 0,0 l/m 7,9 km/h (2 Bft) S-SW 213 0 min 0,000 mm 0,0 UV-I 7 W/m 7,2 C 7,6 C 11,3 km/h (2 Bft) 95,74 %
10.10.2017 07:22 8,8 C 11,1 C 90 % 1018,3 hPa 0,0 l/m 7,9 km/h (2 Bft) S-SW 196 0 min 0,000 mm 0,0 UV-I 7 W/m 7,3 C 7,7 C 11,3 km/h (2 Bft) 97,87 %
10.10.2017 07:24 8,8 C 11,1 C 89 % 1018,3 hPa 0,0 l/m 7,9 km/h (2 Bft) W 259 0 min 0,000 mm 0,0 UV-I 8 W/m 7,1 C 7,7 C 11,3 km/h (2 Bft) 100,00 %
10.10.2017 07:26 8,8 C 11,1 C 89 % 1018,4 hPa 0,0 l/m 9,7 km/h (2 Bft) S-SW 196 2 min 0,000 mm 0,0 UV-I 9 W/m 7,1 C 6,5 C 16,1 km/h (3 Bft) 100,00 %
10.10.2017 07:28 8,8 C 11,1 C 89 % 1018,3 hPa 0,0 l/m 7,6 km/h (2 Bft) SW 223 0 min 0,000 mm 0,0 UV-I 9 W/m 7,1 C 7,9 C 12,9 km/h (3 Bft) 100,00 %
10.10.2017 07:30 8,8 C 11,1 C 89 % 1018,4 hPa 0,0 l/m 7,5 km/h (2 Bft) S-SW 209 0 min 0,000 mm 0,0 UV-I 11 W/m 7,1 C 8,0 C 12,9 km/h (3 Bft) 95,74 %
10.10.2017 07:32 8,8 C 11,1 C 89 % 1018,3 hPa 0,0 l/m 9,9 km/h (2 Bft) S-SW 202 0 min 0,000 mm 0,0 UV-I 11 W/m 7,1 C 6,3 C 17,7 km/h (3 Bft) 97,87 %
10.10.2017 07:34 8,8 C 11,1 C 89 % 1018,4 hPa 0,0 l/m 8,6 km/h (2 Bft) SW 221 0 min 0,000 mm 0,0 UV-I 11 W/m 7,1 C 7,2 C 14,5 km/h (3 Bft) 97,37 %
10.10.2017 07:36 8,8 C 11,1 C 89 % 1018,4 hPa 0,0 l/m 9,8 km/h (2 Bft) SW 232 0 min 0,000 mm 0,0 UV-I 12 W/m 7,1 C 6,4 C 16,1 km/h (3 Bft) 97,87 %
10.10.2017 07:38 8,8 C 11,1 C 89 % 1018,3 hPa 0,0 l/m 8,4 km/h (2 Bft) S-SW 213 0 min 0,000 mm 0,0 UV-I 13 W/m 7,1 C 7,3 C 14,5 km/h (3 Bft) 98,00 %
10.10.2017 07:40 8,9 C 11,1 C 89 % 1018,3 hPa 0,0 l/m 8,6 km/h (2 Bft) W-SW 246 0 min 0,000 mm 0,0 UV-I 14 W/m 7,2 C 7,3 C 14,5 km/h (3 Bft) 96,00 %
10.10.2017 07:42 8,9 C 11,1 C 89 % 1018,4 hPa 0,0 l/m 8,9 km/h (2 Bft) S-SW 206 0 min 0,000 mm 0,0 UV-I 15 W/m 7,2 C 7,1 C 14,5 km/h (3 Bft) 97,87 %
10.10.2017 07:44 8,9 C 11,1 C 89 % 1018,4 hPa 0,0 l/m 9,1 km/h (2 Bft) SW 216 0 min 0,000 mm 0,0 UV-I 16 W/m 7,2 C 6,9 C 14,5 km/h (3 Bft) 97,62 %
10.10.2017 07:46 8,9 C 11,1 C 89 % 1018,4 hPa 0,0 l/m 8,1 km/h (2 Bft) S 191 0 min 0,000 mm 0,0 UV-I 17 W/m 7,2 C 7,6 C 14,5 km/h (3 Bft) 97,87 %
10.10.2017 07:48 8,9 C 11,1 C 89 % 1018,4 hPa 0,0 l/m 8,0 km/h (2 Bft) SW 223 0 min 0,000 mm 0,0 UV-I 19 W/m 7,2 C 7,7 C 11,3 km/h (2 Bft) 95,74 %
10.10.2017 07:50 8,9 C 11,1 C 89 % 1018,4 hPa 0,0 l/m 7,2 km/h (2 Bft) W-SW 247 0 min 0,000 mm 0,0 UV-I 21 W/m 7,2 C 8,3 C 9,7 km/h (2 Bft) 95,74 %
10.10.2017 07:52 8,9 C 11,1 C 89 % 1018,5 hPa 0,0 l/m 6,4 km/h (2 Bft) SW 232 0 min 0,000 mm 0,0 UV-I 24 W/m 7,2 C 8,9 C 9,7 km/h (2 Bft) 95,74 %
10.10.2017 07:54 8,9 C 11,1 C 89 % 1018,6 hPa 0,0 l/m 6,9 km/h (2 Bft) W-SW 240 0 min 0,000 mm 0,0 UV-I 26 W/m 7,2 C 8,5 C 9,7 km/h (2 Bft) 98,00 %
10.10.2017 07:56 9,0 C 11,1 C 89 % 1018,6 hPa 0,0 l/m 6,1 km/h (2 Bft) SW 225 0 min 0,000 mm 0,0 UV-I 28 W/m 7,3 C 9,0 C 9,7 km/h (2 Bft) 95,74 %
10.10.2017 07:58 9,0 C 11,1 C 89 % 1018,6 hPa 0,0 l/m 5,8 km/h (2 Bft) SW 223 0 min 0,000 mm 0,0 UV-I 30 W/m 7,3 C 9,0 C 9,7 km/h (2 Bft) 95,74 %
10.10.2017 08:00 8,9 C 11,1 C 89 % 1018,6 hPa 0,0 l/m 6,0 km/h (2 Bft) SW 234 0 min 0,025 mm 0,0 UV-I 32 W/m 7,2 C 8,9 C 9,7 km/h (2 Bft) 97,87 %
10.10.2017 08:02 8,9 C 11,1 C 90 % 1018,6 hPa 0,0 l/m 4,8 km/h (1 Bft) W-SW 242 0 min 0,000 mm 0,0 UV-I 35 W/m 7,4 C 8,9 C 6,4 km/h (2 Bft) 95,74 %
10.10.2017 08:04 8,9 C 11,1 C 90 % 1018,6 hPa 0,0 l/m 6,4 km/h (2 Bft) SW 228 0 min 0,000 mm 0,0 UV-I 38 W/m 7,4 C 8,9 C 8,0 km/h (2 Bft) 97,87 %
10.10.2017 08:06 8,9 C 11,1 C 90 % 1018,6 hPa 0,0 l/m 4,9 km/h (1 Bft) W-SW 238 0 min 0,000 mm 0,0 UV-I 39 W/m 7,4 C 8,9 C 8,0 km/h (2 Bft) 97,87 %
10.10.2017 08:08 8,9 C 11,1 C 90 % 1018,6 hPa 0,0 l/m 4,1 km/h (1 Bft) W-SW 238 0 min 0,000 mm 0,0 UV-I 42 W/m 7,4 C 8,9 C 6,4 km/h (2 Bft) 97,87 %
10.10.2017 08:10 8,9 C 11,1 C 90 % 1018,6 hPa 0,0 l/m 5,0 km/h (1 Bft) W-SW 249 0 min 0,000 mm 0,0 UV-I 47 W/m 7,4 C 8,9 C 8,0 km/h (2 Bft) 97,87 %
10.10.2017 08:12 8,9 C 11,1 C 90 % 1018,7 hPa 0,0 l/m 5,2 km/h (1 Bft) W 269 0 min 0,000 mm 0,0 UV-I 49 W/m 7,4 C 8,9 C 6,4 km/h (2 Bft) 97,87 %
10.10.2017 08:14 8,9 C 11,1 C 90 % 1018,7 hPa 0,0 l/m 4,7 km/h (1 Bft) W 267 0 min 0,000 mm 0,0 UV-I 51 W/m 7,4 C 8,9 C 6,4 km/h (2 Bft) 95,74 %
10.10.2017 08:16 8,9 C 11,1 C 90 % 1018,7 hPa 0,0 l/m 5,1 km/h (1 Bft) W 261 0 min 0,000 mm 0,0 UV-I 56 W/m 7,4 C 8,9 C 6,4 km/h (2 Bft) 97,87 %
10.10.2017 08:18 8,9 C 11,1 C 91 % 1018,7 hPa 0,0 l/m 5,2 km/h (1 Bft) W 263 0 min 0,000 mm 0,0 UV-I 60 W/m 7,5 C 8,9 C 6,4 km/h (2 Bft) 91,67 %
10.10.2017 08:20 8,9 C 11,1 C 91 % 1018,7 hPa 0,0 l/m 4,2 km/h (1 Bft) W 264 0 min 0,000 mm 0,0 UV-I 64 W/m 7,5 C 8,9 C 6,4 km/h (2 Bft) 100,00 %
10.10.2017 08:22 8,9 C 11,1 C 91 % 1018,7 hPa 0,0 l/m 5,3 km/h (1 Bft) W-SW 258 0 min 0,000 mm 0,0 UV-I 80 W/m 7,5 C 8,9 C 8,0 km/h (2 Bft) 100,00 %
10.10.2017 08:24 8,9 C 11,1 C 91 % 1018,7 hPa 0,0 l/m 5,4 km/h (1 Bft) W-SW 252 0 min 0,000 mm 0,0 UV-I 85 W/m 7,5 C 8,9 C 6,4 km/h (2 Bft) 97,87 %
10.10.2017 08:26 9,0 C 11,1 C 91 % 1018,7 hPa 0,0 l/m 4,5 km/h (1 Bft) W-SW 258 0 min 0,000 mm 0,0 UV-I 72 W/m 7,6 C 9,0 C 6,4 km/h (2 Bft) 97,87 %
10.10.2017 08:28 9,0 C 11,1 C 91 % 1018,7 hPa 0,0 l/m 4,2 km/h (1 Bft) W 259 0 min 0,000 mm 0,0 UV-I 77 W/m 7,6 C 9,0 C 6,4 km/h (2 Bft) 100,00 %
10.10.2017 08:30 9,1 C 11,1 C 91 % 1018,7 hPa 0,0 l/m 4,5 km/h (1 Bft) W-SW 250 0 min 0,000 mm 0,0 UV-I 81 W/m 7,7 C 9,1 C 6,4 km/h (2 Bft) 100,00 %
10.10.2017 08:32 9,1 C 11,1 C 91 % 1018,7 hPa 0,0 l/m 5,9 km/h (2 Bft) W 264 0 min 0,000 mm 0,0 UV-I 84 W/m 7,7 C 9,1 C 11,3 km/h (2 Bft) 100,00 %
10.10.2017 08:34 9,1 C 11,1 C 91 % 1018,8 hPa 0,0 l/m 8,9 km/h (2 Bft) W-SW 245 0 min 0,000 mm 0,0 UV-I 87 W/m 7,7 C 7,3 C 12,9 km/h (3 Bft) 95,74 %
10.10.2017 08:36 9,1 C 11,1 C 91 % 1018,8 hPa 0,0 l/m 9,2 km/h (2 Bft) W-SW 255 0 min 0,000 mm 0,0 UV-I 89 W/m 7,7 C 7,1 C 14,5 km/h (3 Bft) 95,74 %
10.10.2017 08:38 9,2 C 11,1 C 91 % 1018,8 hPa 0,0 l/m 7,8 km/h (2 Bft) W 267 0 min 0,000 mm 0,0 UV-I 90 W/m 7,8 C 8,2 C 12,9 km/h (3 Bft) 97,87 %
10.10.2017 08:40 9,2 C 11,1 C 91 % 1018,8 hPa 0,0 l/m 7,6 km/h (2 Bft) W-SW 256 0 min 0,000 mm 0,0 UV-I 92 W/m 7,8 C 8,3 C 12,9 km/h (3 Bft) 96,00 %
10.10.2017 08:42 9,3 C 11,1 C 91 % 1018,9 hPa 0,0 l/m 7,8 km/h (2 Bft) W 268 0 min 0,000 mm 0,0 UV-I 94 W/m 7,9 C 8,3 C 12,9 km/h (3 Bft) 100,00 %
10.10.2017 08:44 9,3 C 11,1 C 91 % 1018,9 hPa 0,0 l/m 6,6 km/h (2 Bft) W-SW 250 0 min 0,000 mm 0,0 UV-I 96 W/m 7,9 C 9,2 C 11,3 km/h (2 Bft) 100,00 %
10.10.2017 08:46 9,3 C 11,1 C 90 % 1018,9 hPa 0,0 l/m 7,1 km/h (2 Bft) W-SW 248 0 min 0,000 mm 0,0 UV-I 98 W/m 7,7 C 8,8 C 11,3 km/h (2 Bft) 100,00 %
10.10.2017 08:48 9,4 C 11,1 C 90 % 1018,9 hPa 0,0 l/m 7,2 km/h (2 Bft) W-SW 257 0 min 0,000 mm 0,0 UV-I 103 W/m 7,8 C 8,8 C 11,3 km/h (2 Bft) 100,00 %
10.10.2017 08:50 9,4 C 11,1 C 90 % 1019,0 hPa 0,0 l/m 7,2 km/h (2 Bft) SW 234 0 min 0,000 mm 0,0 UV-I 110 W/m 7,8 C 8,8 C 12,9 km/h (3 Bft) 100,00 %
10.10.2017 08:52 9,5 C 11,1 C 90 % 1018,9 hPa 0,0 l/m 6,3 km/h (2 Bft) W-SW 245 0 min 0,000 mm 0,0 UV-I 114 W/m 7,9 C 9,5 C 9,7 km/h (2 Bft) 100,00 %
10.10.2017 08:54 9,5 C 11,1 C 90 % 1019,0 hPa 0,0 l/m 5,3 km/h (1 Bft) SW 229 0 min 0,000 mm 0,0 UV-I 118 W/m 7,9 C 9,5 C 8,0 km/h (2 Bft) 98,11 %
10.10.2017 08:56 9,6 C 11,1 C 90 % 1019,1 hPa 0,0 l/m 9,7 km/h (2 Bft) W 262 0 min 0,000 mm 0,0 UV-I 119 W/m 8,0 C 7,3 C 14,5 km/h (3 Bft) 97,87 %
10.10.2017 08:58 9,6 C 11,1 C 89 % 1019,1 hPa 0,0 l/m 7,8 km/h (2 Bft) W 271 0 min 0,000 mm 0,0 UV-I 120 W/m 7,9 C 8,6 C 14,5 km/h (3 Bft) 100,00 %
10.10.2017 09:00 9,7 C 11,1 C 90 % 1019,1 hPa 0,0 l/m 9,4 km/h (2 Bft) W-SW 245 0 min 0,051 mm 0,0 UV-I 117 W/m 8,1 C 7,6 C 12,9 km/h (3 Bft) 100,00 %
10.10.2017 09:02 9,7 C 11,1 C 90 % 1019,1 hPa 0,0 l/m 8,8 km/h (2 Bft) W-SW 245 0 min 0,000 mm 0,0 UV-I 116 W/m 8,1 C 8,0 C 12,9 km/h (3 Bft) 100,00 %
10.10.2017 09:04 9,8 C 11,1 C 90 % 1019,1 hPa 0,0 l/m 7,7 km/h (2 Bft) W 263 0 min 0,000 mm 0,0 UV-I 118 W/m 8,2 C 8,9 C 11,3 km/h (2 Bft) 100,00 %
10.10.2017 09:10 9,9 C 11,1 C 88 % 1019,1 hPa 0,0 l/m 8,4 km/h (2 Bft) W 264 0 min 0,000 mm 0,0 UV-I 111 W/m 8,0 C 8,5 C 12,9 km/h (3 Bft) 100,00 %
10.10.2017 09:12 9,9 C 11,1 C 88 % 1019,1 hPa 0,0 l/m 11,2 km/h (2 Bft) W-SW 252 0 min 0,000 mm 0,0 UV-I 108 W/m 8,0 C 6,8 C 16,1 km/h (3 Bft) 100,00 %
10.10.2017 09:14 9,9 C 11,1 C 88 % 1019,1 hPa 0,0 l/m 9,7 km/h (2 Bft) W 260 0 min 0,000 mm 0,0 UV-I 107 W/m 8,0 C 7,7 C 16,1 km/h (3 Bft) 97,37 %
10.10.2017 09:16 10,0 C 11,1 C 88 % 1019,0 hPa 0,0 l/m 8,9 km/h (2 Bft) W-SW 246 0 min 0,000 mm 0,0 UV-I 115 W/m 8,1 C 8,3 C 12,9 km/h (3 Bft) 100,00 %
10.10.2017 09:18 10,0 C 11,1 C 88 % 1019,1 hPa 0,0 l/m 9,8 km/h (2 Bft) W 264 0 min 0,000 mm 0,0 UV-I 131 W/m 8,1 C 7,7 C 14,5 km/h (3 Bft) 100,00 %
10.10.2017 09:20 10,1 C 11,1 C 88 % 1019,1 hPa 0,0 l/m 10,7 km/h (2 Bft) W 259 0 min 0,000 mm 0,3 UV-I 144 W/m 8,2 C 7,3 C 14,5 km/h (3 Bft) 100,00 %
10.10.2017 09:22 10,1 C 11,1 C 87 % 1019,1 hPa 0,0 l/m 10,0 km/h (2 Bft) S-SW 209 0 min 0,000 mm 0,5 UV-I 153 W/m 8,0 C 7,7 C 16,1 km/h (3 Bft) 94,74 %
10.10.2017 09:24 10,1 C 11,1 C 87 % 1019,1 hPa 0,0 l/m 10,8 km/h (2 Bft) W-SW 241 0 min 0,000 mm 0,5 UV-I 160 W/m 8,0 C 7,3 C 14,5 km/h (3 Bft) 100,00 %
10.10.2017 09:26 10,2 C 11,1 C 87 % 1019,1 hPa 0,0 l/m 7,6 km/h (2 Bft) W-SW 245 0 min 0,000 mm 0,5 UV-I 168 W/m 8,1 C 9,3 C 12,9 km/h (3 Bft) 100,00 %
10.10.2017 09:28 10,3 C 11,1 C 86 % 1019,1 hPa 0,0 l/m 7,1 km/h (2 Bft) W-SW 250 0 min 0,000 mm 0,5 UV-I 184 W/m 8,1 C 9,8 C 11,3 km/h (2 Bft) 100,00 %
10.10.2017 09:30 10,4 C 11,1 C 86 % 1019,1 hPa 0,0 l/m 4,9 km/h (1 Bft) SW 219 2 min 0,000 mm 0,6 UV-I 193 W/m 8,2 C 10,4 C 8,0 km/h (2 Bft) 100,00 %
10.10.2017 09:32 10,5 C 11,1 C 86 % 1019,1 hPa 0,0 l/m 2,2 km/h (1 Bft) SW 219 2 min 0,000 mm 0,6 UV-I 195 W/m 8,3 C 10,5 C 3,2 km/h (1 Bft) 98,21 %
10.10.2017 09:34 10,6 C 11,1 C 86 % 1019,1 hPa 0,0 l/m 4,1 km/h (1 Bft) SW 234 0 min 0,000 mm 0,6 UV-I 189 W/m 8,4 C 10,6 C 8,0 km/h (2 Bft) 96,43 %
10.10.2017 09:36 10,6 C 11,1 C 85 % 1019,1 hPa 0,0 l/m 3,4 km/h (1 Bft) W 259 0 min 0,000 mm 0,6 UV-I 190 W/m 8,2 C 10,6 C 6,4 km/h (2 Bft) 98,00 %
10.10.2017 09:38 10,6 C 11,1 C 85 % 1019,1 hPa 0,0 l/m 4,4 km/h (1 Bft) W-SW 251 0 min 0,000 mm 0,6 UV-I 192 W/m 8,2 C 10,6 C 8,0 km/h (2 Bft) 97,37 %
10.10.2017 09:40 10,6 C 11,1 C 85 % 1019,1 hPa 0,0 l/m 6,7 km/h (2 Bft) W-SW 241 0 min 0,000 mm 0,6 UV-I 192 W/m 8,2 C 10,4 C 11,3 km/h (2 Bft) 98,21 %
10.10.2017 09:42 10,6 C 11,1 C 85 % 1019,0 hPa 0,0 l/m 9,9 km/h (2 Bft) W-SW 246 0 min 0,000 mm 0,6 UV-I 190 W/m 8,2 C 8,3 C 16,1 km/h (3 Bft) 91,49 %
10.10.2017 09:44 10,7 C 11,1 C 85 % 1019,1 hPa 0,0 l/m 6,3 km/h (2 Bft) W-SW 242 0 min 0,000 mm 0,6 UV-I 192 W/m 8,3 C 10,7 C 11,3 km/h (2 Bft) 97,62 %
10.10.2017 09:46 10,7 C 11,1 C 85 % 1019,1 hPa 0,0 l/m 5,8 km/h (2 Bft) W 265 0 min 0,000 mm 0,7 UV-I 200 W/m 8,3 C 10,7 C 9,7 km/h (2 Bft) 98,08 %
10.10.2017 09:48 10,8 C 11,1 C 86 % 1019,1 hPa 0,0 l/m 8,5 km/h (2 Bft) W-SW 252 0 min 0,000 mm 0,7 UV-I 202 W/m 8,6 C 9,4 C 12,9 km/h (3 Bft) 95,83 %
10.10.2017 09:50 10,9 C 11,1 C 85 % 1019,1 hPa 0,0 l/m 9,1 km/h (2 Bft) W-SW 246 0 min 0,000 mm 0,7 UV-I 204 W/m 8,5 C 9,1 C 17,7 km/h (3 Bft) 97,87 %
10.10.2017 09:52 11,0 C 11,1 C 85 % 1019,1 hPa 0,0 l/m 11,2 km/h (2 Bft) W-SW 256 0 min 0,000 mm 0,7 UV-I 212 W/m 8,6 C 8,1 C 16,1 km/h (3 Bft) 97,37 %
10.10.2017 09:54 11,1 C 11,1 C 85 % 1019,0 hPa 0,0 l/m 8,7 km/h (2 Bft) SW 232 2 min 0,000 mm 0,7 UV-I 227 W/m 8,7 C 9,6 C 14,5 km/h (3 Bft) 95,12 %
10.10.2017 09:56 11,1 C 11,1 C 84 % 1019,1 hPa 0,0 l/m 9,9 km/h (2 Bft) SW 227 2 min 0,000 mm 0,8 UV-I 254 W/m 8,5 C 8,9 C 14,5 km/h (3 Bft) 98,11 %
10.10.2017 09:58 11,3 C 11,1 C 84 % 1019,1 hPa 0,0 l/m 12,3 km/h (3 Bft) SW 232 2 min 0,000 mm 0,8 UV-I 295 W/m 8,7 C 7,9 C 22,5 km/h (4 Bft) 97,56 %
10.10.2017 10:00 11,4 C 11,1 C 83 % 1019,0 hPa 0,0 l/m 12,2 km/h (2 Bft) SW 225 2 min 0,101 mm 0,8 UV-I 305 W/m 8,6 C 8,0 C 17,7 km/h (3 Bft) 98,00 %
10.10.2017 10:02 11,6 C 11,1 C 82 % 1019,1 hPa 0,0 l/m 12,8 km/h (3 Bft) S-SW 199 0 min 0,000 mm 0,8 UV-I 186 W/m 8,6 C 8,0 C 19,3 km/h (3 Bft) 96,43 %
10.10.2017 10:04 11,6 C 11,1 C 82 % 1019,1 hPa 0,0 l/m 10,1 km/h (2 Bft) SW 230 0 min 0,000 mm 0,8 UV-I 188 W/m 8,6 C 9,3 C 17,7 km/h (3 Bft) 97,56 %
10.10.2017 10:06 11,6 C 11,1 C 82 % 1019,0 hPa 0,0 l/m 11,2 km/h (2 Bft) W-SW 241 0 min 0,000 mm 0,8 UV-I 205 W/m 8,6 C 8,7 C 19,3 km/h (3 Bft) 97,73 %
10.10.2017 10:08 11,6 C 11,1 C 81 % 1019,0 hPa 0,0 l/m 12,1 km/h (2 Bft) SW 229 2 min 0,000 mm 0,8 UV-I 232 W/m 8,5 C 8,3 C 16,1 km/h (3 Bft) 98,11 %
10.10.2017 10:10 11,7 C 11,1 C 81 % 1019,0 hPa 0,0 l/m 11,1 km/h (2 Bft) W-SW 253 2 min 0,000 mm 0,9 UV-I 258 W/m 8,5 C 8,9 C 16,1 km/h (3 Bft) 97,73 %
10.10.2017 10:12 11,7 C 11,1 C 82 % 1019,0 hPa 0,0 l/m 11,7 km/h (2 Bft) W-SW 238 2 min 0,000 mm 0,9 UV-I 302 W/m 8,7 C 8,6 C 17,7 km/h (3 Bft) 97,87 %
10.10.2017 10:14 11,8 C 11,1 C 81 % 1018,9 hPa 0,0 l/m 9,4 km/h (2 Bft) SW 219 2 min 0,000 mm 0,9 UV-I 322 W/m 8,6 C 9,9 C 16,1 km/h (3 Bft) 98,11 %
10.10.2017 10:16 11,9 C 11,1 C 81 % 1019,0 hPa 0,0 l/m 12,6 km/h (3 Bft) S-SW 205 2 min 0,000 mm 0,8 UV-I 294 W/m 8,7 C 8,4 C 19,3 km/h (3 Bft) 97,56 %
10.10.2017 10:18 11,9 C 11,1 C 80 % 1019,0 hPa 0,0 l/m 13,7 km/h (3 Bft) SW 235 0 min 0,000 mm 0,7 UV-I 226 W/m 8,6 C 8,0 C 19,3 km/h (3 Bft) 97,44 %
10.10.2017 10:20 12,0 C 11,1 C 80 % 1019,0 hPa 0,0 l/m 10,6 km/h (2 Bft) W-SW 254 0 min 0,000 mm 0,7 UV-I 213 W/m 8,7 C 9,5 C 20,9 km/h (4 Bft) 94,55 %
10.10.2017 10:22 12,0 C 11,1 C 80 % 1019,0 hPa 0,0 l/m 10,8 km/h (2 Bft) W-SW 250 0 min 0,000 mm 0,7 UV-I 207 W/m 8,7 C 9,4 C 16,1 km/h (3 Bft) 97,87 %
10.10.2017 10:24 12,1 C 11,1 C 80 % 1019,0 hPa 0,0 l/m 11,7 km/h (2 Bft) W-SW 254 0 min 0,000 mm 0,8 UV-I 212 W/m 8,8 C 9,1 C 20,9 km/h (4 Bft) 96,00 %
10.10.2017 10:26 12,1 C 11,1 C 80 % 1019,0 hPa 0,0 l/m 14,4 km/h (3 Bft) W-SW 252 0 min 0,000 mm 0,8 UV-I 215 W/m 8,8 C 7,9 C 19,3 km/h (3 Bft) 97,22 %
10.10.2017 10:28 12,1 C 11,1 C 79 % 1019,0 hPa 0,0 l/m 14,7 km/h (3 Bft) W-SW 258 0 min 0,000 mm 0,8 UV-I 213 W/m 8,6 C 7,8 C 22,5 km/h (4 Bft) 97,56 %
10.10.2017 10:30 12,1 C 11,1 C 79 % 1019,0 hPa 0,0 l/m 13,1 km/h (3 Bft) W-SW 245 0 min 0,000 mm 0,8 UV-I 216 W/m 8,6 C 8,4 C 17,7 km/h (3 Bft) 96,92 %
10.10.2017 10:32 12,2 C 11,1 C 79 % 1019,0 hPa 0,0 l/m 13,5 km/h (3 Bft) W-SW 257 0 min 0,000 mm 0,8 UV-I 220 W/m 8,7 C 8,4 C 19,3 km/h (3 Bft) 97,14 %
10.10.2017 10:34 12,2 C 11,1 C 79 % 1019,1 hPa 0,0 l/m 12,0 km/h (2 Bft) W-SW 253 0 min 0,000 mm 0,9 UV-I 229 W/m 8,7 C 9,0 C 20,9 km/h (4 Bft) 98,11 %
10.10.2017 10:36 12,2 C 11,1 C 78 % 1019,1 hPa 0,0 l/m 18,3 km/h (3 Bft) W-SW 251 0 min 0,000 mm 0,9 UV-I 235 W/m 8,5 C 6,7 C 24,1 km/h (4 Bft) 97,87 %
10.10.2017 10:38 12,2 C 11,1 C 78 % 1019,1 hPa 0,0 l/m 15,1 km/h (3 Bft) W 263 0 min 0,000 mm 0,9 UV-I 237 W/m 8,5 C 7,8 C 20,9 km/h (4 Bft) 96,00 %
10.10.2017 10:40 12,2 C 11,1 C 78 % 1019,1 hPa 0,0 l/m 12,4 km/h (3 Bft) W 259 0 min 0,000 mm 1,0 UV-I 241 W/m 8,5 C 8,9 C 17,7 km/h (3 Bft) 95,45 %
10.10.2017 10:42 12,3 C 11,1 C 79 % 1019,1 hPa 0,0 l/m 9,8 km/h (2 Bft) W 261 0 min 0,000 mm 0,9 UV-I 239 W/m 8,8 C 10,2 C 16,1 km/h (3 Bft) 94,34 %
10.10.2017 10:44 12,3 C 11,1 C 78 % 1019,1 hPa 0,0 l/m 11,3 km/h (2 Bft) W 262 0 min 0,000 mm 0,9 UV-I 230 W/m 8,6 C 9,5 C 17,7 km/h (3 Bft) 97,56 %
10.10.2017 10:46 12,3 C 11,1 C 78 % 1019,1 hPa 0,0 l/m 12,0 km/h (2 Bft) SW 234 0 min 0,000 mm 1,0 UV-I 216 W/m 8,6 C 9,2 C 16,1 km/h (3 Bft) 97,87 %
10.10.2017 10:48 12,4 C 11,1 C 78 % 1019,1 hPa 0,0 l/m 9,7 km/h (2 Bft) W 261 0 min 0,000 mm 1,0 UV-I 202 W/m 8,7 C 10,4 C 16,1 km/h (3 Bft) 98,00 %
10.10.2017 10:50 12,4 C 11,1 C 78 % 1019,1 hPa 0,0 l/m 8,7 km/h (2 Bft) W-SW 244 0 min 0,000 mm 1,0 UV-I 192 W/m 8,7 C 11,0 C 16,1 km/h (3 Bft) 97,37 %
10.10.2017 10:52 12,4 C 11,1 C 78 % 1019,1 hPa 0,0 l/m 10,1 km/h (2 Bft) W-SW 251 0 min 0,000 mm 1,1 UV-I 188 W/m 8,7 C 10,2 C 14,5 km/h (3 Bft) 96,00 %
10.10.2017 10:54 12,4 C 11,1 C 79 % 1019,1 hPa 0,0 l/m 8,0 km/h (2 Bft) W-SW 249 0 min 0,000 mm 1,1 UV-I 192 W/m 8,9 C 11,4 C 16,1 km/h (3 Bft) 97,56 %
10.10.2017 10:56 12,4 C 11,1 C 77 % 1019,2 hPa 0,0 l/m 11,6 km/h (2 Bft) W 277 0 min 0,000 mm 1,1 UV-I 197 W/m 8,5 C 9,5 C 19,3 km/h (3 Bft) 93,33 %
10.10.2017 10:58 12,4 C 11,1 C 77 % 1019,1 hPa 0,0 l/m 9,5 km/h (2 Bft) W-SW 241 0 min 0,000 mm 1,2 UV-I 197 W/m 8,5 C 10,5 C 14,5 km/h (3 Bft) 97,73 %
10.10.2017 11:00 12,4 C 11,1 C 77 % 1019,2 hPa 0,0 l/m 10,0 km/h (2 Bft) W-SW 258 0 min 0,127 mm 1,2 UV-I 204 W/m 8,5 C 10,2 C 19,3 km/h (3 Bft) 98,44 %
10.10.2017 11:02 12,4 C 11,1 C 78 % 1019,2 hPa 0,0 l/m 10,3 km/h (2 Bft) W 266 0 min 0,000 mm 1,3 UV-I 218 W/m 8,7 C 10,1 C 16,1 km/h (3 Bft) 97,62 %
10.10.2017 11:04 12,4 C 11,1 C 77 % 1019,1 hPa 0,0 l/m 10,2 km/h (2 Bft) W 273 0 min 0,000 mm 1,3 UV-I 210 W/m 8,5 C 10,1 C 14,5 km/h (3 Bft) 97,87 %
10.10.2017 11:06 12,4 C 11,1 C 78 % 1019,1 hPa 0,0 l/m 7,4 km/h (2 Bft) W-SW 250 0 min 0,000 mm 1,3 UV-I 209 W/m 8,7 C 11,7 C 12,9 km/h (3 Bft) 96,88 %
10.10.2017 11:08 12,5 C 11,1 C 78 % 1019,1 hPa 0,0 l/m 6,6 km/h (2 Bft) SW 223 0 min 0,000 mm 1,3 UV-I 217 W/m 8,8 C 12,4 C 9,7 km/h (2 Bft) 93,22 %
10.10.2017 11:10 12,6 C 11,1 C 78 % 1019,1 hPa 0,0 l/m 8,1 km/h (2 Bft) W 261 2 min 0,000 mm 1,5 UV-I 286 W/m 8,9 C 11,5 C 12,9 km/h (3 Bft) 98,11 %
10.10.2017 11:12 12,6 C 11,1 C 78 % 1019,0 hPa 0,0 l/m 9,4 km/h (2 Bft) W-SW 238 2 min 0,000 mm 1,8 UV-I 330 W/m 8,9 C 10,8 C 12,9 km/h (3 Bft) 97,56 %
10.10.2017 11:14 12,9 C 11,1 C 78 % 1019,0 hPa 0,0 l/m 6,1 km/h (2 Bft) W-SW 246 2 min 0,000 mm 2,1 UV-I 501 W/m 9,2 C 12,9 C 14,5 km/h (3 Bft) 95,45 %
10.10.2017 11:16 13,3 C 11,1 C 78 % 1019,1 hPa 0,0 l/m 8,5 km/h (2 Bft) W-SW 256 2 min 0,000 mm 2,2 UV-I 714 W/m 9,5 C 12,0 C 12,9 km/h (3 Bft) 94,64 %
10.10.2017 11:18 13,6 C 11,1 C 75 % 1019,1 hPa 0,0 l/m 17,0 km/h (3 Bft) W-NW 283 2 min 0,000 mm 2,1 UV-I 701 W/m 9,3 C 8,8 C 20,9 km/h (4 Bft) 97,87 %
10.10.2017 11:20 13,7 C 11,1 C 75 % 1019,0 hPa 0,0 l/m 12,7 km/h (3 Bft) W 264 2 min 0,000 mm 1,7 UV-I 531 W/m 9,3 C 10,5 C 19,3 km/h (3 Bft) 97,37 %
10.10.2017 11:22 13,6 C 11,1 C 74 % 1019,1 hPa 0,0 l/m 15,7 km/h (3 Bft) W 264 2 min 0,000 mm 2,0 UV-I 329 W/m 9,1 C 9,3 C 22,5 km/h (4 Bft) 98,00 %
10.10.2017 11:24 13,7 C 11,1 C 74 % 1019,0 hPa 0,0 l/m 19,1 km/h (3 Bft) S-SW 202 2 min 0,000 mm 2,1 UV-I 613 W/m 9,2 C 8,3 C 25,7 km/h (4 Bft) 96,00 %
10.10.2017 11:26 13,8 C 11,1 C 74 % 1019,0 hPa 0,0 l/m 15,9 km/h (3 Bft) W-SW 252 2 min 0,000 mm 2,2 UV-I 616 W/m 9,2 C 9,4 C 24,1 km/h (4 Bft) 95,12 %
10.10.2017 11:28 13,8 C 11,1 C 73 % 1019,0 hPa 0,0 l/m 16,5 km/h (3 Bft) W-SW 256 2 min 0,000 mm 2,2 UV-I 592 W/m 9,0 C 9,2 C 25,7 km/h (4 Bft) 96,43 %
10.10.2017 11:30 13,8 C 11,1 C 73 % 1019,1 hPa 0,0 l/m 19,2 km/h (3 Bft) W-NW 303 2 min 0,000 mm 2,1 UV-I 523 W/m 9,0 C 8,4 C 30,6 km/h (5 Bft) 94,74 %
10.10.2017 11:33 13,7 C 11,1 C 73 % 1019,1 hPa 0,0 l/m 19,9 km/h (4 Bft) W-SW 247 0 min 0,000 mm 1,8 UV-I 205 W/m 8,9 C 8,1 C 29,0 km/h (5 Bft) 97,40 %
10.10.2017 11:34 13,7 C 11,1 C 73 % 1019,1 hPa 0,0 l/m 17,7 km/h (3 Bft) SW 231 0 min 0,000 mm 1,8 UV-I 204 W/m 8,9 C 8,7 C 22,5 km/h (4 Bft) 96,15 %
10.10.2017 11:36 13,7 C 11,1 C 74 % 1019,1 hPa 0,0 l/m 19,2 km/h (3 Bft) W 279 2 min 0,000 mm 2,3 UV-I 522 W/m 9,2 C 8,3 C 27,4 km/h (4 Bft) 97,87 %
10.10.2017 11:38 13,9 C 11,1 C 74 % 1019,2 hPa 0,0 l/m 16,8 km/h (3 Bft) SW 232 2 min 0,000 mm 2,3 UV-I 675 W/m 9,3 C 9,3 C 22,5 km/h (4 Bft) 97,22 %
10.10.2017 11:40 14,0 C 11,1 C 73 % 1019,2 hPa 0,0 l/m 17,7 km/h (3 Bft) SW 226 2 min 0,000 mm 2,2 UV-I 594 W/m 9,2 C 9,1 C 24,1 km/h (4 Bft) 98,28 %
10.10.2017 11:42 14,1 C 11,1 C 73 % 1019,2 hPa 0,0 l/m 19,1 km/h (3 Bft) W-SW 240 2 min 0,000 mm 2,2 UV-I 550 W/m 9,3 C 8,8 C 33,8 km/h (5 Bft) 97,56 %
10.10.2017 11:44 14,2 C 11,1 C 73 % 1019,2 hPa 0,0 l/m 17,5 km/h (3 Bft) S-SW 198 2 min 0,000 mm 2,3 UV-I 653 W/m 9,4 C 9,4 C 25,7 km/h (4 Bft) 95,24 %
10.10.2017 11:46 14,2 C 11,1 C 73 % 1019,3 hPa 0,0 l/m 17,9 km/h (3 Bft) SW 221 2 min 0,000 mm 1,8 UV-I 561 W/m 9,4 C 9,3 C 30,6 km/h (5 Bft) 98,21 %
10.10.2017 11:48 14,1 C 11,1 C 72 % 1019,2 hPa 0,0 l/m 19,4 km/h (3 Bft) W-SW 240 0 min 0,000 mm 1,7 UV-I 278 W/m 9,1 C 8,7 C 30,6 km/h (5 Bft) 94,74 %
10.10.2017 11:50 13,9 C 11,1 C 72 % 1019,2 hPa 0,0 l/m 18,5 km/h (3 Bft) W-SW 258 2 min 0,000 mm 2,1 UV-I 370 W/m 8,9 C 8,7 C 30,6 km/h (5 Bft) 95,74 %
10.10.2017 11:52 13,9 C 11,1 C 73 % 1019,1 hPa 0,0 l/m 17,1 km/h (3 Bft) W-SW 240 2 min 0,000 mm 2,0 UV-I 350 W/m 9,1 C 9,2 C 25,7 km/h (4 Bft) 98,11 %
10.10.2017 11:54 13,9 C 11,1 C 74 % 1019,2 hPa 0,0 l/m 16,0 km/h (3 Bft) W 270 0 min 0,000 mm 2,0 UV-I 296 W/m 9,3 C 9,5 C 22,5 km/h (4 Bft) 100,00 %
10.10.2017 11:56 14,0 C 11,1 C 74 % 1019,1 hPa 0,0 l/m 13,6 km/h (3 Bft) W-SW 252 2 min 0,000 mm 2,3 UV-I 582 W/m 9,4 C 10,5 C 19,3 km/h (3 Bft) 100,00 %
10.10.2017 11:58 14,1 C 11,1 C 72 % 1019,2 hPa 0,0 l/m 19,2 km/h (3 Bft) W-SW 252 2 min 0,000 mm 2,3 UV-I 571 W/m 9,1 C 8,8 C 29,0 km/h (5 Bft) 97,73 %
10.10.2017 12:00 14,1 C 11,1 C 72 % 1019,1 hPa 0,0 l/m 17,4 km/h (3 Bft) W-SW 237 2 min 0,280 mm 2,4 UV-I 578 W/m 9,1 C 9,3 C 25,7 km/h (4 Bft) 100,00 %
10.10.2017 12:02 14,2 C 11,1 C 72 % 1019,1 hPa 0,0 l/m 16,1 km/h (3 Bft) SW 223 2 min 0,000 mm 2,4 UV-I 577 W/m 9,2 C 9,9 C 25,7 km/h (4 Bft) 100,00 %
10.10.2017 12:04 14,2 C 11,1 C 70 % 1019,0 hPa 0,0 l/m 19,1 km/h (3 Bft) W-SW 254 2 min 0,000 mm 2,2 UV-I 561 W/m 8,8 C 9,0 C 27,4 km/h (4 Bft) 97,14 %
10.10.2017 12:06 14,3 C 11,1 C 71 % 1019,0 hPa 0,0 l/m 14,8 km/h (3 Bft) W-SW 255 2 min 0,000 mm 2,4 UV-I 588 W/m 9,1 C 10,4 C 25,7 km/h (4 Bft) 100,00 %
10.10.2017 12:08 14,4 C 11,1 C 72 % 1018,9 hPa 0,0 l/m 14,4 km/h (3 Bft) W-SW 247 2 min 0,000 mm 2,4 UV-I 583 W/m 9,4 C 10,7 C 24,1 km/h (4 Bft) 100,00 %
10.10.2017 12:10 14,4 C 11,1 C 70 % 1018,9 hPa 0,0 l/m 18,6 km/h (3 Bft) W 266 2 min 0,000 mm 2,4 UV-I 572 W/m 9,0 C 9,4 C 27,4 km/h (4 Bft) 97,37 %
10.10.2017 12:12 14,4 C 11,1 C 70 % 1018,9 hPa 0,0 l/m 10,1 km/h (2 Bft) W-SW 257 2 min 0,000 mm 2,4 UV-I 572 W/m 9,0 C 12,4 C 17,7 km/h (3 Bft) 100,00 %
10.10.2017 12:14 14,5 C 11,1 C 70 % 1018,9 hPa 0,0 l/m 11,7 km/h (2 Bft) S-SW 198 2 min 0,000 mm 2,5 UV-I 588 W/m 9,1 C 11,8 C 19,3 km/h (3 Bft) 100,00 %
10.10.2017 12:16 14,6 C 11,1 C 71 % 1018,9 hPa 0,0 l/m 14,2 km/h (3 Bft) S-SW 198 2 min 0,000 mm 2,5 UV-I 590 W/m 9,4 C 11,0 C 22,5 km/h (4 Bft) 100,00 %
10.10.2017 12:18 14,6 C 11,1 C 69 % 1018,9 hPa 0,0 l/m 18,5 km/h (3 Bft) W-SW 252 2 min 0,000 mm 2,5 UV-I 584 W/m 9,0 C 9,6 C 30,6 km/h (5 Bft) 100,00 %
10.10.2017 12:20 14,6 C 11,1 C 69 % 1018,9 hPa 0,0 l/m 14,3 km/h (3 Bft) S-SW 206 2 min 0,000 mm 2,5 UV-I 590 W/m 9,0 C 10,9 C 24,1 km/h (4 Bft) 100,00 %
10.10.2017 12:22 14,7 C 11,1 C 70 % 1018,9 hPa 0,0 l/m 14,3 km/h (3 Bft) SW 234 2 min 0,000 mm 2,4 UV-I 593 W/m 9,3 C 11,1 C 25,7 km/h (4 Bft) 100,00 %
10.10.2017 12:24 14,8 C 11,1 C 70 % 1018,9 hPa 0,0 l/m 17,9 km/h (3 Bft) W-SW 246 2 min 0,000 mm 2,5 UV-I 604 W/m 9,4 C 10,1 C 30,6 km/h (5 Bft) 98,11 %
10.10.2017 12:26 14,8 C 11,1 C 68 % 1019,0 hPa 0,0 l/m 17,4 km/h (3 Bft) W-SW 248 2 min 0,000 mm 2,5 UV-I 638 W/m 9,0 C 10,2 C 24,1 km/h (4 Bft) 100,00 %
10.10.2017 12:28 14,9 C 11,1 C 68 % 1018,8 hPa 0,0 l/m 12,7 km/h (3 Bft) SW 215 2 min 0,000 mm 2,5 UV-I 696 W/m 9,0 C 11,9 C 20,9 km/h (4 Bft) 100,00 %
10.10.2017 12:30 15,1 C 11,1 C 68 % 1018,9 hPa 0,0 l/m 14,5 km/h (3 Bft) SW 215 2 min 0,000 mm 2,5 UV-I 718 W/m 9,2 C 11,5 C 24,1 km/h (4 Bft) 100,00 %
10.10.2017 12:32 15,1 C 11,1 C 67 % 1018,9 hPa 0,0 l/m 16,4 km/h (3 Bft) W-SW 258 2 min 0,000 mm 2,3 UV-I 708 W/m 9,0 C 10,9 C 22,5 km/h (4 Bft) 100,00 %
10.10.2017 12:34 15,3 C 11,1 C 69 % 1018,9 hPa 0,0 l/m 10,5 km/h (2 Bft) W 262 2 min 0,000 mm 1,9 UV-I 717 W/m 9,6 C 13,2 C 20,9 km/h (4 Bft) 96,55 %
10.10.2017 12:36 15,4 C 11,1 C 67 % 1018,9 hPa 0,0 l/m 15,0 km/h (3 Bft) SW 221 2 min 0,000 mm 1,7 UV-I 719 W/m 9,3 C 11,7 C 24,1 km/h (4 Bft) 100,00 %
10.10.2017 12:38 15,4 C 11,1 C 66 % 1018,8 hPa 0,0 l/m 16,5 km/h (3 Bft) W-SW 238 2 min 0,000 mm 2,0 UV-I 730 W/m 9,1 C 11,2 C 25,7 km/h (4 Bft) 100,00 %
10.10.2017 12:40 15,4 C 11,1 C 66 % 1018,8 hPa 0,0 l/m 16,3 km/h (3 Bft) W 262 2 min 0,000 mm 2,1 UV-I 769 W/m 9,1 C 11,3 C 27,4 km/h (4 Bft) 100,00 %
10.10.2017 12:42 15,3 C 11,1 C 66 % 1018,9 hPa 0,0 l/m 15,0 km/h (3 Bft) W-SW 241 2 min 0,000 mm 1,4 UV-I 528 W/m 9,0 C 11,6 C 22,5 km/h (4 Bft) 97,56 %
10.10.2017 12:44 15,2 C 11,1 C 67 % 1018,9 hPa 0,0 l/m 16,6 km/h (3 Bft) W-SW 257 0 min 0,000 mm 1,4 UV-I 257 W/m 9,1 C 10,9 C 24,1 km/h (4 Bft) 100,00 %
10.10.2017 12:46 15,1 C 11,1 C 67 % 1018,9 hPa 0,0 l/m 15,4 km/h (3 Bft) W 259 0 min 0,000 mm 1,4 UV-I 270 W/m 9,0 C 11,2 C 25,7 km/h (4 Bft) 97,87 %
10.10.2017 12:48 14,9 C 11,1 C 66 % 1018,9 hPa 0,0 l/m 18,6 km/h (3 Bft) W-SW 253 0 min 0,000 mm 1,3 UV-I 258 W/m 8,6 C 10,0 C 25,7 km/h (4 Bft) 100,00 %
10.10.2017 12:50 14,8 C 11,1 C 67 % 1018,8 hPa 0,0 l/m 12,3 km/h (3 Bft) W-SW 240 0 min 0,000 mm 1,4 UV-I 290 W/m 8,7 C 11,9 C 20,9 km/h (4 Bft) 100,00 %
10.10.2017 12:52 14,8 C 11,1 C 67 % 1018,8 hPa 0,0 l/m 15,8 km/h (3 Bft) W-SW 242 2 min 0,000 mm 2,2 UV-I 468 W/m 8,7 C 10,7 C 22,5 km/h (4 Bft) 100,00 %
10.10.2017 12:54 15,0 C 11,1 C 69 % 1018,8 hPa 0,0 l/m 14,8 km/h (3 Bft) SW 232 2 min 0,000 mm 2,2 UV-I 768 W/m 9,4 C 11,3 C 20,9 km/h (4 Bft) 100,00 %
10.10.2017 12:56 15,1 C 11,1 C 67 % 1018,7 hPa 0,0 l/m 11,6 km/h (2 Bft) W-SW 257 2 min 0,000 mm 2,0 UV-I 768 W/m 9,0 C 12,5 C 19,3 km/h (3 Bft) 100,00 %
10.10.2017 12:58 15,4 C 11,1 C 67 % 1018,7 hPa 0,0 l/m 16,2 km/h (3 Bft) W-SW 246 2 min 0,000 mm 2,1 UV-I 726 W/m 9,3 C 11,3 C 24,1 km/h (4 Bft) 100,00 %
10.10.2017 13:00 15,5 C 11,1 C 66 % 1018,8 hPa 0,0 l/m 17,4 km/h (3 Bft) W 275 2 min 0,330 mm 1,9 UV-I 569 W/m 9,2 C 11,1 C 29,0 km/h (5 Bft) 100,00 %
10.10.2017 13:02 15,6 C 11,1 C 67 % 1018,8 hPa 0,0 l/m 15,4 km/h (3 Bft) W-SW 247 2 min 0,000 mm 2,1 UV-I 561 W/m 9,5 C 11,8 C 24,1 km/h (4 Bft) 97,44 %
10.10.2017 13:04 15,5 C 11,1 C 64 % 1018,8 hPa 0,2 l/m 16,0 km/h (3 Bft) SW 227 2 min 0,000 mm 2,2 UV-I 585 W/m 8,7 C 11,5 C 24,1 km/h (4 Bft) 98,11 %
10.10.2017 13:06 15,3 C 11,1 C 64 % 1018,7 hPa 0,0 l/m 17,9 km/h (3 Bft) SW 230 2 min 0,000 mm 1,6 UV-I 410 W/m 8,5 C 10,7 C 27,4 km/h (4 Bft) 97,73 %
10.10.2017 13:08 15,2 C 11,1 C 64 % 1018,7 hPa 0,0 l/m 17,1 km/h (3 Bft) W 261 0 min 0,000 mm 1,6 UV-I 221 W/m 8,4 C 10,8 C 25,7 km/h (4 Bft) 97,37 %
10.10.2017 13:10 15,1 C 11,1 C 65 % 1018,7 hPa 0,0 l/m 11,6 km/h (2 Bft) W 263 0 min 0,000 mm 1,7 UV-I 272 W/m 8,6 C 12,5 C 16,1 km/h (3 Bft) 94,64 %
10.10.2017 13:12 15,1 C 11,1 C 65 % 1018,7 hPa 0,0 l/m 16,6 km/h (3 Bft) W-SW 246 0 min 0,000 mm 1,7 UV-I 308 W/m 8,6 C 10,8 C 22,5 km/h (4 Bft) 95,65 %
10.10.2017 13:14 15,2 C 11,1 C 64 % 1018,6 hPa 0,0 l/m 16,7 km/h (3 Bft) W-SW 247 2 min 0,000 mm 2,3 UV-I 457 W/m 8,4 C 10,9 C 29,0 km/h (5 Bft) 98,46 %
10.10.2017 13:16 15,3 C 11,1 C 63 % 1018,6 hPa 0,0 l/m 18,4 km/h (3 Bft) SW 219 2 min 0,000 mm 2,3 UV-I 592 W/m 8,3 C 10,6 C 29,0 km/h (5 Bft) 98,11 %
10.10.2017 13:18 15,4 C 11,1 C 63 % 1018,7 hPa 0,0 l/m 14,0 km/h (3 Bft) W 259 2 min 0,000 mm 2,1 UV-I 461 W/m 8,4 C 12,0 C 20,9 km/h (4 Bft) 97,56 %
10.10.2017 13:20 15,6 C 11,1 C 64 % 1018,6 hPa 0,0 l/m 16,0 km/h (3 Bft) W 273 2 min 0,000 mm 2,2 UV-I 528 W/m 8,8 C 11,6 C 22,5 km/h (4 Bft) 96,23 %
10.10.2017 13:22 15,6 C 11,1 C 63 % 1018,6 hPa 0,0 l/m 14,2 km/h (3 Bft) SW 217 2 min 0,000 mm 1,8 UV-I 492 W/m 8,6 C 12,2 C 20,9 km/h (4 Bft) 97,73 %
10.10.2017 13:24 15,5 C 11,1 C 62 % 1018,6 hPa 0,0 l/m 21,5 km/h (4 Bft) S-SW 207 2 min 0,000 mm 1,7 UV-I 354 W/m 8,3 C 10,0 C 32,2 km/h (5 Bft) 98,00 %
10.10.2017 13:26 15,3 C 11,1 C 62 % 1018,6 hPa 0,0 l/m 17,2 km/h (3 Bft) W-SW 239 2 min 0,000 mm 1,8 UV-I 317 W/m 8,1 C 10,9 C 25,7 km/h (4 Bft) 98,00 %
10.10.2017 13:28 15,2 C 11,1 C 62 % 1018,6 hPa 0,0 l/m 18,9 km/h (3 Bft) W 269 0 min 0,000 mm 1,8 UV-I 307 W/m 8,0 C 10,3 C 27,4 km/h (4 Bft) 95,74 %
10.10.2017 13:30 15,2 C 11,1 C 63 % 1018,6 hPa 0,0 l/m 18,0 km/h (3 Bft) SW 231 2 min 0,000 mm 2,1 UV-I 357 W/m 8,2 C 10,5 C 27,4 km/h (4 Bft) 96,88 %
10.10.2017 13:32 15,3 C 11,1 C 63 % 1018,6 hPa 0,0 l/m 17,3 km/h (3 Bft) W-SW 256 2 min 0,000 mm 2,2 UV-I 564 W/m 8,3 C 10,9 C 24,1 km/h (4 Bft) 100,00 %
10.10.2017 13:34 15,3 C 11,1 C 62 % 1018,6 hPa 0,0 l/m 18,5 km/h (3 Bft) SW 236 2 min 0,000 mm 2,2 UV-I 564 W/m 8,1 C 10,5 C 29,0 km/h (5 Bft) 98,08 %
10.10.2017 13:36 15,4 C 11,1 C 63 % 1018,7 hPa 0,0 l/m 19,6 km/h (3 Bft) W 269 2 min 0,000 mm 2,2 UV-I 527 W/m 8,4 C 10,4 C 29,0 km/h (5 Bft) 100,00 %
10.10.2017 13:38 15,4 C 11,1 C 63 % 1018,6 hPa 0,0 l/m 19,0 km/h (3 Bft) W-SW 254 2 min 0,000 mm 2,1 UV-I 481 W/m 8,4 C 10,5 C 29,0 km/h (5 Bft) 96,36 %
10.10.2017 13:40 15,4 C 11,1 C 64 % 1018,6 hPa 0,0 l/m 20,0 km/h (4 Bft) SW 232 2 min 0,000 mm 2,0 UV-I 468 W/m 8,6 C 10,3 C 27,4 km/h (4 Bft) 100,00 %
10.10.2017 13:42 15,3 C 11,1 C 64 % 1018,6 hPa 0,0 l/m 15,9 km/h (3 Bft) S-SW 205 2 min 0,000 mm 2,0 UV-I 462 W/m 8,5 C 11,3 C 20,9 km/h (4 Bft) 100,00 %
10.10.2017 13:44 15,4 C 11,1 C 64 % 1018,6 hPa 0,0 l/m 13,5 km/h (3 Bft) W-SW 248 2 min 0,000 mm 1,9 UV-I 508 W/m 8,6 C 12,2 C 19,3 km/h (3 Bft) 96,00 %
10.10.2017 13:46 15,4 C 11,1 C 64 % 1018,5 hPa 0,0 l/m 16,5 km/h (3 Bft) W-SW 248 2 min 0,000 mm 1,8 UV-I 535 W/m 8,6 C 11,2 C 24,1 km/h (4 Bft) 100,00 %
10.10.2017 13:48 15,4 C 11,1 C 64 % 1018,5 hPa 0,0 l/m 15,4 km/h (3 Bft) W-SW 237 2 min 0,000 mm 1,8 UV-I 526 W/m 8,6 C 11,5 C 20,9 km/h (4 Bft) 100,00 %
10.10.2017 13:50 15,6 C 11,1 C 64 % 1018,5 hPa 0,0 l/m 14,6 km/h (3 Bft) W-SW 248 2 min 0,000 mm 1,8 UV-I 521 W/m 8,8 C 12,0 C 22,5 km/h (4 Bft) 100,00 %
10.10.2017 13:52 15,6 C 11,1 C 64 % 1018,4 hPa 0,0 l/m 18,9 km/h (3 Bft) SW 236 2 min 0,000 mm 1,8 UV-I 477 W/m 8,8 C 10,8 C 27,4 km/h (4 Bft) 100,00 %
10.10.2017 13:54 15,7 C 11,1 C 65 % 1018,3 hPa 0,0 l/m 14,4 km/h (3 Bft) S 178 2 min 0,000 mm 1,8 UV-I 401 W/m 9,1 C 12,2 C 20,9 km/h (4 Bft) 100,00 %
10.10.2017 13:56 15,7 C 11,1 C 63 % 1018,3 hPa 0,0 l/m 16,5 km/h (3 Bft) W-SW 252 2 min 0,000 mm 1,9 UV-I 460 W/m 8,7 C 11,6 C 29,0 km/h (5 Bft) 97,56 %
10.10.2017 13:58 15,8 C 11,1 C 62 % 1018,4 hPa 0,0 l/m 17,6 km/h (3 Bft) W 268 2 min 0,000 mm 2,0 UV-I 478 W/m 8,5 C 11,4 C 29,0 km/h (5 Bft) 95,45 %
10.10.2017 14:00 15,8 C 11,1 C 60 % 1018,3 hPa 0,0 l/m 20,0 km/h (4 Bft) SW 235 2 min 0,000 mm 2,0 UV-I 522 W/m 8,1 C 10,8 C 32,2 km/h (5 Bft) 100,00 %
10.10.2017 14:02 15,7 C 11,1 C 61 % 1018,5 hPa 0,0 l/m 18,6 km/h (3 Bft) W-SW 246 2 min 0,305 mm 2,0 UV-I 553 W/m 8,2 C 11,0 C 27,4 km/h (4 Bft) 100,00 %
10.10.2017 14:04 15,7 C 11,1 C 61 % 1018,4 hPa 0,0 l/m 15,8 km/h (3 Bft) W 277 2 min 0,000 mm 1,9 UV-I 548 W/m 8,2 C 11,8 C 25,7 km/h (4 Bft) 100,00 %
10.10.2017 14:06 15,8 C 11,1 C 61 % 1018,4 hPa 0,0 l/m 10,8 km/h (2 Bft) W-SW 240 2 min 0,000 mm 1,8 UV-I 457 W/m 8,3 C 13,7 C 16,1 km/h (3 Bft) 97,73 %
10.10.2017 14:08 15,8 C 11,1 C 62 % 1018,4 hPa 0,0 l/m 12,3 km/h (3 Bft) W-SW 239 2 min 0,000 mm 1,7 UV-I 434 W/m 8,5 C 13,1 C 19,3 km/h (3 Bft) 100,00 %
10.10.2017 14:10 15,8 C 11,1 C 61 % 1018,4 hPa 0,0 l/m 15,8 km/h (3 Bft) W-SW 255 2 min 0,000 mm 1,7 UV-I 493 W/m 8,3 C 11,9 C 27,4 km/h (4 Bft) 100,00 %
10.10.2017 14:12 15,8 C 11,1 C 61 % 1018,4 hPa 0,0 l/m 17,6 km/h (3 Bft) W-SW 242 2 min 0,000 mm 1,7 UV-I 553 W/m 8,3 C 11,4 C 25,7 km/h (4 Bft) 97,37 %
10.10.2017 14:14 15,8 C 11,1 C 61 % 1018,4 hPa 0,0 l/m 14,4 km/h (3 Bft) W 263 2 min 0,000 mm 1,7 UV-I 555 W/m 8,3 C 12,4 C 22,5 km/h (4 Bft) 100,00 %
10.10.2017 14:16 15,9 C 11,1 C 62 % 1018,3 hPa 0,0 l/m 10,5 km/h (2 Bft) W 263 2 min 0,000 mm 1,6 UV-I 483 W/m 8,6 C 13,9 C 20,9 km/h (4 Bft) 100,00 %
10.10.2017 14:18 15,9 C 11,1 C 62 % 1018,3 hPa 0,0 l/m 13,1 km/h (3 Bft) S-SW 209 2 min 0,000 mm 1,5 UV-I 477 W/m 8,6 C 12,9 C 19,3 km/h (3 Bft) 100,00 %
10.10.2017 14:20 15,9 C 11,1 C 62 % 1018,3 hPa 0,0 l/m 15,5 km/h (3 Bft) W-SW 243 2 min 0,000 mm 1,3 UV-I 326 W/m 8,6 C 12,1 C 22,5 km/h (4 Bft) 98,11 %
10.10.2017 14:22 15,8 C 11,1 C 62 % 1018,3 hPa 0,0 l/m 12,7 km/h (3 Bft) S-SW 196 0 min 0,000 mm 1,0 UV-I 245 W/m 8,5 C 12,9 C 22,5 km/h (4 Bft) 100,00 %
10.10.2017 14:24 15,7 C 11,1 C 62 % 1018,3 hPa 0,0 l/m 14,0 km/h (3 Bft) W-SW 242 0 min 0,000 mm 1,0 UV-I 238 W/m 8,4 C 12,4 C 19,3 km/h (3 Bft) 100,00 %
10.10.2017 14:26 15,6 C 11,1 C 61 % 1018,3 hPa 0,0 l/m 18,9 km/h (3 Bft) W-SW 247 0 min 0,000 mm 1,2 UV-I 255 W/m 8,1 C 10,8 C 25,7 km/h (4 Bft) 100,00 %
10.10.2017 14:28 15,5 C 11,1 C 63 % 1018,2 hPa 0,0 l/m 11,2 km/h (2 Bft) W-SW 254 2 min 0,000 mm 1,2 UV-I 304 W/m 8,5 C 13,2 C 16,1 km/h (3 Bft) 100,00 %
10.10.2017 14:30 15,4 C 11,1 C 63 % 1018,2 hPa 0,0 l/m 14,1 km/h (3 Bft) SW 224 0 min 0,000 mm 1,1 UV-I 268 W/m 8,4 C 12,0 C 22,5 km/h (4 Bft) 100,00 %
10.10.2017 14:32 15,4 C 11,1 C 62 % 1018,2 hPa 0,0 l/m 15,4 km/h (3 Bft) SW 226 0 min 0,000 mm 1,0 UV-I 264 W/m 8,2 C 11,5 C 20,9 km/h (4 Bft) 100,00 %
10.10.2017 14:34 15,3 C 11,1 C 63 % 1018,3 hPa 0,0 l/m 10,8 km/h (2 Bft) SW 231 0 min 0,000 mm 1,1 UV-I 270 W/m 8,3 C 13,1 C 19,3 km/h (3 Bft) 96,23 %
10.10.2017 14:36 15,4 C 11,1 C 63 % 1018,2 hPa 0,0 l/m 12,5 km/h (3 Bft) W-SW 246 2 min 0,000 mm 1,2 UV-I 301 W/m 8,4 C 12,5 C 17,7 km/h (3 Bft) 100,00 %
10.10.2017 14:38 15,4 C 11,1 C 63 % 1018,3 hPa 0,0 l/m 12,2 km/h (2 Bft) SW 231 0 min 0,000 mm 1,1 UV-I 278 W/m 8,4 C 12,7 C 20,9 km/h (4 Bft) 100,00 %
10.10.2017 14:40 15,4 C 11,1 C 61 % 1018,3 hPa 0,0 l/m 13,8 km/h (3 Bft) W-SW 239 0 min 0,000 mm 1,1 UV-I 243 W/m 7,9 C 12,1 C 20,9 km/h (4 Bft) 95,74 %
10.10.2017 14:42 15,4 C 11,1 C 61 % 1018,2 hPa 0,0 l/m 16,5 km/h (3 Bft) W 259 0 min 0,000 mm 1,1 UV-I 224 W/m 7,9 C 11,2 C 29,0 km/h (5 Bft) 100,00 %
10.10.2017 14:44 15,3 C 11,1 C 60 % 1018,2 hPa 0,0 l/m 16,5 km/h (3 Bft) SW 214 0 min 0,000 mm 1,0 UV-I 229 W/m 7,6 C 11,1 C 22,5 km/h (4 Bft) 100,00 %
10.10.2017 14:46 15,3 C 11,1 C 61 % 1018,2 hPa 0,0 l/m 15,8 km/h (3 Bft) W-SW 253 0 min 0,000 mm 1,0 UV-I 259 W/m 7,8 C 11,3 C 22,5 km/h (4 Bft) 96,43 %
10.10.2017 14:48 15,3 C 11,1 C 60 % 1018,2 hPa 0,0 l/m 11,9 km/h (2 Bft) SW 232 2 min 0,000 mm 1,1 UV-I 301 W/m 7,6 C 12,7 C 20,9 km/h (4 Bft) 97,56 %
10.10.2017 14:50 15,3 C 11,1 C 61 % 1018,2 hPa 0,0 l/m 17,1 km/h (3 Bft) W-SW 247 2 min 0,000 mm 1,0 UV-I 278 W/m 7,8 C 10,9 C 22,5 km/h (4 Bft) 98,11 %
10.10.2017 14:52 15,3 C 11,1 C 61 % 1018,2 hPa 0,0 l/m 17,5 km/h (3 Bft) W 273 0 min 0,000 mm 1,0 UV-I 240 W/m 7,8 C 10,8 C 24,1 km/h (4 Bft) 97,73 %
10.10.2017 14:54 15,3 C 11,1 C 61 % 1018,2 hPa 0,0 l/m 15,8 km/h (3 Bft) W 267 0 min 0,000 mm 1,0 UV-I 230 W/m 7,8 C 11,3 C 22,5 km/h (4 Bft) 97,87 %
10.10.2017 14:56 15,3 C 11,1 C 62 % 1018,2 hPa 0,0 l/m 15,6 km/h (3 Bft) W 271 0 min 0,000 mm 1,0 UV-I 214 W/m 8,1 C 11,4 C 24,1 km/h (4 Bft) 98,11 %
10.10.2017 14:58 15,3 C 11,1 C 62 % 1018,2 hPa 0,0 l/m 12,2 km/h (2 Bft) SW 217 0 min 0,000 mm 0,9 UV-I 196 W/m 8,1 C 12,5 C 16,1 km/h (3 Bft) 95,24 %
10.10.2017 15:00 15,2 C 11,1 C 63 % 1018,3 hPa 0,0 l/m 15,6 km/h (3 Bft) W-SW 246 0 min 0,000 mm 0,9 UV-I 187 W/m 8,2 C 11,2 C 22,5 km/h (4 Bft) 96,15 %
10.10.2017 15:02 15,2 C 11,1 C 62 % 1018,2 hPa 0,0 l/m 11,7 km/h (2 Bft) SW 235 0 min 0,228 mm 0,9 UV-I 195 W/m 8,0 C 12,6 C 19,3 km/h (3 Bft) 97,44 %
10.10.2017 15:04 15,2 C 11,1 C 62 % 1018,2 hPa 0,0 l/m 14,3 km/h (3 Bft) W-SW 258 0 min 0,000 mm 0,9 UV-I 230 W/m 8,0 C 11,7 C 22,5 km/h (4 Bft) 96,43 %
10.10.2017 15:06 15,2 C 11,1 C 62 % 1018,2 hPa 0,0 l/m 14,1 km/h (3 Bft) W-SW 244 0 min 0,000 mm 0,9 UV-I 247 W/m 8,0 C 11,7 C 20,9 km/h (4 Bft) 97,37 %
10.10.2017 15:08 15,2 C 11,1 C 62 % 1018,2 hPa 0,0 l/m 10,4 km/h (2 Bft) W 260 0 min 0,000 mm 0,8 UV-I 188 W/m 8,0 C 13,2 C 16,1 km/h (3 Bft) 98,11 %
10.10.2017 15:10 15,2 C 11,1 C 63 % 1018,2 hPa 0,0 l/m 9,7 km/h (2 Bft) SW 233 0 min 0,000 mm 0,8 UV-I 156 W/m 8,2 C 13,5 C 14,5 km/h (3 Bft) 96,15 %
10.10.2017 15:12 15,2 C 11,1 C 63 % 1018,3 hPa 0,0 l/m 10,2 km/h (2 Bft) W-SW 237 0 min 0,000 mm 0,8 UV-I 162 W/m 8,2 C 13,2 C 16,1 km/h (3 Bft) 98,53 %
10.10.2017 15:14 15,1 C 11,1 C 61 % 1018,2 hPa 0,0 l/m 12,6 km/h (3 Bft) W-SW 255 0 min 0,000 mm 0,7 UV-I 149 W/m 7,6 C 12,2 C 19,3 km/h (3 Bft) 96,15 %
10.10.2017 15:16 15,1 C 11,1 C 61 % 1018,2 hPa 0,0 l/m 15,4 km/h (3 Bft) W-SW 246 0 min 0,000 mm 0,5 UV-I 115 W/m 7,6 C 11,2 C 22,5 km/h (4 Bft) 98,21 %
10.10.2017 15:18 15,0 C 11,1 C 62 % 1018,2 hPa 0,0 l/m 11,9 km/h (2 Bft) W-SW 257 0 min 0,000 mm 0,0 UV-I 107 W/m 7,8 C 12,3 C 17,7 km/h (3 Bft) 98,21 %
10.10.2017 15:20 14,9 C 11,1 C 63 % 1018,2 hPa 0,0 l/m 9,8 km/h (2 Bft) W-SW 257 0 min 0,000 mm 0,5 UV-I 123 W/m 7,9 C 13,1 C 17,7 km/h (3 Bft) 97,73 %
10.10.2017 15:22 14,9 C 11,1 C 62 % 1018,2 hPa 0,0 l/m 13,9 km/h (3 Bft) W-SW 249 0 min 0,000 mm 0,6 UV-I 138 W/m 7,7 C 11,4 C 20,9 km/h (4 Bft) 100,00 %
10.10.2017 15:24 14,9 C 11,1 C 63 % 1018,2 hPa 0,0 l/m 13,6 km/h (3 Bft) W-SW 244 0 min 0,000 mm 0,6 UV-I 125 W/m 7,9 C 11,6 C 17,7 km/h (3 Bft) 97,87 %
10.10.2017 15:26 14,8 C 11,1 C 63 % 1018,2 hPa 0,0 l/m 9,9 km/h (2 Bft) W-SW 254 0 min 0,000 mm 0,3 UV-I 107 W/m 7,8 C 12,9 C 17,7 km/h (3 Bft) 100,00 %
10.10.2017 15:28 14,8 C 11,1 C 63 % 1018,2 hPa 0,0 l/m 7,8 km/h (2 Bft) W-NW 284 0 min 0,000 mm 0,0 UV-I 93 W/m 7,8 C 14,0 C 11,3 km/h (2 Bft) 100,00 %
10.10.2017 15:30 14,8 C 11,1 C 65 % 1018,2 hPa 0,0 l/m 5,0 km/h (1 Bft) W-SW 246 0 min 0,000 mm 0,0 UV-I 90 W/m 8,3 C 14,8 C 11,3 km/h (2 Bft) 97,87 %
10.10.2017 15:32 14,8 C 11,1 C 65 % 1018,2 hPa 0,0 l/m 5,3 km/h (1 Bft) W-NW 290 0 min 0,000 mm 0,0 UV-I 108 W/m 8,3 C 14,8 C 11,3 km/h (2 Bft) 100,00 %
10.10.2017 15:34 14,8 C 11,1 C 65 % 1018,2 hPa 0,0 l/m 3,1 km/h (1 Bft) W-NW 282 0 min 0,000 mm 0,2 UV-I 147 W/m 8,3 C 14,8 C 11,3 km/h (2 Bft) 100,00 %
10.10.2017 15:36 14,8 C 11,1 C 65 % 1018,2 hPa 0,0 l/m 5,4 km/h (1 Bft) SW 234 0 min 0,000 mm 0,5 UV-I 153 W/m 8,3 C 14,8 C 11,3 km/h (2 Bft) 100,00 %
10.10.2017 15:38 14,7 C 11,1 C 65 % 1018,3 hPa 0,0 l/m 5,9 km/h (2 Bft) W-SW 238 0 min 0,000 mm 0,3 UV-I 134 W/m 8,2 C 14,7 C 12,9 km/h (3 Bft) 100,00 %
10.10.2017 15:40 14,7 C 11,1 C 65 % 1018,2 hPa 0,0 l/m 6,9 km/h (2 Bft) SW 236 0 min 0,000 mm 0,0 UV-I 97 W/m 8,2 C 14,4 C 12,9 km/h (3 Bft) 100,00 %
10.10.2017 15:42 14,7 C 11,1 C 65 % 1018,2 hPa 0,0 l/m 6,2 km/h (2 Bft) SW 228 0 min 0,000 mm 0,0 UV-I 71 W/m 8,2 C 14,7 C 8,0 km/h (2 Bft) 100,00 %
10.10.2017 15:44 14,7 C 11,1 C 65 % 1018,2 hPa 0,0 l/m 7,3 km/h (2 Bft) W-SW 250 0 min 0,000 mm 0,0 UV-I 53 W/m 8,2 C 14,2 C 14,5 km/h (3 Bft) 100,00 %
10.10.2017 15:46 14,7 C 11,1 C 66 % 1018,3 hPa 0,0 l/m 7,1 km/h (2 Bft) W-SW 244 0 min 0,000 mm 0,0 UV-I 48 W/m 8,4 C 14,3 C 11,3 km/h (2 Bft) 98,39 %
10.10.2017 15:48 14,6 C 11,1 C 65 % 1018,3 hPa 0,0 l/m 7,2 km/h (2 Bft) W-SW 246 0 min 0,000 mm 0,0 UV-I 51 W/m 8,1 C 14,1 C 11,3 km/h (2 Bft) 96,00 %
10.10.2017 15:50 14,6 C 11,1 C 64 % 1018,2 hPa 0,0 l/m 15,3 km/h (3 Bft) W-NW 282 0 min 0,000 mm 0,0 UV-I 53 W/m 7,9 C 10,6 C 25,7 km/h (4 Bft) 97,56 %
10.10.2017 15:52 14,6 C 11,1 C 65 % 1018,2 hPa 0,0 l/m 14,1 km/h (3 Bft) SW 230 0 min 0,000 mm 0,0 UV-I 51 W/m 8,1 C 11,0 C 24,1 km/h (4 Bft) 98,00 %
10.10.2017 15:54 14,6 C 11,1 C 64 % 1018,2 hPa 0,0 l/m 15,3 km/h (3 Bft) W-SW 252 0 min 0,000 mm 0,0 UV-I 57 W/m 7,9 C 10,6 C 22,5 km/h (4 Bft) 98,11 %
10.10.2017 15:56 14,6 C 11,1 C 64 % 1018,2 hPa 0,0 l/m 14,8 km/h (3 Bft) W-SW 239 0 min 0,000 mm 0,0 UV-I 56 W/m 7,9 C 10,8 C 24,1 km/h (4 Bft) 95,74 %
10.10.2017 15:58 14,6 C 11,1 C 65 % 1018,2 hPa 0,0 l/m 13,4 km/h (3 Bft) W-SW 254 0 min 0,000 mm 0,0 UV-I 51 W/m 8,1 C 11,3 C 17,7 km/h (3 Bft) 97,56 %
10.10.2017 16:00 14,6 C 11,1 C 65 % 1018,2 hPa 0,0 l/m 9,1 km/h (2 Bft) W 266 0 min 0,102 mm 0,0 UV-I 52 W/m 8,1 C 13,1 C 12,9 km/h (3 Bft) 98,11 %
10.10.2017 16:02 14,5 C 11,1 C 65 % 1018,2 hPa 0,0 l/m 10,0 km/h (2 Bft) W 267 0 min 0,000 mm 0,0 UV-I 59 W/m 8,0 C 12,6 C 14,5 km/h (3 Bft) 97,56 %
10.10.2017 16:04 14,5 C 11,1 C 66 % 1018,2 hPa 0,0 l/m 12,4 km/h (3 Bft) SW 226 0 min 0,000 mm 0,0 UV-I 72 W/m 8,2 C 11,5 C 17,7 km/h (3 Bft) 97,56 %
10.10.2017 16:06 14,5 C 11,1 C 66 % 1018,2 hPa 0,0 l/m 11,0 km/h (2 Bft) W 260 0 min 0,000 mm 0,0 UV-I 82 W/m 8,2 C 12,1 C 17,7 km/h (3 Bft) 98,21 %
10.10.2017 16:08 14,5 C 11,1 C 66 % 1018,3 hPa 0,0 l/m 11,1 km/h (2 Bft) W-SW 252 0 min 0,000 mm 0,0 UV-I 83 W/m 8,2 C 12,1 C 16,1 km/h (3 Bft) 97,56 %
10.10.2017 16:10 14,5 C 11,1 C 65 % 1018,2 hPa 0,0 l/m 11,4 km/h (2 Bft) W-SW 239 0 min 0,000 mm 0,0 UV-I 76 W/m 8,0 C 11,9 C 19,3 km/h (3 Bft) 97,73 %
10.10.2017 16:12 14,5 C 11,1 C 66 % 1018,3 hPa 0,0 l/m 12,3 km/h (3 Bft) W-SW 242 0 min 0,000 mm 0,0 UV-I 69 W/m 8,2 C 11,6 C 17,7 km/h (3 Bft) 96,23 %
10.10.2017 16:14 14,5 C 11,1 C 66 % 1018,2 hPa 0,0 l/m 12,9 km/h (3 Bft) SW 236 0 min 0,000 mm 0,0 UV-I 64 W/m 8,2 C 11,3 C 17,7 km/h (3 Bft) 100,00 %
10.10.2017 16:16 14,4 C 11,1 C 66 % 1018,2 hPa 0,0 l/m 11,3 km/h (2 Bft) W-SW 256 0 min 0,000 mm 0,0 UV-I 60 W/m 8,1 C 11,9 C 16,1 km/h (3 Bft) 96,43 %
10.10.2017 16:18 14,4 C 11,1 C 67 % 1018,2 hPa 0,0 l/m 12,3 km/h (3 Bft) W 260 0 min 0,000 mm 0,0 UV-I 55 W/m 8,4 C 11,5 C 19,3 km/h (3 Bft) 96,43 %
10.10.2017 16:20 14,3 C 11,1 C 66 % 1018,2 hPa 0,0 l/m 14,4 km/h (3 Bft) W-NW 284 0 min 0,000 mm 0,0 UV-I 56 W/m 8,0 C 10,6 C 24,1 km/h (4 Bft) 95,00 %
10.10.2017 16:22 14,3 C 11,1 C 66 % 1018,2 hPa 0,0 l/m 11,0 km/h (2 Bft) W 267 0 min 0,000 mm 0,0 UV-I 55 W/m 8,0 C 11,9 C 16,1 km/h (3 Bft) 98,21 %
10.10.2017 16:24 14,3 C 11,1 C 67 % 1018,2 hPa 0,0 l/m 10,1 km/h (2 Bft) W-SW 256 0 min 0,000 mm 0,0 UV-I 54 W/m 8,3 C 12,3 C 17,7 km/h (3 Bft) 100,00 %
10.10.2017 16:26 14,3 C 11,1 C 66 % 1018,2 hPa 0,0 l/m 9,7 km/h (2 Bft) W 259 0 min 0,000 mm 0,0 UV-I 54 W/m 8,0 C 12,5 C 19,3 km/h (3 Bft) 95,74 %
10.10.2017 16:28 14,2 C 11,1 C 66 % 1018,2 hPa 0,0 l/m 10,1 km/h (2 Bft) W-SW 258 0 min 0,000 mm 0,0 UV-I 56 W/m 7,9 C 12,2 C 14,5 km/h (3 Bft) 98,11 %
10.10.2017 16:30 14,2 C 11,1 C 67 % 1018,2 hPa 0,0 l/m 9,0 km/h (2 Bft) W-SW 252 0 min 0,000 mm 0,0 UV-I 59 W/m 8,2 C 12,7 C 14,5 km/h (3 Bft) 97,37 %
10.10.2017 16:32 14,2 C 11,1 C 67 % 1018,2 hPa 0,0 l/m 10,2 km/h (2 Bft) W-SW 254 0 min 0,000 mm 0,0 UV-I 59 W/m 8,2 C 12,1 C 16,1 km/h (3 Bft) 96,23 %
10.10.2017 16:34 14,2 C 11,1 C 68 % 1018,2 hPa 0,0 l/m 8,2 km/h (2 Bft) W-SW 246 0 min 0,000 mm 0,0 UV-I 61 W/m 8,4 C 13,2 C 14,5 km/h (3 Bft) 98,11 %
10.10.2017 16:36 14,2 C 11,1 C 68 % 1018,3 hPa 0,0 l/m 7,4 km/h (2 Bft) W-SW 255 0 min 0,000 mm 0,0 UV-I 62 W/m 8,4 C 13,6 C 12,9 km/h (3 Bft) 97,87 %
10.10.2017 16:38 14,2 C 11,1 C 67 % 1018,2 hPa 0,0 l/m 8,7 km/h (2 Bft) SW 232 0 min 0,000 mm 0,0 UV-I 68 W/m 8,2 C 12,9 C 16,1 km/h (3 Bft) 97,87 %
10.10.2017 16:40 14,2 C 11,1 C 67 % 1018,3 hPa 0,0 l/m 7,2 km/h (2 Bft) W-SW 256 0 min 0,000 mm 0,0 UV-I 90 W/m 8,2 C 13,7 C 11,3 km/h (2 Bft) 94,74 %
10.10.2017 16:42 14,2 C 11,1 C 68 % 1018,3 hPa 0,0 l/m 5,1 km/h (1 Bft) W 259 0 min 0,000 mm 0,0 UV-I 114 W/m 8,4 C 14,2 C 6,4 km/h (2 Bft) 95,12 %
10.10.2017 16:44 14,2 C 11,1 C 68 % 1018,3 hPa 0,0 l/m 8,2 km/h (2 Bft) W 265 0 min 0,000 mm 0,0 UV-I 104 W/m 8,4 C 13,2 C 12,9 km/h (3 Bft) 96,43 %
10.10.2017 16:45 14,2 C 11,1 C 68 % 1018,4 hPa 0,0 l/m 6,4 km/h (2 Bft) W 270 0 min 0,000 mm 0,0 UV-I 104 W/m 8,4 C 14,2 C 12,9 km/h (3 Bft) 99,12 %
10.10.2017 16:50 14,2 C 11,1 C 68 % 1018,4 hPa 0,0 l/m 6,4 km/h (2 Bft) W 270 0 min 0,000 mm 0,0 UV-I 82 W/m 8,4 C 14,2 C 12,9 km/h (3 Bft) 97,37 %
10.10.2017 16:55 14,2 C 11,1 C 69 % 1018,4 hPa 0,0 l/m 6,4 km/h (2 Bft) W-SW 247 0 min 0,000 mm 0,0 UV-I 74 W/m 8,6 C 14,2 C 12,9 km/h (3 Bft) 98,25 %
10.10.2017 16:58 14,2 C 11,1 C 68 % 1018,4 hPa 0,0 l/m 5,2 km/h (1 Bft) SW 223 0 min 0,000 mm 0,0 UV-I 82 W/m 8,4 C 14,2 C 6,4 km/h (2 Bft) 96,77 %
10.10.2017 17:00 14,2 C 11,1 C 69 % 1018,3 hPa 0,0 l/m 6,5 km/h (2 Bft) W-SW 252 0 min 0,076 mm 0,0 UV-I 83 W/m 8,6 C 14,2 C 9,7 km/h (2 Bft) 95,74 %
10.10.2017 17:03 14,2 C 11,1 C 69 % 1018,3 hPa 0,0 l/m 5,8 km/h (2 Bft) W-SW 258 0 min 0,000 mm 0,0 UV-I 80 W/m 8,6 C 14,2 C 12,9 km/h (3 Bft) 97,50 %
10.10.2017 17:04 14,2 C 11,1 C 69 % 1018,3 hPa 0,0 l/m 6,5 km/h (2 Bft) W 267 0 min 0,000 mm 0,0 UV-I 75 W/m 8,6 C 14,2 C 11,3 km/h (2 Bft) 95,65 %
10.10.2017 17:06 14,2 C 11,1 C 69 % 1018,3 hPa 0,0 l/m 10,1 km/h (2 Bft) W-SW 238 0 min 0,000 mm 0,0 UV-I 76 W/m 8,6 C 12,2 C 14,5 km/h (3 Bft) 97,44 %
10.10.2017 17:08 14,2 C 11,1 C 69 % 1018,4 hPa 0,0 l/m 8,2 km/h (2 Bft) W 259 0 min 0,000 mm 0,0 UV-I 76 W/m 8,6 C 13,2 C 12,9 km/h (3 Bft) 98,11 %
10.10.2017 17:10 14,2 C 11,1 C 69 % 1018,3 hPa 0,0 l/m 11,7 km/h (2 Bft) S-SW 213 0 min 0,000 mm 0,0 UV-I 73 W/m 8,6 C 11,5 C 19,3 km/h (3 Bft) 97,37 %
10.10.2017 17:12 14,2 C 11,1 C 68 % 1018,4 hPa 0,0 l/m 13,9 km/h (3 Bft) W-SW 250 0 min 0,000 mm 0,0 UV-I 69 W/m 8,4 C 10,6 C 24,1 km/h (4 Bft) 97,87 %
10.10.2017 17:14 14,2 C 11,1 C 68 % 1018,4 hPa 0,0 l/m 8,5 km/h (2 Bft) SW 229 0 min 0,000 mm 0,0 UV-I 65 W/m 8,4 C 13,0 C 12,9 km/h (3 Bft) 98,11 %
10.10.2017 17:16 14,2 C 11,1 C 69 % 1018,4 hPa 0,0 l/m 10,1 km/h (2 Bft) W-SW 256 0 min 0,000 mm 0,0 UV-I 62 W/m 8,6 C 12,2 C 14,5 km/h (3 Bft) 100,00 %
10.10.2017 17:18 14,2 C 11,1 C 68 % 1018,5 hPa 0,0 l/m 13,7 km/h (3 Bft) SW 233 0 min 0,000 mm 0,0 UV-I 60 W/m 8,4 C 10,7 C 19,3 km/h (3 Bft) 100,00 %
10.10.2017 17:20 14,2 C 11,1 C 68 % 1018,5 hPa 0,0 l/m 12,2 km/h (2 Bft) W-SW 240 0 min 0,000 mm 0,0 UV-I 60 W/m 8,4 C 11,3 C 17,7 km/h (3 Bft) 100,00 %
10.10.2017 17:22 14,2 C 11,1 C 68 % 1018,5 hPa 0,0 l/m 11,4 km/h (2 Bft) W-SW 252 0 min 0,000 mm 0,0 UV-I 62 W/m 8,4 C 11,6 C 16,1 km/h (3 Bft) 97,73 %
10.10.2017 17:24 14,2 C 11,1 C 68 % 1018,6 hPa 0,0 l/m 13,8 km/h (3 Bft) SW 223 0 min 0,000 mm 0,0 UV-I 62 W/m 8,4 C 10,6 C 19,3 km/h (3 Bft) 100,00 %
10.10.2017 17:26 14,2 C 11,1 C 68 % 1018,6 hPa 0,0 l/m 11,9 km/h (2 Bft) W 275 0 min 0,000 mm 0,0 UV-I 61 W/m 8,4 C 11,4 C 16,1 km/h (3 Bft) 100,00 %
10.10.2017 17:28 14,2 C 11,1 C 68 % 1018,6 hPa 0,0 l/m 10,0 km/h (2 Bft) W-SW 252 0 min 0,000 mm 0,0 UV-I 58 W/m 8,4 C 12,2 C 17,7 km/h (3 Bft) 100,00 %
10.10.2017 17:30 14,1 C 11,1 C 69 % 1018,6 hPa 0,0 l/m 10,1 km/h (2 Bft) W-SW 248 0 min 0,000 mm 0,0 UV-I 53 W/m 8,5 C 12,1 C 14,5 km/h (3 Bft) 98,11 %
10.10.2017 17:32 14,1 C 11,1 C 69 % 1018,7 hPa 0,0 l/m 9,9 km/h (2 Bft) W 271 0 min 0,000 mm 0,0 UV-I 48 W/m 8,5 C 12,2 C 14,5 km/h (3 Bft) 97,56 %
10.10.2017 17:34 14,1 C 11,1 C 69 % 1018,7 hPa 0,0 l/m 10,8 km/h (2 Bft) SW 231 0 min 0,000 mm 0,0 UV-I 45 W/m 8,5 C 11,8 C 16,1 km/h (3 Bft) 98,21 %
10.10.2017 17:36 14,0 C 11,1 C 69 % 1018,7 hPa 0,0 l/m 8,1 km/h (2 Bft) SW 223 0 min 0,000 mm 0,0 UV-I 42 W/m 8,4 C 13,0 C 11,3 km/h (2 Bft) 100,00 %
10.10.2017 17:38 14,0 C 11,1 C 69 % 1018,7 hPa 0,0 l/m 9,7 km/h (2 Bft) SW 234 0 min 0,000 mm 0,0 UV-I 43 W/m 8,4 C 12,2 C 14,5 km/h (3 Bft) 100,00 %
10.10.2017 17:40 14,0 C 11,1 C 69 % 1018,8 hPa 0,0 l/m 8,5 km/h (2 Bft) W-SW 248 0 min 0,000 mm 0,0 UV-I 45 W/m 8,4 C 12,8 C 12,9 km/h (3 Bft) 100,00 %
10.10.2017 17:42 13,9 C 11,1 C 70 % 1018,8 hPa 0,0 l/m 9,4 km/h (2 Bft) W 275 0 min 0,000 mm 0,0 UV-I 40 W/m 8,5 C 12,2 C 14,5 km/h (3 Bft) 100,00 %
10.10.2017 17:44 13,9 C 11,1 C 70 % 1018,8 hPa 0,0 l/m 8,5 km/h (2 Bft) W-NW 283 0 min 0,000 mm 0,0 UV-I 34 W/m 8,5 C 12,7 C 14,5 km/h (3 Bft) 100,00 %
10.10.2017 17:46 13,9 C 11,1 C 70 % 1018,9 hPa 0,0 l/m 9,4 km/h (2 Bft) W-SW 250 0 min 0,000 mm 0,0 UV-I 28 W/m 8,5 C 12,2 C 14,5 km/h (3 Bft) 100,00 %
10.10.2017 17:48 13,8 C 11,1 C 70 % 1018,8 hPa 0,0 l/m 7,6 km/h (2 Bft) SW 214 0 min 0,000 mm 0,0 UV-I 22 W/m 8,4 C 13,1 C 11,3 km/h (2 Bft) 97,56 %
10.10.2017 17:50 13,8 C 11,1 C 70 % 1018,8 hPa 0,0 l/m 6,5 km/h (2 Bft) SW 233 0 min 0,000 mm 0,0 UV-I 20 W/m 8,4 C 13,8 C 9,7 km/h (2 Bft) 98,11 %
10.10.2017 17:52 13,8 C 11,1 C 70 % 1018,8 hPa 0,0 l/m 6,2 km/h (2 Bft) W-SW 252 0 min 0,000 mm 0,0 UV-I 18 W/m 8,4 C 13,8 C 11,3 km/h (2 Bft) 100,00 %
10.10.2017 17:54 13,8 C 11,1 C 71 % 1018,8 hPa 0,0 l/m 7,1 km/h (2 Bft) W-SW 246 0 min 0,000 mm 0,0 UV-I 17 W/m 8,6 C 13,4 C 11,3 km/h (2 Bft) 97,14 %
10.10.2017 17:56 13,7 C 11,1 C 71 % 1018,8 hPa 0,0 l/m 8,2 km/h (2 Bft) W-SW 242 0 min 0,000 mm 0,0 UV-I 15 W/m 8,5 C 12,6 C 12,9 km/h (3 Bft) 100,00 %
10.10.2017 17:58 13,7 C 11,1 C 72 % 1018,9 hPa 0,0 l/m 6,0 km/h (2 Bft) SW 225 0 min 0,000 mm 0,0 UV-I 14 W/m 8,7 C 13,7 C 9,7 km/h (2 Bft) 96,23 %
10.10.2017 18:00 13,6 C 11,1 C 72 % 1018,9 hPa 0,0 l/m 7,9 km/h (2 Bft) SW 225 0 min 0,000 mm 0,0 UV-I 14 W/m 8,6 C 12,7 C 12,9 km/h (3 Bft) 100,00 %
10.10.2017 18:02 13,6 C 11,1 C 72 % 1018,8 hPa 0,0 l/m 7,7 km/h (2 Bft) SW 225 0 min 0,051 mm 0,0 UV-I 12 W/m 8,6 C 12,8 C 11,3 km/h (2 Bft) 100,00 %
10.10.2017 18:04 13,6 C 11,1 C 72 % 1018,9 hPa 0,0 l/m 8,5 km/h (2 Bft) SW 225 0 min 0,000 mm 0,0 UV-I 12 W/m 8,6 C 12,4 C 12,9 km/h (3 Bft) 100,00 %
10.10.2017 18:06 13,6 C 11,1 C 73 % 1018,9 hPa 0,0 l/m 6,9 km/h (2 Bft) SW 226 0 min 0,000 mm 0,0 UV-I 12 W/m 8,9 C 13,3 C 9,7 km/h (2 Bft) 100,00 %
10.10.2017 18:08 13,5 C 11,1 C 73 % 1018,9 hPa 0,0 l/m 7,8 km/h (2 Bft) SW 228 0 min 0,000 mm 0,0 UV-I 11 W/m 8,8 C 12,6 C 12,9 km/h (3 Bft) 100,00 %
10.10.2017 18:10 13,4 C 11,1 C 73 % 1019,0 hPa 0,0 l/m 9,1 km/h (2 Bft) SW 218 0 min 0,000 mm 0,0 UV-I 11 W/m 8,7 C 11,8 C 14,5 km/h (3 Bft) 100,00 %
10.10.2017 18:12 13,4 C 11,1 C 73 % 1018,9 hPa 0,0 l/m 9,0 km/h (2 Bft) SW 230 0 min 0,000 mm 0,0 UV-I 9 W/m 8,7 C 11,9 C 12,9 km/h (3 Bft) 100,00 %
10.10.2017 18:14 13,4 C 11,1 C 73 % 1019,0 hPa 0,0 l/m 8,6 km/h (2 Bft) SW 222 2 min 0,000 mm 0,0 UV-I 9 W/m 8,7 C 12,1 C 12,9 km/h (3 Bft) 100,00 %
10.10.2017 18:16 13,4 C 11,1 C 73 % 1019,0 hPa 0,0 l/m 8,7 km/h (2 Bft) SW 234 0 min 0,000 mm 0,0 UV-I 7 W/m 8,7 C 12,0 C 12,9 km/h (3 Bft) 100,00 %
10.10.2017 18:18 13,4 C 11,1 C 74 % 1019,0 hPa 0,0 l/m 7,9 km/h (2 Bft) W-SW 237 0 min 0,000 mm 0,0 UV-I 7 W/m 8,9 C 12,5 C 12,9 km/h (3 Bft) 100,00 %
10.10.2017 18:20 13,4 C 11,1 C 74 % 1019,1 hPa 0,0 l/m 8,3 km/h (2 Bft) W 259 0 min 0,000 mm 0,0 UV-I 6 W/m 8,9 C 12,2 C 11,3 km/h (2 Bft) 98,11 %
10.10.2017 18:22 13,3 C 11,1 C 74 % 1019,0 hPa 0,0 l/m 9,4 km/h (2 Bft) SW 225 0 min 0,000 mm 0,0 UV-I 5 W/m 8,8 C 11,5 C 14,5 km/h (3 Bft) 100,00 %
10.10.2017 18:24 13,3 C 11,1 C 75 % 1019,0 hPa 0,0 l/m 8,1 km/h (2 Bft) SW 232 0 min 0,000 mm 0,0 UV-I 5 W/m 9,0 C 12,3 C 14,5 km/h (3 Bft) 100,00 %
10.10.2017 18:26 13,3 C 11,1 C 75 % 1019,1 hPa 0,0 l/m 7,8 km/h (2 Bft) W-SW 246 0 min 0,000 mm 0,0 UV-I 5 W/m 9,0 C 12,4 C 14,5 km/h (3 Bft) 97,73 %
10.10.2017 18:28 13,2 C 11,1 C 75 % 1019,1 hPa 0,0 l/m 8,2 km/h (2 Bft) SW 225 0 min 0,000 mm 0,0 UV-I 5 W/m 8,9 C 12,1 C 14,5 km/h (3 Bft) 100,00 %
10.10.2017 18:30 13,2 C 11,1 C 76 % 1019,1 hPa 0,0 l/m 8,9 km/h (2 Bft) W 259 0 min 0,000 mm 0,0 UV-I 2 W/m 9,1 C 11,7 C 14,5 km/h (3 Bft) 100,00 %
10.10.2017 18:33 13,1 C 11,1 C 77 % 1019,2 hPa 0,0 l/m 8,6 km/h (2 Bft) W-SW 244 0 min 0,000 mm 0,0 UV-I 0 W/m 9,2 C 11,8 C 12,9 km/h (3 Bft) 97,37 %
10.10.2017 18:34 13,1 C 11,1 C 77 % 1019,2 hPa 0,0 l/m 10,9 km/h (2 Bft) SW 231 0 min 0,000 mm 0,0 UV-I 0 W/m 9,2 C 10,6 C 14,5 km/h (3 Bft) 100,00 %
10.10.2017 18:36 13,1 C 11,1 C 77 % 1019,2 hPa 0,0 l/m 11,0 km/h (2 Bft) W-SW 252 0 min 0,000 mm 0,0 UV-I 0 W/m 9,2 C 10,5 C 16,1 km/h (3 Bft) 96,55 %
10.10.2017 18:38 13,0 C 11,1 C 78 % 1019,2 hPa 0,0 l/m 12,1 km/h (2 Bft) SW 229 0 min 0,000 mm 0,0 UV-I 0 W/m 9,3 C 9,9 C 17,7 km/h (3 Bft) 100,00 %
10.10.2017 18:40 12,9 C 11,1 C 78 % 1019,2 hPa 0,0 l/m 9,2 km/h (2 Bft) SW 227 0 min 0,000 mm 0,0 UV-I 0 W/m 9,2 C 11,2 C 12,9 km/h (3 Bft) 98,21 %
10.10.2017 18:42 12,9 C 11,1 C 79 % 1019,3 hPa 0,0 l/m 7,3 km/h (2 Bft) SW 232 0 min 0,000 mm 0,0 UV-I 0 W/m 9,3 C 12,3 C 12,9 km/h (3 Bft) 96,15 %
10.10.2017 18:44 12,8 C 11,1 C 79 % 1019,2 hPa 0,0 l/m 5,5 km/h (1 Bft) SW 220 0 min 0,000 mm 0,0 UV-I 0 W/m 9,2 C 12,8 C 8,0 km/h (2 Bft) 96,43 %
10.10.2017 18:46 12,8 C 11,1 C 80 % 1019,2 hPa 0,0 l/m 8,2 km/h (2 Bft) S-SW 207 0 min 0,000 mm 0,0 UV-I 0 W/m 9,4 C 11,7 C 12,9 km/h (3 Bft) 94,64 %
10.10.2017 18:48 12,7 C 11,1 C 80 % 1019,2 hPa 0,0 l/m 6,4 km/h (2 Bft) SW 225 0 min 0,000 mm 0,0 UV-I 0 W/m 9,3 C 12,7 C 8,0 km/h (2 Bft) 97,56 %
10.10.2017 18:50 12,7 C 11,1 C 81 % 1019,2 hPa 0,0 l/m 7,5 km/h (2 Bft) SW 236 0 min 0,000 mm 0,0 UV-I 0 W/m 9,5 C 12,0 C 11,3 km/h (2 Bft) 96,00 %
10.10.2017 18:52 12,6 C 11,1 C 81 % 1019,2 hPa 0,0 l/m 6,8 km/h (2 Bft) SW 223 0 min 0,000 mm 0,0 UV-I 0 W/m 9,4 C 12,4 C 11,3 km/h (2 Bft) 98,00 %
10.10.2017 18:54 12,6 C 11,1 C 82 % 1019,3 hPa 0,0 l/m 7,1 km/h (2 Bft) S-SW 207 0 min 0,000 mm 0,0 UV-I 0 W/m 9,6 C 12,2 C 9,7 km/h (2 Bft) 97,37 %
10.10.2017 18:56 12,5 C 11,1 C 82 % 1019,3 hPa 0,0 l/m 6,9 km/h (2 Bft) SW 216 0 min 0,000 mm 0,0 UV-I 0 W/m 9,5 C 12,2 C 11,3 km/h (2 Bft) 96,23 %
10.10.2017 18:58 12,4 C 11,1 C 82 % 1019,3 hPa 0,0 l/m 7,5 km/h (2 Bft) W-SW 240 0 min 0,000 mm 0,0 UV-I 0 W/m 9,4 C 11,7 C 14,5 km/h (3 Bft) 97,62 %
10.10.2017 19:00 12,4 C 11,1 C 82 % 1019,4 hPa 0,0 l/m 7,7 km/h (2 Bft) S-SW 209 0 min 0,025 mm 0,0 UV-I 0 W/m 9,4 C 11,6 C 9,7 km/h (2 Bft) 94,00 %
10.10.2017 19:02 12,4 C 11,1 C 83 % 1019,4 hPa 0,0 l/m 9,4 km/h (2 Bft) S-SW 212 0 min 0,000 mm 0,0 UV-I 0 W/m 9,6 C 10,6 C 14,5 km/h (3 Bft) 97,56 %
10.10.2017 19:04 12,4 C 11,1 C 83 % 1019,4 hPa 0,0 l/m 7,4 km/h (2 Bft) SW 236 0 min 0,000 mm 0,0 UV-I 0 W/m 9,6 C 11,7 C 11,3 km/h (2 Bft) 98,00 %
10.10.2017 19:06 12,3 C 11,1 C 83 % 1019,3 hPa 0,0 l/m 5,3 km/h (1 Bft) SW 222 0 min 0,000 mm 0,0 UV-I 0 W/m 9,5 C 12,3 C 8,0 km/h (2 Bft) 95,74 %
10.10.2017 19:08 12,3 C 11,1 C 83 % 1019,4 hPa 0,0 l/m 5,4 km/h (1 Bft) W-SW 240 0 min 0,000 mm 0,0 UV-I 0 W/m 9,5 C 12,3 C 8,0 km/h (2 Bft) 96,00 %
10.10.2017 19:10 12,3 C 11,1 C 83 % 1019,4 hPa 0,0 l/m 7,2 km/h (2 Bft) SW 232 0 min 0,000 mm 0,0 UV-I 0 W/m 9,5 C 11,8 C 9,7 km/h (2 Bft) 97,56 %
10.10.2017 19:12 12,3 C 11,1 C 84 % 1019,4 hPa 0,0 l/m 4,9 km/h (1 Bft) S-SW 207 0 min 0,000 mm 0,0 UV-I 0 W/m 9,7 C 12,3 C 8,0 km/h (2 Bft) 98,21 %
10.10.2017 19:14 12,3 C 11,1 C 84 % 1019,4 hPa 0,0 l/m 7,4 km/h (2 Bft) SW 229 0 min 0,000 mm 0,0 UV-I 0 W/m 9,7 C 11,6 C 11,3 km/h (2 Bft) 94,74 %
10.10.2017 19:16 12,2 C 11,1 C 84 % 1019,4 hPa 0,0 l/m 6,8 km/h (2 Bft) SW 232 0 min 0,000 mm 0,0 UV-I 0 W/m 9,6 C 11,9 C 9,7 km/h (2 Bft) 98,21 %
10.10.2017 19:18 12,2 C 11,1 C 84 % 1019,5 hPa 0,0 l/m 4,8 km/h (1 Bft) W-SW 239 0 min 0,000 mm 0,0 UV-I 0 W/m 9,6 C 12,2 C 8,0 km/h (2 Bft) 97,87 %
10.10.2017 19:20 12,2 C 11,1 C 84 % 1019,5 hPa 0,0 l/m 5,3 km/h (1 Bft) S-SW 209 0 min 0,000 mm 0,0 UV-I 0 W/m 9,6 C 12,2 C 8,0 km/h (2 Bft) 100,00 %
10.10.2017 19:22 12,2 C 11,1 C 85 % 1019,5 hPa 0,0 l/m 6,5 km/h (2 Bft) S-SW 210 0 min 0,000 mm 0,0 UV-I 0 W/m 9,8 C 12,2 C 11,3 km/h (2 Bft) 100,00 %
10.10.2017 19:24 12,2 C 11,1 C 84 % 1019,5 hPa 0,0 l/m 5,8 km/h (2 Bft) S-SW 200 0 min 0,000 mm 0,0 UV-I 0 W/m 9,6 C 12,2 C 8,0 km/h (2 Bft) 98,11 %
10.10.2017 19:26 12,2 C 11,1 C 85 % 1019,5 hPa 0,0 l/m 7,1 km/h (2 Bft) S-SW 213 0 min 0,000 mm 0,0 UV-I 0 W/m 9,8 C 11,7 C 9,7 km/h (2 Bft) 100,00 %
10.10.2017 19:28 12,2 C 11,1 C 84 % 1019,5 hPa 0,0 l/m 5,9 km/h (2 Bft) SW 223 0 min 0,000 mm 0,0 UV-I 0 W/m 9,6 C 12,2 C 9,7 km/h (2 Bft) 98,11 %
10.10.2017 19:30 12,2 C 11,1 C 85 % 1019,4 hPa 0,0 l/m 4,4 km/h (1 Bft) SW 222 0 min 0,000 mm 0,0 UV-I 0 W/m 9,8 C 12,2 C 6,4 km/h (2 Bft) 97,56 %
10.10.2017 19:32 12,1 C 11,1 C 85 % 1019,5 hPa 0,0 l/m 4,7 km/h (1 Bft) S-SW 203 0 min 0,000 mm 0,0 UV-I 0 W/m 9,7 C 12,1 C 8,0 km/h (2 Bft) 100,00 %
10.10.2017 19:34 12,1 C 11,1 C 85 % 1019,5 hPa 0,0 l/m 5,5 km/h (1 Bft) SW 217 0 min 0,000 mm 0,0 UV-I 0 W/m 9,7 C 12,1 C 8,0 km/h (2 Bft) 97,56 %
10.10.2017 19:36 12,1 C 11,1 C 85 % 1019,5 hPa 0,0 l/m 4,4 km/h (1 Bft) SW 217 0 min 0,000 mm 0,0 UV-I 0 W/m 9,7 C 12,1 C 6,4 km/h (2 Bft) 98,00 %
10.10.2017 19:38 12,2 C 11,1 C 85 % 1019,4 hPa 0,0 l/m 3,9 km/h (1 Bft) SW 217 0 min 0,000 mm 0,0 UV-I 0 W/m 9,8 C 12,2 C 6,4 km/h (2 Bft) 100,00 %
10.10.2017 19:40 12,1 C 11,1 C 85 % 1019,5 hPa 0,0 l/m 3,9 km/h (1 Bft) SW 217 0 min 0,000 mm 0,0 UV-I 0 W/m 9,7 C 12,1 C 4,8 km/h (1 Bft) 100,00 %
10.10.2017 19:42 12,1 C 11,1 C 85 % 1019,5 hPa 0,0 l/m 4,4 km/h (1 Bft) S-SW 212 0 min 0,000 mm 0,0 UV-I 0 W/m 9,7 C 12,1 C 6,4 km/h (2 Bft) 98,00 %
10.10.2017 19:44 12,1 C 11,1 C 85 % 1019,5 hPa 0,0 l/m 3,2 km/h (1 Bft) S-SW 212 0 min 0,000 mm 0,0 UV-I 0 W/m 9,7 C 12,1 C 6,4 km/h (2 Bft) 100,00 %
10.10.2017 19:46 12,1 C 11,1 C 85 % 1019,5 hPa 0,0 l/m 3,3 km/h (1 Bft) S-SW 212 0 min 0,000 mm 0,0 UV-I 0 W/m 9,7 C 12,1 C 6,4 km/h (2 Bft) 97,37 %
10.10.2017 19:48 12,1 C 11,1 C 85 % 1019,5 hPa 0,0 l/m 3,8 km/h (1 Bft) S-SW 213 0 min 0,000 mm 0,0 UV-I 0 W/m 9,7 C 12,1 C 6,4 km/h (2 Bft) 97,87 %
10.10.2017 19:50 12,1 C 11,1 C 85 % 1019,5 hPa 0,0 l/m 3,1 km/h (1 Bft) S-SW 213 0 min 0,000 mm 0,0 UV-I 0 W/m 9,7 C 12,1 C 4,8 km/h (1 Bft) 98,00 %
10.10.2017 19:52 12,1 C 11,1 C 86 % 1019,5 hPa 0,0 l/m 2,8 km/h (1 Bft) S-SW 213 0 min 0,000 mm 0,0 UV-I 0 W/m 9,8 C 12,1 C 4,8 km/h (1 Bft) 96,00 %
10.10.2017 19:54 12,1 C 11,1 C 86 % 1019,5 hPa 0,0 l/m 3,6 km/h (1 Bft) S-SW 212 0 min 0,000 mm 0,0 UV-I 0 W/m 9,8 C 12,1 C 4,8 km/h (1 Bft) 97,87 %
10.10.2017 19:56 12,0 C 11,1 C 86 % 1019,5 hPa 0,0 l/m 3,3 km/h (1 Bft) S-SW 212 0 min 0,000 mm 0,0 UV-I 0 W/m 9,7 C 12,0 C 6,4 km/h (2 Bft) 97,87 %
10.10.2017 19:59 12,0 C 11,1 C 86 % 1019,6 hPa 0,0 l/m 3,7 km/h (1 Bft) S-SW 212 0 min 0,000 mm 0,0 UV-I 0 W/m 9,7 C 12,0 C 4,8 km/h (1 Bft) 95,89 %
10.10.2017 20:00 12,0 C 11,1 C 86 % 1019,6 hPa 0,0 l/m 4,4 km/h (1 Bft) S-SW 212 0 min 0,000 mm 0,0 UV-I 0 W/m 9,7 C 12,0 C 4,8 km/h (1 Bft) 100,00 %
10.10.2017 20:02 11,9 C 11,1 C 86 % 1019,5 hPa 0,0 l/m 4,1 km/h (1 Bft) S-SW 212 0 min 0,026 mm 0,0 UV-I 0 W/m 9,6 C 11,9 C 6,4 km/h (2 Bft) 96,23 %
10.10.2017 20:04 11,9 C 11,1 C 87 % 1019,6 hPa 0,0 l/m 4,9 km/h (1 Bft) SW 232 0 min 0,000 mm 0,0 UV-I 0 W/m 9,8 C 11,9 C 8,0 km/h (2 Bft) 91,49 %
10.10.2017 20:06 11,9 C 11,1 C 87 % 1019,6 hPa 0,0 l/m 5,2 km/h (1 Bft) SW 223 0 min 0,000 mm 0,0 UV-I 0 W/m 9,8 C 11,9 C 6,4 km/h (2 Bft) 97,56 %
10.10.2017 20:08 11,9 C 11,1 C 87 % 1019,6 hPa 0,0 l/m 3,7 km/h (1 Bft) SW 223 0 min 0,000 mm 0,0 UV-I 0 W/m 9,8 C 11,9 C 4,8 km/h (1 Bft) 96,23 %
10.10.2017 20:10 11,9 C 11,1 C 87 % 1019,6 hPa 0,0 l/m 3,5 km/h (1 Bft) SW 223 0 min 0,000 mm 0,0 UV-I 0 W/m 9,8 C 11,9 C 6,4 km/h (2 Bft) 94,74 %
10.10.2017 20:12 11,8 C 11,1 C 87 % 1019,7 hPa 0,0 l/m 4,4 km/h (1 Bft) W-SW 245 0 min 0,000 mm 0,0 UV-I 0 W/m 9,7 C 11,8 C 6,4 km/h (2 Bft) 97,62 %
10.10.2017 20:14 11,8 C 11,1 C 87 % 1019,7 hPa 0,0 l/m 1,8 km/h (1 Bft) W-SW 245 0 min 0,000 mm 0,0 UV-I 0 W/m 9,7 C 11,8 C 3,2 km/h (1 Bft) 97,73 %
10.10.2017 20:16 11,8 C 11,1 C 87 % 1019,7 hPa 0,0 l/m 3,0 km/h (1 Bft) W-SW 245 0 min 0,000 mm 0,0 UV-I 0 W/m 9,7 C 11,8 C 4,8 km/h (1 Bft) 98,44 %
10.10.2017 20:18 11,8 C 11,1 C 88 % 1019,8 hPa 0,0 l/m 3,5 km/h (1 Bft) W-SW 256 0 min 0,000 mm 0,0 UV-I 0 W/m 9,9 C 11,8 C 6,4 km/h (2 Bft) 94,44 %
10.10.2017 20:20 11,8 C 11,1 C 88 % 1019,8 hPa 0,0 l/m 1,5 km/h (1 Bft) W-SW 256 0 min 0,000 mm 0,0 UV-I 0 W/m 9,9 C 11,8 C 4,8 km/h (1 Bft) 98,25 %
10.10.2017 20:22 11,7 C 11,1 C 88 % 1019,8 hPa 0,0 l/m 0,9 km/h (0 Bft) W-SW 255 0 min 0,000 mm 0,0 UV-I 0 W/m 9,8 C 11,7 C 4,8 km/h (1 Bft) 97,22 %
10.10.2017 20:24 11,7 C 11,1 C 88 % 1019,8 hPa 0,0 l/m 4,3 km/h (1 Bft) W 278 0 min 0,000 mm 0,0 UV-I 0 W/m 9,8 C 11,7 C 8,0 km/h (2 Bft) 98,15 %
10.10.2017 20:26 11,7 C 11,1 C 88 % 1019,9 hPa 0,0 l/m 2,5 km/h (1 Bft) W 278 0 min 0,000 mm 0,0 UV-I 0 W/m 9,8 C 11,7 C 4,8 km/h (1 Bft) 98,00 %
10.10.2017 20:29 11,7 C 11,1 C 88 % 1019,9 hPa 0,0 l/m 2,6 km/h (1 Bft) SW 231 0 min 0,000 mm 0,0 UV-I 0 W/m 9,8 C 11,7 C 9,7 km/h (2 Bft) 95,89 %
10.10.2017 20:30 11,7 C 11,1 C 88 % 1019,9 hPa 0,0 l/m 5,5 km/h (1 Bft) W-SW 238 0 min 0,000 mm 0,0 UV-I 0 W/m 9,8 C 11,7 C 8,0 km/h (2 Bft) 100,00 %
10.10.2017 20:32 11,7 C 11,1 C 88 % 1019,9 hPa 0,0 l/m 6,5 km/h (2 Bft) W-SW 252 0 min 0,000 mm 0,0 UV-I 0 W/m 9,8 C 11,7 C 11,3 km/h (2 Bft) 96,23 %
10.10.2017 20:34 11,7 C 11,1 C 88 % 1019,9 hPa 0,0 l/m 6,7 km/h (2 Bft) S-SW 213 0 min 0,000 mm 0,0 UV-I 0 W/m 9,8 C 11,5 C 11,3 km/h (2 Bft) 96,00 %
10.10.2017 20:36 11,8 C 11,1 C 87 % 1019,9 hPa 0,0 l/m 7,6 km/h (2 Bft) SW 229 0 min 0,000 mm 0,0 UV-I 0 W/m 9,7 C 11,0 C 12,9 km/h (3 Bft) 97,56 %
10.10.2017 20:38 11,8 C 11,1 C 87 % 1019,9 hPa 0,0 l/m 8,7 km/h (2 Bft) SW 236 0 min 0,000 mm 0,0 UV-I 0 W/m 9,7 C 10,3 C 14,5 km/h (3 Bft) 97,87 %
10.10.2017 20:40 11,8 C 11,1 C 87 % 1019,9 hPa 0,0 l/m 10,6 km/h (2 Bft) SW 233 0 min 0,000 mm 0,0 UV-I 0 W/m 9,7 C 9,3 C 16,1 km/h (3 Bft) 98,00 %
10.10.2017 20:42 11,8 C 11,1 C 87 % 1019,9 hPa 0,0 l/m 7,1 km/h (2 Bft) SW 236 0 min 0,000 mm 0,0 UV-I 0 W/m 9,7 C 11,3 C 11,3 km/h (2 Bft) 97,56 %
10.10.2017 20:44 11,8 C 11,1 C 87 % 1019,9 hPa 0,0 l/m 8,1 km/h (2 Bft) SW 217 0 min 0,000 mm 0,0 UV-I 0 W/m 9,7 C 10,7 C 11,3 km/h (2 Bft) 96,43 %
10.10.2017 20:46 11,8 C 11,1 C 87 % 1019,9 hPa 0,0 l/m 9,1 km/h (2 Bft) SW 220 0 min 0,000 mm 0,0 UV-I 0 W/m 9,7 C 10,1 C 12,9 km/h (3 Bft) 93,62 %
10.10.2017 20:48 11,8 C 11,1 C 87 % 1019,9 hPa 0,0 l/m 7,8 km/h (2 Bft) S-SW 209 0 min 0,000 mm 0,0 UV-I 0 W/m 9,7 C 10,9 C 12,9 km/h (3 Bft) 94,74 %
10.10.2017 20:50 11,8 C 11,1 C 87 % 1019,9 hPa 0,0 l/m 7,4 km/h (2 Bft) SW 220 0 min 0,000 mm 0,0 UV-I 0 W/m 9,7 C 11,1 C 11,3 km/h (2 Bft) 97,87 %
10.10.2017 20:52 11,8 C 11,1 C 87 % 1019,9 hPa 0,0 l/m 7,0 km/h (2 Bft) SW 225 0 min 0,000 mm 0,0 UV-I 0 W/m 9,7 C 11,4 C 14,5 km/h (3 Bft) 92,00 %
10.10.2017 20:54 11,8 C 11,1 C 87 % 1019,9 hPa 0,0 l/m 7,6 km/h (2 Bft) W-SW 252 0 min 0,000 mm 0,0 UV-I 0 W/m 9,7 C 11,0 C 14,5 km/h (3 Bft) 98,11 %
10.10.2017 20:56 11,8 C 11,1 C 87 % 1020,0 hPa 0,0 l/m 7,3 km/h (2 Bft) W-SW 238 0 min 0,000 mm 0,0 UV-I 0 W/m 9,7 C 11,2 C 11,3 km/h (2 Bft) 97,56 %
10.10.2017 20:58 11,8 C 11,1 C 87 % 1020,0 hPa 0,0 l/m 7,0 km/h (2 Bft) SW 231 0 min 0,000 mm 0,0 UV-I 0 W/m 9,7 C 11,4 C 9,7 km/h (2 Bft) 98,11 %
10.10.2017 21:00 11,8 C 11,1 C 87 % 1020,0 hPa 0,0 l/m 8,1 km/h (2 Bft) SW 226 0 min 0,000 mm 0,0 UV-I 0 W/m 9,7 C 10,7 C 12,9 km/h (3 Bft) 97,62 %
10.10.2017 21:02 11,8 C 11,1 C 87 % 1020,1 hPa 0,0 l/m 7,3 km/h (2 Bft) S-SW 208 0 min 0,000 mm 0,0 UV-I 0 W/m 9,7 C 11,2 C 14,5 km/h (3 Bft) 98,00 %
10.10.2017 21:04 11,8 C 11,1 C 87 % 1020,1 hPa 0,0 l/m 7,3 km/h (2 Bft) SW 219 0 min 0,000 mm 0,0 UV-I 0 W/m 9,7 C 11,2 C 11,3 km/h (2 Bft) 97,87 %
10.10.2017 21:06 11,8 C 11,1 C 87 % 1020,0 hPa 0,0 l/m 7,1 km/h (2 Bft) SW 231 0 min 0,000 mm 0,0 UV-I 0 W/m 9,7 C 11,3 C 11,3 km/h (2 Bft) 97,37 %
10.10.2017 21:08 11,7 C 11,1 C 87 % 1020,0 hPa 0,0 l/m 7,4 km/h (2 Bft) SW 225 0 min 0,000 mm 0,0 UV-I 0 W/m 9,6 C 11,0 C 12,9 km/h (3 Bft) 96,00 %
10.10.2017 21:10 11,8 C 11,1 C 87 % 1020,0 hPa 0,0 l/m 9,9 km/h (2 Bft) W 276 0 min 0,000 mm 0,0 UV-I 0 W/m 9,7 C 9,6 C 16,1 km/h (3 Bft) 97,56 %
10.10.2017 21:12 11,8 C 11,1 C 87 % 1020,0 hPa 0,0 l/m 10,9 km/h (2 Bft) W-SW 243 0 min 0,000 mm 0,0 UV-I 0 W/m 9,7 C 9,1 C 19,3 km/h (3 Bft) 96,23 %
10.10.2017 21:14 11,8 C 11,1 C 87 % 1020,1 hPa 0,0 l/m 9,4 km/h (2 Bft) SW 228 0 min 0,000 mm 0,0 UV-I 0 W/m 9,7 C 9,9 C 17,7 km/h (3 Bft) 98,11 %
10.10.2017 21:16 11,8 C 11,1 C 87 % 1020,0 hPa 0,0 l/m 12,9 km/h (3 Bft) S-SW 207 0 min 0,000 mm 0,0 UV-I 0 W/m 9,7 C 8,2 C 19,3 km/h (3 Bft) 97,87 %
10.10.2017 21:18 11,8 C 11,1 C 87 % 1020,0 hPa 0,0 l/m 11,7 km/h (2 Bft) SW 214 0 min 0,000 mm 0,0 UV-I 0 W/m 9,7 C 8,7 C 20,9 km/h (4 Bft) 97,37 %
10.10.2017 21:20 11,8 C 11,1 C 87 % 1020,0 hPa 0,0 l/m 11,9 km/h (2 Bft) S-SW 204 0 min 0,000 mm 0,0 UV-I 0 W/m 9,7 C 8,6 C 17,7 km/h (3 Bft) 100,00 %
10.10.2017 21:22 11,9 C 11,1 C 87 % 1020,0 hPa 0,0 l/m 10,0 km/h (2 Bft) SW 234 0 min 0,000 mm 0,0 UV-I 0 W/m 9,8 C 9,7 C 19,3 km/h (3 Bft) 96,15 %
10.10.2017 21:24 11,9 C 11,1 C 87 % 1020,1 hPa 0,0 l/m 12,4 km/h (3 Bft) W-SW 242 0 min 0,000 mm 0,0 UV-I 0 W/m 9,8 C 8,5 C 17,7 km/h (3 Bft) 100,00 %
10.10.2017 21:26 11,9 C 11,1 C 87 % 1020,1 hPa 0,0 l/m 11,5 km/h (2 Bft) SW 228 0 min 0,000 mm 0,0 UV-I 0 W/m 9,8 C 8,9 C 19,3 km/h (3 Bft) 100,00 %
10.10.2017 21:28 11,9 C 11,1 C 87 % 1020,0 hPa 0,0 l/m 11,0 km/h (2 Bft) W-SW 238 0 min 0,000 mm 0,0 UV-I 0 W/m 9,8 C 9,2 C 17,7 km/h (3 Bft) 92,68 %
10.10.2017 21:30 11,9 C 11,1 C 87 % 1020,0 hPa 0,0 l/m 13,5 km/h (3 Bft) W-SW 251 0 min 0,000 mm 0,0 UV-I 0 W/m 9,8 C 8,0 C 20,9 km/h (4 Bft) 100,00 %
10.10.2017 21:32 11,9 C 11,1 C 87 % 1020,0 hPa 0,0 l/m 13,3 km/h (3 Bft) W-SW 245 0 min 0,000 mm 0,0 UV-I 0 W/m 9,8 C 8,1 C 22,5 km/h (4 Bft) 100,00 %
10.10.2017 21:34 11,9 C 11,1 C 87 % 1020,0 hPa 0,0 l/m 14,0 km/h (3 Bft) S-SW 207 0 min 0,000 mm 0,0 UV-I 0 W/m 9,8 C 7,8 C 19,3 km/h (3 Bft) 100,00 %
10.10.2017 21:36 11,9 C 11,1 C 87 % 1020,0 hPa 0,0 l/m 13,3 km/h (3 Bft) S-SW 212 0 min 0,000 mm 0,0 UV-I 0 W/m 9,8 C 8,1 C 19,3 km/h (3 Bft) 98,00 %
10.10.2017 21:38 11,9 C 11,1 C 87 % 1020,0 hPa 0,0 l/m 11,6 km/h (2 Bft) SW 215 0 min 0,000 mm 0,0 UV-I 0 W/m 9,8 C 8,9 C 19,3 km/h (3 Bft) 100,00 %
10.10.2017 21:40 11,9 C 11,1 C 87 % 1020,1 hPa 0,0 l/m 10,7 km/h (2 Bft) S-SW 202 0 min 0,000 mm 0,0 UV-I 0 W/m 9,8 C 9,3 C 14,5 km/h (3 Bft) 100,00 %
10.10.2017 21:42 11,9 C 11,1 C 87 % 1020,2 hPa 0,0 l/m 12,1 km/h (2 Bft) SW 231 0 min 0,000 mm 0,0 UV-I 0 W/m 9,8 C 8,7 C 19,3 km/h (3 Bft) 100,00 %
10.10.2017 21:44 11,9 C 11,1 C 87 % 1020,2 hPa 0,0 l/m 9,8 km/h (2 Bft) W-SW 238 0 min 0,000 mm 0,0 UV-I 0 W/m 9,8 C 9,8 C 14,5 km/h (3 Bft) 100,00 %
10.10.2017 21:46 11,9 C 11,1 C 87 % 1020,2 hPa 0,0 l/m 9,0 km/h (2 Bft) W-SW 237 0 min 0,000 mm 0,0 UV-I 0 W/m 9,8 C 10,2 C 14,5 km/h (3 Bft) 100,00 %
10.10.2017 21:48 11,8 C 11,1 C 87 % 1020,2 hPa 0,0 l/m 7,2 km/h (2 Bft) SW 219 0 min 0,000 mm 0,0 UV-I 0 W/m 9,7 C 11,3 C 11,3 km/h (2 Bft) 100,00 %
10.10.2017 21:50 11,8 C 11,1 C 87 % 1020,2 hPa 0,0 l/m 6,9 km/h (2 Bft) W-SW 239 0 min 0,000 mm 0,0 UV-I 0 W/m 9,7 C 11,5 C 12,9 km/h (3 Bft) 100,00 %
10.10.2017 21:52 11,8 C 11,1 C 88 % 1020,2 hPa 0,0 l/m 9,4 km/h (2 Bft) W-SW 239 0 min 0,000 mm 0,0 UV-I 0 W/m 9,9 C 9,9 C 14,5 km/h (3 Bft) 97,37 %
10.10.2017 21:54 11,8 C 11,1 C 88 % 1020,3 hPa 0,0 l/m 7,9 km/h (2 Bft) W-SW 242 0 min 0,000 mm 0,0 UV-I 0 W/m 9,9 C 10,8 C 12,9 km/h (3 Bft) 98,11 %
10.10.2017 21:56 11,8 C 11,1 C 88 % 1020,3 hPa 0,0 l/m 7,8 km/h (2 Bft) SW 227 0 min 0,000 mm 0,0 UV-I 0 W/m 9,9 C 10,9 C 9,7 km/h (2 Bft) 100,00 %
10.10.2017 21:58 11,8 C 11,1 C 88 % 1020,4 hPa 0,0 l/m 9,4 km/h (2 Bft) S-SW 206 0 min 0,000 mm 0,0 UV-I 0 W/m 9,9 C 9,9 C 14,5 km/h (3 Bft) 97,37 %
10.10.2017 22:00 11,8 C 11,1 C 88 % 1020,3 hPa 0,0 l/m 9,0 km/h (2 Bft) SW 221 0 min 0,025 mm 0,0 UV-I 0 W/m 9,9 C 10,1 C 14,5 km/h (3 Bft) 100,00 %
10.10.2017 22:02 11,7 C 11,1 C 88 % 1020,3 hPa 0,0 l/m 13,2 km/h (3 Bft) W-SW 246 0 min 0,000 mm 0,0 UV-I 0 W/m 9,8 C 7,9 C 20,9 km/h (4 Bft) 100,00 %
10.10.2017 22:04 11,7 C 11,1 C 88 % 1020,4 hPa 0,0 l/m 10,5 km/h (2 Bft) W-SW 237 0 min 0,000 mm 0,0 UV-I 0 W/m 9,8 C 9,2 C 17,7 km/h (3 Bft) 100,00 %
10.10.2017 22:06 11,7 C 11,1 C 89 % 1020,5 hPa 0,2 l/m 12,1 km/h (2 Bft) W 266 0 min 0,000 mm 0,0 UV-I 0 W/m 9,9 C 8,4 C 19,3 km/h (3 Bft) 100,00 %
10.10.2017 22:08 11,6 C 11,1 C 89 % 1020,5 hPa 0,0 l/m 9,2 km/h (2 Bft) W-SW 253 0 min 0,000 mm 0,0 UV-I 0 W/m 9,8 C 9,8 C 12,9 km/h (3 Bft) 100,00 %
10.10.2017 22:10 11,6 C 11,1 C 90 % 1020,5 hPa 0,0 l/m 10,1 km/h (2 Bft) W-SW 252 0 min 0,000 mm 0,0 UV-I 0 W/m 10,0 C 9,3 C 14,5 km/h (3 Bft) 100,00 %
10.10.2017 22:12 11,5 C 11,1 C 90 % 1020,5 hPa 0,0 l/m 7,2 km/h (2 Bft) W-SW 247 0 min 0,000 mm 0,0 UV-I 0 W/m 9,9 C 11,0 C 12,9 km/h (3 Bft) 100,00 %
10.10.2017 22:14 11,4 C 11,1 C 90 % 1020,5 hPa 0,0 l/m 10,1 km/h (2 Bft) W-SW 250 0 min 0,000 mm 0,0 UV-I 0 W/m 9,8 C 9,1 C 14,5 km/h (3 Bft) 100,00 %
10.10.2017 22:16 11,4 C 11,1 C 91 % 1020,6 hPa 0,0 l/m 8,5 km/h (2 Bft) W-SW 249 0 min 0,000 mm 0,0 UV-I 0 W/m 10,0 C 10,0 C 12,9 km/h (3 Bft) 100,00 %
10.10.2017 22:18 11,3 C 11,1 C 91 % 1020,6 hPa 0,0 l/m 8,9 km/h (2 Bft) SW 219 0 min 0,000 mm 0,0 UV-I 0 W/m 9,9 C 9,7 C 14,5 km/h (3 Bft) 97,87 %
10.10.2017 22:20 11,3 C 11,1 C 91 % 1020,5 hPa 0,2 l/m 8,6 km/h (2 Bft) W-SW 247 0 min 0,000 mm 0,0 UV-I 0 W/m 9,9 C 9,8 C 16,1 km/h (3 Bft) 100,00 %
10.10.2017 22:22 11,3 C 11,1 C 91 % 1020,6 hPa 0,2 l/m 11,1 km/h (2 Bft) W 268 0 min 0,000 mm 0,0 UV-I 0 W/m 9,9 C 8,5 C 16,1 km/h (3 Bft) 100,00 %
10.10.2017 22:24 11,2 C 11,1 C 92 % 1020,5 hPa 0,2 l/m 10,2 km/h (2 Bft) SW 236 0 min 0,000 mm 0,0 UV-I 0 W/m 9,9 C 8,8 C 16,1 km/h (3 Bft) 97,56 %
10.10.2017 22:26 11,2 C 11,1 C 92 % 1020,5 hPa 0,0 l/m 9,9 km/h (2 Bft) W 261 0 min 0,000 mm 0,0 UV-I 0 W/m 9,9 C 9,0 C 16,1 km/h (3 Bft) 100,00 %
10.10.2017 22:28 11,2 C 11,1 C 92 % 1020,6 hPa 0,0 l/m 11,3 km/h (2 Bft) W-SW 252 0 min 0,000 mm 0,0 UV-I 0 W/m 9,9 C 8,2 C 16,1 km/h (3 Bft) 100,00 %
10.10.2017 22:30 11,2 C 11,1 C 92 % 1020,6 hPa 0,0 l/m 11,8 km/h (2 Bft) W-SW 251 0 min 0,000 mm 0,0 UV-I 0 W/m 9,9 C 8,0 C 17,7 km/h (3 Bft) 100,00 %
10.10.2017 22:32 11,1 C 11,1 C 93 % 1020,6 hPa 0,0 l/m 11,9 km/h (2 Bft) S-SW 200 0 min 0,000 mm 0,0 UV-I 0 W/m 10,0 C 7,8 C 16,1 km/h (3 Bft) 100,00 %
10.10.2017 22:34 11,1 C 11,1 C 93 % 1020,6 hPa 0,0 l/m 8,8 km/h (2 Bft) S-SW 198 0 min 0,000 mm 0,0 UV-I 0 W/m 10,0 C 9,5 C 16,1 km/h (3 Bft) 100,00 %
10.10.2017 22:36 11,1 C 11,1 C 93 % 1020,6 hPa 0,2 l/m 10,1 km/h (2 Bft) SW 236 0 min 0,000 mm 0,0 UV-I 0 W/m 10,0 C 8,8 C 16,1 km/h (3 Bft) 100,00 %
10.10.2017 22:38 11,1 C 11,1 C 93 % 1020,6 hPa 0,0 l/m 11,1 km/h (2 Bft) W-SW 240 0 min 0,000 mm 0,0 UV-I 0 W/m 10,0 C 8,2 C 16,1 km/h (3 Bft) 98,11 %
10.10.2017 22:40 11,0 C 11,1 C 93 % 1020,6 hPa 0,0 l/m 10,3 km/h (2 Bft) W-SW 245 0 min 0,000 mm 0,0 UV-I 0 W/m 9,9 C 8,5 C 16,1 km/h (3 Bft) 100,00 %
10.10.2017 22:42 11,0 C 11,1 C 93 % 1020,6 hPa 0,0 l/m 11,4 km/h (2 Bft) SW 219 0 min 0,000 mm 0,0 UV-I 0 W/m 9,9 C 8,0 C 17,7 km/h (3 Bft) 100,00 %
10.10.2017 22:44 11,0 C 11,1 C 93 % 1020,5 hPa 0,0 l/m 10,8 km/h (2 Bft) S-SW 212 0 min 0,000 mm 0,0 UV-I 0 W/m 9,9 C 8,3 C 17,7 km/h (3 Bft) 100,00 %
10.10.2017 22:46 11,0 C 11,1 C 94 % 1020,6 hPa 0,0 l/m 9,9 km/h (2 Bft) S-SW 206 0 min 0,000 mm 0,0 UV-I 0 W/m 10,1 C 8,8 C 12,9 km/h (3 Bft) 100,00 %
10.10.2017 22:48 11,0 C 11,1 C 94 % 1020,5 hPa 0,0 l/m 12,0 km/h (2 Bft) SW 214 0 min 0,000 mm 0,0 UV-I 0 W/m 10,1 C 7,7 C 19,3 km/h (3 Bft) 98,31 %
10.10.2017 22:50 11,0 C 11,1 C 94 % 1020,6 hPa 0,0 l/m 11,0 km/h (2 Bft) W-SW 238 0 min 0,000 mm 0,0 UV-I 0 W/m 10,1 C 8,2 C 19,3 km/h (3 Bft) 97,37 %
10.10.2017 22:52 11,0 C 11,1 C 94 % 1020,6 hPa 0,0 l/m 12,3 km/h (3 Bft) SW 226 0 min 0,000 mm 0,0 UV-I 0 W/m 10,1 C 7,5 C 19,3 km/h (3 Bft) 96,23 %
10.10.2017 22:54 11,1 C 11,1 C 94 % 1020,6 hPa 0,0 l/m 12,6 km/h (3 Bft) S-SW 212 0 min 0,000 mm 0,0 UV-I 0 W/m 10,2 C 7,5 C 19,3 km/h (3 Bft) 97,44 %
10.10.2017 22:56 11,1 C 11,1 C 94 % 1020,6 hPa 0,0 l/m 11,8 km/h (2 Bft) W-SW 246 0 min 0,000 mm 0,0 UV-I 0 W/m 10,2 C 7,9 C 19,3 km/h (3 Bft) 96,55 %
10.10.2017 22:58 11,1 C 11,1 C 94 % 1020,6 hPa 0,0 l/m 13,5 km/h (3 Bft) W-SW 252 0 min 0,000 mm 0,0 UV-I 0 W/m 10,2 C 7,1 C 22,5 km/h (4 Bft) 97,22 %
10.10.2017 23:00 11,1 C 11,1 C 94 % 1020,6 hPa 0,0 l/m 13,5 km/h (3 Bft) SW 230 0 min 0,000 mm 0,0 UV-I 0 W/m 10,2 C 7,1 C 19,3 km/h (3 Bft) 98,11 %
10.10.2017 23:02 11,1 C 11,1 C 94 % 1020,6 hPa 0,0 l/m 11,7 km/h (2 Bft) S-SW 202 0 min 0,000 mm 0,0 UV-I 0 W/m 10,2 C 7,9 C 17,7 km/h (3 Bft) 95,45 %
10.10.2017 23:04 11,1 C 11,1 C 94 % 1020,6 hPa 0,0 l/m 14,3 km/h (3 Bft) SW 219 0 min 0,000 mm 0,0 UV-I 0 W/m 10,2 C 6,8 C 20,9 km/h (4 Bft) 98,11 %
10.10.2017 23:06 11,1 C 11,1 C 94 % 1020,6 hPa 0,0 l/m 10,2 km/h (2 Bft) S-SW 205 0 min 0,000 mm 0,0 UV-I 0 W/m 10,2 C 8,7 C 16,1 km/h (3 Bft) 97,56 %
10.10.2017 23:08 11,1 C 11,1 C 94 % 1020,6 hPa 0,0 l/m 10,7 km/h (2 Bft) SW 229 0 min 0,000 mm 0,0 UV-I 0 W/m 10,2 C 8,4 C 20,9 km/h (4 Bft) 97,73 %
10.10.2017 23:10 11,1 C 11,1 C 94 % 1020,5 hPa 0,0 l/m 12,9 km/h (3 Bft) SW 223 0 min 0,000 mm 0,0 UV-I 0 W/m 10,2 C 7,4 C 20,9 km/h (4 Bft) 96,23 %
10.10.2017 23:12 11,1 C 11,1 C 94 % 1020,6 hPa 0,0 l/m 11,4 km/h (2 Bft) S 188 0 min 0,000 mm 0,0 UV-I 0 W/m 10,2 C 8,1 C 19,3 km/h (3 Bft) 98,00 %
10.10.2017 23:14 11,1 C 11,1 C 94 % 1020,6 hPa 0,0 l/m 10,4 km/h (2 Bft) W-SW 238 0 min 0,000 mm 0,0 UV-I 0 W/m 10,2 C 8,6 C 14,5 km/h (3 Bft) 95,45 %
10.10.2017 23:16 11,1 C 11,1 C 94 % 1020,7 hPa 0,0 l/m 15,5 km/h (3 Bft) SW 225 0 min 0,000 mm 0,0 UV-I 0 W/m 10,2 C 6,3 C 22,5 km/h (4 Bft) 97,87 %
10.10.2017 23:18 11,1 C 11,1 C 94 % 1020,7 hPa 0,0 l/m 12,0 km/h (2 Bft) W-SW 238 0 min 0,000 mm 0,0 UV-I 0 W/m 10,2 C 7,8 C 17,7 km/h (3 Bft) 97,37 %
10.10.2017 23:20 11,1 C 11,1 C 94 % 1020,6 hPa 0,0 l/m 12,1 km/h (2 Bft) S-SW 192 0 min 0,000 mm 0,0 UV-I 0 W/m 10,2 C 7,7 C 16,1 km/h (3 Bft) 97,87 %
10.10.2017 23:22 11,1 C 11,1 C 94 % 1020,7 hPa 0,0 l/m 13,4 km/h (3 Bft) S-SW 202 0 min 0,000 mm 0,0 UV-I 0 W/m 10,2 C 7,1 C 20,9 km/h (4 Bft) 100,00 %
10.10.2017 23:24 11,1 C 11,1 C 94 % 1020,7 hPa 0,0 l/m 13,9 km/h (3 Bft) S 190 0 min 0,000 mm 0,0 UV-I 0 W/m 10,2 C 6,9 C 20,9 km/h (4 Bft) 97,37 %
10.10.2017 23:26 11,1 C 11,1 C 94 % 1020,7 hPa 0,0 l/m 13,1 km/h (3 Bft) W 265 0 min 0,000 mm 0,0 UV-I 0 W/m 10,2 C 7,3 C 22,5 km/h (4 Bft) 100,00 %
10.10.2017 23:28 11,2 C 11,1 C 94 % 1020,7 hPa 0,0 l/m 12,9 km/h (3 Bft) W-SW 238 0 min 0,000 mm 0,0 UV-I 0 W/m 10,3 C 7,5 C 16,1 km/h (3 Bft) 98,00 %
10.10.2017 23:30 11,2 C 11,1 C 94 % 1020,8 hPa 0,0 l/m 12,6 km/h (3 Bft) SW 217 0 min 0,000 mm 0,0 UV-I 0 W/m 10,3 C 7,6 C 20,9 km/h (4 Bft) 97,87 %
10.10.2017 23:32 11,2 C 11,1 C 94 % 1020,7 hPa 0,0 l/m 11,7 km/h (2 Bft) S-SW 200 0 min 0,000 mm 0,0 UV-I 0 W/m 10,3 C 8,0 C 17,7 km/h (3 Bft) 98,11 %
10.10.2017 23:34 11,2 C 11,1 C 94 % 1020,8 hPa 0,0 l/m 10,1 km/h (2 Bft) SW 219 0 min 0,000 mm 0,0 UV-I 0 W/m 10,3 C 8,9 C 16,1 km/h (3 Bft) 100,00 %
10.10.2017 23:36 11,2 C 11,1 C 94 % 1020,7 hPa 0,0 l/m 11,3 km/h (2 Bft) S-SW 195 0 min 0,000 mm 0,0 UV-I 0 W/m 10,3 C 8,2 C 16,1 km/h (3 Bft) 100,00 %
10.10.2017 23:38 11,2 C 11,1 C 94 % 1020,7 hPa 0,0 l/m 11,4 km/h (2 Bft) S-SW 199 0 min 0,000 mm 0,0 UV-I 0 W/m 10,3 C 8,2 C 17,7 km/h (3 Bft) 100,00 %
10.10.2017 23:40 11,2 C 11,1 C 94 % 1020,7 hPa 0,0 l/m 13,7 km/h (3 Bft) S-SW 192 0 min 0,000 mm 0,0 UV-I 0 W/m 10,3 C 7,1 C 19,3 km/h (3 Bft) 100,00 %
10.10.2017 23:42 11,2 C 11,1 C 94 % 1020,7 hPa 0,0 l/m 11,9 km/h (2 Bft) S-SW 208 0 min 0,000 mm 0,0 UV-I 0 W/m 10,3 C 7,9 C 20,9 km/h (4 Bft) 97,87 %
10.10.2017 23:44 11,2 C 11,1 C 94 % 1020,7 hPa 0,0 l/m 14,0 km/h (3 Bft) SW 235 0 min 0,000 mm 0,0 UV-I 0 W/m 10,3 C 7,0 C 27,4 km/h (4 Bft) 95,74 %
10.10.2017 23:46 11,3 C 11,1 C 94 % 1020,8 hPa 0,0 l/m 16,8 km/h (3 Bft) S-SW 213 0 min 0,000 mm 0,0 UV-I 0 W/m 10,4 C 6,0 C 29,0 km/h (5 Bft) 97,56 %
10.10.2017 23:48 11,3 C 11,1 C 94 % 1020,7 hPa 0,0 l/m 14,6 km/h (3 Bft) S-SW 209 0 min 0,000 mm 0,0 UV-I 0 W/m 10,4 C 6,9 C 20,9 km/h (4 Bft) 98,00 %
10.10.2017 23:50 11,3 C 11,1 C 94 % 1020,7 hPa 0,0 l/m 13,8 km/h (3 Bft) S-SW 205 0 min 0,000 mm 0,0 UV-I 0 W/m 10,4 C 7,2 C 19,3 km/h (3 Bft) 98,11 %
10.10.2017 23:52 11,3 C 11,1 C 94 % 1020,7 hPa 0,0 l/m 11,3 km/h (2 Bft) W-SW 244 0 min 0,000 mm 0,0 UV-I 0 W/m 10,4 C 8,4 C 17,7 km/h (3 Bft) 97,14 %
10.10.2017 23:54 11,3 C 11,1 C 94 % 1020,7 hPa 0,0 l/m 8,9 km/h (2 Bft) S-SW 213 0 min 0,000 mm 0,0 UV-I 0 W/m 10,4 C 9,7 C 14,5 km/h (3 Bft) 98,00 %
10.10.2017 23:56 11,3 C 11,1 C 94 % 1020,6 hPa 0,0 l/m 10,8 km/h (2 Bft) SW 223 0 min 0,000 mm 0,0 UV-I 0 W/m 10,4 C 8,6 C 16,1 km/h (3 Bft) 98,00 %
10.10.2017 23:58 11,3 C 11,1 C 94 % 1020,6 hPa 0,0 l/m 11,9 km/h (2 Bft) SW 217 0 min 0,000 mm 0,0 UV-I 0 W/m 10,4 C 8,1 C 20,9 km/h (4 Bft) 94,74 %
_ Min-Zeit 04:50 00:00 14:00 06:46 - 20:22 - - - - - - 06:32 00:14 09:32 09:42
Minimum _ 8,6 C 11,1 C 60 % 1018,0 hPa - 0,9 km/h (0 Bft) - - - - - - 7,1 C 4,6 C 3,2 km/h (1 Bft) 91,49 %
_ Max-Zeit 14:16 00:00 22:46 23:30 13:04 13:24 - - 07:26 13:00 12:14 12:40 23:46 15:30 11:42 00:00
Maximum _ 15,9 C 11,1 C 94 % 1020,8 hPa 0,2 l/m 21,5 km/h
S-SW (4 Bft)
- - 2 min 0,330 mm 2,5 UV-I 769 W/m 10,4 C 14,8 C 33,8 km/h
SW (5 Bft)
100,00 %
Durchschnitt _ 11,6 C 11,1 C 82 % 1019,0 hPa #1,2 l/m 10,0 km/h (2 Bft) W-SW - #3:22 h #1,854 mm 1,4 UV-I 224 W/m 8,5 C 9,5 C 15,5 km/h (3 Bft) 98,05 %